<?xml version="1.0" encoding="UTF-8" standalone="no" ?>
<gpx xmlns="http://www.topografix.com/GPX/1/1" xmlns:xsi="http://www.w3.org/2001/XMLSchema-instance" xsi:schemaLocation="http://www.topografix.com/GPX/1/1 http://www.topografix.com/GPX/1/1/gpx.xsd" version="1.1" creator="VisuGPX - https://www.visugpx.com">
  <metadata>
    <name> Lachapelle-Graillouse</name>
  </metadata>
  <trk>
    <name><![CDATA[Tracé actuel: 11 SEP 2024 09:35]]></name>
    <trkseg>
      <trkpt lat="44.81187" lon="4.0212">
        <ele>1062.39</ele>
        <time>2024-09-11T07:35:35Z</time>
      </trkpt>
      <trkpt lat="44.81188" lon="4.0212">
        <ele>1070.08</ele>
        <time>2024-09-11T07:35:36Z</time>
      </trkpt>
      <trkpt lat="44.81188" lon="4.0212">
        <ele>1068.16</ele>
        <time>2024-09-11T07:35:37Z</time>
      </trkpt>
      <trkpt lat="44.81187" lon="4.02117">
        <ele>1071.53</ele>
        <time>2024-09-11T07:35:39Z</time>
      </trkpt>
      <trkpt lat="44.81186" lon="4.02117">
        <ele>1070.57</ele>
        <time>2024-09-11T07:35:40Z</time>
      </trkpt>
      <trkpt lat="44.81186" lon="4.02117">
        <ele>1073.93</ele>
        <time>2024-09-11T07:35:42Z</time>
      </trkpt>
      <trkpt lat="44.81187" lon="4.02117">
        <ele>1076.81</ele>
        <time>2024-09-11T07:35:46Z</time>
      </trkpt>
      <trkpt lat="44.81187" lon="4.02116">
        <ele>1080.66</ele>
        <time>2024-09-11T07:35:50Z</time>
      </trkpt>
      <trkpt lat="44.81187" lon="4.02117">
        <ele>1084.02</ele>
        <time>2024-09-11T07:35:55Z</time>
      </trkpt>
      <trkpt lat="44.81188" lon="4.02119">
        <ele>1087.39</ele>
        <time>2024-09-11T07:36:00Z</time>
      </trkpt>
      <trkpt lat="44.81188" lon="4.02119">
        <ele>1090.75</ele>
        <time>2024-09-11T07:36:06Z</time>
      </trkpt>
      <trkpt lat="44.81189" lon="4.02119">
        <ele>1094.12</ele>
        <time>2024-09-11T07:36:13Z</time>
      </trkpt>
      <trkpt lat="44.8119" lon="4.02119">
        <ele>1097.48</ele>
        <time>2024-09-11T07:36:20Z</time>
      </trkpt>
      <trkpt lat="44.81189" lon="4.02119">
        <ele>1098.92</ele>
        <time>2024-09-11T07:36:24Z</time>
      </trkpt>
      <trkpt lat="44.8119" lon="4.02119">
        <ele>1102.29</ele>
        <time>2024-09-11T07:36:34Z</time>
      </trkpt>
      <trkpt lat="44.8119" lon="4.02121">
        <ele>1105.17</ele>
        <time>2024-09-11T07:36:47Z</time>
      </trkpt>
      <trkpt lat="44.8119" lon="4.02123">
        <ele>1108.54</ele>
        <time>2024-09-11T07:37:05Z</time>
      </trkpt>
      <trkpt lat="44.8119" lon="4.02122">
        <ele>1110.46</ele>
        <time>2024-09-11T07:37:21Z</time>
      </trkpt>
      <trkpt lat="44.81189" lon="4.02122">
        <ele>1110.46</ele>
        <time>2024-09-11T07:37:42Z</time>
      </trkpt>
      <trkpt lat="44.81189" lon="4.02121">
        <ele>1110.46</ele>
        <time>2024-09-11T07:37:52Z</time>
      </trkpt>
      <trkpt lat="44.81187" lon="4.02122">
        <ele>1110.46</ele>
        <time>2024-09-11T07:38:02Z</time>
      </trkpt>
      <trkpt lat="44.81185" lon="4.02122">
        <ele>1110.46</ele>
        <time>2024-09-11T07:38:21Z</time>
      </trkpt>
      <trkpt lat="44.81185" lon="4.02121">
        <ele>1110.46</ele>
        <time>2024-09-11T07:38:36Z</time>
      </trkpt>
      <trkpt lat="44.81184" lon="4.02121">
        <ele>1110.46</ele>
        <time>2024-09-11T07:38:53Z</time>
      </trkpt>
      <trkpt lat="44.81184" lon="4.02121">
        <ele>1109.98</ele>
        <time>2024-09-11T07:39:00Z</time>
      </trkpt>
      <trkpt lat="44.81178" lon="4.02126">
        <ele>1110.46</ele>
        <time>2024-09-11T07:39:09Z</time>
      </trkpt>
      <trkpt lat="44.81176" lon="4.02126">
        <ele>1109.98</ele>
        <time>2024-09-11T07:39:16Z</time>
      </trkpt>
      <trkpt lat="44.81175" lon="4.02127">
        <ele>1109.98</ele>
        <time>2024-09-11T07:39:18Z</time>
      </trkpt>
      <trkpt lat="44.8117" lon="4.02124">
        <ele>1109.02</ele>
        <time>2024-09-11T07:39:25Z</time>
      </trkpt>
      <trkpt lat="44.81167" lon="4.02118">
        <ele>1108.06</ele>
        <time>2024-09-11T07:39:34Z</time>
      </trkpt>
      <trkpt lat="44.81164" lon="4.02107">
        <ele>1106.61</ele>
        <time>2024-09-11T07:39:43Z</time>
      </trkpt>
      <trkpt lat="44.81156" lon="4.02105">
        <ele>1105.65</ele>
        <time>2024-09-11T07:39:51Z</time>
      </trkpt>
      <trkpt lat="44.81147" lon="4.02105">
        <ele>1105.17</ele>
        <time>2024-09-11T07:40:00Z</time>
      </trkpt>
      <trkpt lat="44.81143" lon="4.02106">
        <ele>1105.17</ele>
        <time>2024-09-11T07:40:04Z</time>
      </trkpt>
      <trkpt lat="44.81136" lon="4.02109">
        <ele>1104.69</ele>
        <time>2024-09-11T07:40:11Z</time>
      </trkpt>
      <trkpt lat="44.8113" lon="4.02117">
        <ele>1104.21</ele>
        <time>2024-09-11T07:40:20Z</time>
      </trkpt>
      <trkpt lat="44.81127" lon="4.02123">
        <ele>1104.21</ele>
        <time>2024-09-11T07:40:29Z</time>
      </trkpt>
      <trkpt lat="44.81129" lon="4.02127">
        <ele>1104.21</ele>
        <time>2024-09-11T07:40:40Z</time>
      </trkpt>
      <trkpt lat="44.81131" lon="4.02136">
        <ele>1103.73</ele>
        <time>2024-09-11T07:40:49Z</time>
      </trkpt>
      <trkpt lat="44.81131" lon="4.02141">
        <ele>1103.25</ele>
        <time>2024-09-11T07:40:54Z</time>
      </trkpt>
      <trkpt lat="44.81134" lon="4.02152">
        <ele>1102.77</ele>
        <time>2024-09-11T07:41:04Z</time>
      </trkpt>
      <trkpt lat="44.8114" lon="4.0216">
        <ele>1102.77</ele>
        <time>2024-09-11T07:41:13Z</time>
      </trkpt>
      <trkpt lat="44.81144" lon="4.02172">
        <ele>1102.77</ele>
        <time>2024-09-11T07:41:22Z</time>
      </trkpt>
      <trkpt lat="44.81146" lon="4.02187">
        <ele>1101.81</ele>
        <time>2024-09-11T07:41:31Z</time>
      </trkpt>
      <trkpt lat="44.81149" lon="4.02204">
        <ele>1102.29</ele>
        <time>2024-09-11T07:41:41Z</time>
      </trkpt>
      <trkpt lat="44.8115" lon="4.02212">
        <ele>1101.81</ele>
        <time>2024-09-11T07:41:47Z</time>
      </trkpt>
      <trkpt lat="44.81152" lon="4.02217">
        <ele>1102.29</ele>
        <time>2024-09-11T07:41:51Z</time>
      </trkpt>
      <trkpt lat="44.81153" lon="4.02222">
        <ele>1102.29</ele>
        <time>2024-09-11T07:41:54Z</time>
      </trkpt>
      <trkpt lat="44.81158" lon="4.02234">
        <ele>1102.29</ele>
        <time>2024-09-11T07:42:03Z</time>
      </trkpt>
      <trkpt lat="44.81159" lon="4.02236">
        <ele>1102.77</ele>
        <time>2024-09-11T07:42:04Z</time>
      </trkpt>
      <trkpt lat="44.81161" lon="4.02247">
        <ele>1103.25</ele>
        <time>2024-09-11T07:42:12Z</time>
      </trkpt>
      <trkpt lat="44.81166" lon="4.02259">
        <ele>1103.73</ele>
        <time>2024-09-11T07:42:20Z</time>
      </trkpt>
      <trkpt lat="44.81167" lon="4.0227">
        <ele>1104.21</ele>
        <time>2024-09-11T07:42:28Z</time>
      </trkpt>
      <trkpt lat="44.81168" lon="4.02271">
        <ele>1104.69</ele>
        <time>2024-09-11T07:42:29Z</time>
      </trkpt>
      <trkpt lat="44.81167" lon="4.02277">
        <ele>1104.69</ele>
        <time>2024-09-11T07:42:34Z</time>
      </trkpt>
      <trkpt lat="44.81169" lon="4.02285">
        <ele>1105.65</ele>
        <time>2024-09-11T07:42:40Z</time>
      </trkpt>
      <trkpt lat="44.81168" lon="4.02288">
        <ele>1105.65</ele>
        <time>2024-09-11T07:42:42Z</time>
      </trkpt>
      <trkpt lat="44.8117" lon="4.02301">
        <ele>1105.65</ele>
        <time>2024-09-11T07:42:52Z</time>
      </trkpt>
      <trkpt lat="44.8117" lon="4.02311">
        <ele>1105.65</ele>
        <time>2024-09-11T07:43:01Z</time>
      </trkpt>
      <trkpt lat="44.8117" lon="4.0232">
        <ele>1106.13</ele>
        <time>2024-09-11T07:43:09Z</time>
      </trkpt>
      <trkpt lat="44.81169" lon="4.02329">
        <ele>1106.13</ele>
        <time>2024-09-11T07:43:18Z</time>
      </trkpt>
      <trkpt lat="44.8117" lon="4.02338">
        <ele>1106.13</ele>
        <time>2024-09-11T07:43:25Z</time>
      </trkpt>
      <trkpt lat="44.81169" lon="4.02347">
        <ele>1106.61</ele>
        <time>2024-09-11T07:43:32Z</time>
      </trkpt>
      <trkpt lat="44.81169" lon="4.02349">
        <ele>1106.61</ele>
        <time>2024-09-11T07:43:34Z</time>
      </trkpt>
      <trkpt lat="44.81169" lon="4.02358">
        <ele>1106.61</ele>
        <time>2024-09-11T07:43:42Z</time>
      </trkpt>
      <trkpt lat="44.8117" lon="4.02369">
        <ele>1107.58</ele>
        <time>2024-09-11T07:43:51Z</time>
      </trkpt>
      <trkpt lat="44.81172" lon="4.02379">
        <ele>1108.06</ele>
        <time>2024-09-11T07:43:59Z</time>
      </trkpt>
      <trkpt lat="44.81172" lon="4.02391">
        <ele>1108.54</ele>
        <time>2024-09-11T07:44:08Z</time>
      </trkpt>
      <trkpt lat="44.81171" lon="4.02403">
        <ele>1109.5</ele>
        <time>2024-09-11T07:44:17Z</time>
      </trkpt>
      <trkpt lat="44.81172" lon="4.02412">
        <ele>1110.46</ele>
        <time>2024-09-11T07:44:27Z</time>
      </trkpt>
      <trkpt lat="44.81173" lon="4.02423">
        <ele>1110.94</ele>
        <time>2024-09-11T07:44:36Z</time>
      </trkpt>
      <trkpt lat="44.81174" lon="4.02432">
        <ele>1111.9</ele>
        <time>2024-09-11T07:44:44Z</time>
      </trkpt>
      <trkpt lat="44.81173" lon="4.02441">
        <ele>1112.86</ele>
        <time>2024-09-11T07:44:54Z</time>
      </trkpt>
      <trkpt lat="44.81174" lon="4.02449">
        <ele>1113.82</ele>
        <time>2024-09-11T07:45:02Z</time>
      </trkpt>
      <trkpt lat="44.81173" lon="4.02456">
        <ele>1114.79</ele>
        <time>2024-09-11T07:45:09Z</time>
      </trkpt>
      <trkpt lat="44.81173" lon="4.02465">
        <ele>1115.75</ele>
        <time>2024-09-11T07:45:17Z</time>
      </trkpt>
      <trkpt lat="44.81171" lon="4.02474">
        <ele>1116.71</ele>
        <time>2024-09-11T07:45:26Z</time>
      </trkpt>
      <trkpt lat="44.81172" lon="4.02482">
        <ele>1117.67</ele>
        <time>2024-09-11T07:45:35Z</time>
      </trkpt>
      <trkpt lat="44.81172" lon="4.0249">
        <ele>1119.11</ele>
        <time>2024-09-11T07:45:43Z</time>
      </trkpt>
      <trkpt lat="44.81173" lon="4.02497">
        <ele>1119.59</ele>
        <time>2024-09-11T07:45:49Z</time>
      </trkpt>
      <trkpt lat="44.81171" lon="4.02504">
        <ele>1120.07</ele>
        <time>2024-09-11T07:45:56Z</time>
      </trkpt>
      <trkpt lat="44.81169" lon="4.02511">
        <ele>1121.03</ele>
        <time>2024-09-11T07:46:04Z</time>
      </trkpt>
      <trkpt lat="44.81167" lon="4.02516">
        <ele>1121.52</ele>
        <time>2024-09-11T07:46:10Z</time>
      </trkpt>
      <trkpt lat="44.81165" lon="4.02525">
        <ele>1122</ele>
        <time>2024-09-11T07:46:17Z</time>
      </trkpt>
      <trkpt lat="44.81163" lon="4.02533">
        <ele>1122.48</ele>
        <time>2024-09-11T07:46:24Z</time>
      </trkpt>
      <trkpt lat="44.81163" lon="4.02536">
        <ele>1122.48</ele>
        <time>2024-09-11T07:46:27Z</time>
      </trkpt>
      <trkpt lat="44.8116" lon="4.02545">
        <ele>1122.96</ele>
        <time>2024-09-11T07:46:35Z</time>
      </trkpt>
      <trkpt lat="44.81157" lon="4.02554">
        <ele>1123.44</ele>
        <time>2024-09-11T07:46:43Z</time>
      </trkpt>
      <trkpt lat="44.81155" lon="4.0256">
        <ele>1123.44</ele>
        <time>2024-09-11T07:46:50Z</time>
      </trkpt>
      <trkpt lat="44.81151" lon="4.02565">
        <ele>1123.92</ele>
        <time>2024-09-11T07:46:58Z</time>
      </trkpt>
      <trkpt lat="44.81148" lon="4.02574">
        <ele>1123.92</ele>
        <time>2024-09-11T07:47:06Z</time>
      </trkpt>
      <trkpt lat="44.81144" lon="4.02579">
        <ele>1123.92</ele>
        <time>2024-09-11T07:47:13Z</time>
      </trkpt>
      <trkpt lat="44.81139" lon="4.02587">
        <ele>1124.88</ele>
        <time>2024-09-11T07:47:22Z</time>
      </trkpt>
      <trkpt lat="44.81135" lon="4.02593">
        <ele>1124.4</ele>
        <time>2024-09-11T07:47:29Z</time>
      </trkpt>
      <trkpt lat="44.81132" lon="4.02599">
        <ele>1125.36</ele>
        <time>2024-09-11T07:47:36Z</time>
      </trkpt>
      <trkpt lat="44.8113" lon="4.02604">
        <ele>1125.36</ele>
        <time>2024-09-11T07:47:41Z</time>
      </trkpt>
      <trkpt lat="44.81125" lon="4.02611">
        <ele>1125.36</ele>
        <time>2024-09-11T07:47:49Z</time>
      </trkpt>
      <trkpt lat="44.81122" lon="4.02616">
        <ele>1125.36</ele>
        <time>2024-09-11T07:47:53Z</time>
      </trkpt>
      <trkpt lat="44.81114" lon="4.02632">
        <ele>1125.36</ele>
        <time>2024-09-11T07:48:02Z</time>
      </trkpt>
      <trkpt lat="44.8111" lon="4.02641">
        <ele>1125.84</ele>
        <time>2024-09-11T07:48:11Z</time>
      </trkpt>
      <trkpt lat="44.81106" lon="4.02646">
        <ele>1125.84</ele>
        <time>2024-09-11T07:48:18Z</time>
      </trkpt>
      <trkpt lat="44.81101" lon="4.02651">
        <ele>1125.84</ele>
        <time>2024-09-11T07:48:26Z</time>
      </trkpt>
      <trkpt lat="44.81099" lon="4.02656">
        <ele>1125.84</ele>
        <time>2024-09-11T07:48:31Z</time>
      </trkpt>
      <trkpt lat="44.81095" lon="4.02663">
        <ele>1126.32</ele>
        <time>2024-09-11T07:48:38Z</time>
      </trkpt>
      <trkpt lat="44.8109" lon="4.02676">
        <ele>1126.32</ele>
        <time>2024-09-11T07:48:47Z</time>
      </trkpt>
      <trkpt lat="44.81087" lon="4.02688">
        <ele>1126.8</ele>
        <time>2024-09-11T07:48:55Z</time>
      </trkpt>
      <trkpt lat="44.81084" lon="4.02696">
        <ele>1126.8</ele>
        <time>2024-09-11T07:49:01Z</time>
      </trkpt>
      <trkpt lat="44.81083" lon="4.02699">
        <ele>1126.8</ele>
        <time>2024-09-11T07:49:03Z</time>
      </trkpt>
      <trkpt lat="44.8108" lon="4.02704">
        <ele>1126.8</ele>
        <time>2024-09-11T07:49:08Z</time>
      </trkpt>
      <trkpt lat="44.81079" lon="4.02707">
        <ele>1126.8</ele>
        <time>2024-09-11T07:49:10Z</time>
      </trkpt>
      <trkpt lat="44.81075" lon="4.02713">
        <ele>1127.28</ele>
        <time>2024-09-11T07:49:17Z</time>
      </trkpt>
      <trkpt lat="44.81073" lon="4.02725">
        <ele>1127.28</ele>
        <time>2024-09-11T07:49:25Z</time>
      </trkpt>
      <trkpt lat="44.81073" lon="4.02727">
        <ele>1127.76</ele>
        <time>2024-09-11T07:49:27Z</time>
      </trkpt>
      <trkpt lat="44.81068" lon="4.02743">
        <ele>1127.76</ele>
        <time>2024-09-11T07:49:37Z</time>
      </trkpt>
      <trkpt lat="44.81067" lon="4.02752">
        <ele>1127.76</ele>
        <time>2024-09-11T07:49:44Z</time>
      </trkpt>
      <trkpt lat="44.81064" lon="4.02767">
        <ele>1128.24</ele>
        <time>2024-09-11T07:49:54Z</time>
      </trkpt>
      <trkpt lat="44.8106" lon="4.02778">
        <ele>1128.24</ele>
        <time>2024-09-11T07:50:02Z</time>
      </trkpt>
      <trkpt lat="44.81057" lon="4.02786">
        <ele>1128.73</ele>
        <time>2024-09-11T07:50:10Z</time>
      </trkpt>
      <trkpt lat="44.81055" lon="4.02789">
        <ele>1128.73</ele>
        <time>2024-09-11T07:50:13Z</time>
      </trkpt>
      <trkpt lat="44.81054" lon="4.02792">
        <ele>1128.73</ele>
        <time>2024-09-11T07:50:15Z</time>
      </trkpt>
      <trkpt lat="44.8105" lon="4.02807">
        <ele>1129.21</ele>
        <time>2024-09-11T07:50:25Z</time>
      </trkpt>
      <trkpt lat="44.81046" lon="4.02817">
        <ele>1130.17</ele>
        <time>2024-09-11T07:50:32Z</time>
      </trkpt>
      <trkpt lat="44.81044" lon="4.02824">
        <ele>1130.65</ele>
        <time>2024-09-11T07:50:39Z</time>
      </trkpt>
      <trkpt lat="44.81044" lon="4.02825">
        <ele>1130.65</ele>
        <time>2024-09-11T07:50:40Z</time>
      </trkpt>
      <trkpt lat="44.81037" lon="4.02836">
        <ele>1130.65</ele>
        <time>2024-09-11T07:50:49Z</time>
      </trkpt>
      <trkpt lat="44.81036" lon="4.02837">
        <ele>1130.65</ele>
        <time>2024-09-11T07:50:50Z</time>
      </trkpt>
      <trkpt lat="44.81031" lon="4.02844">
        <ele>1131.13</ele>
        <time>2024-09-11T07:50:57Z</time>
      </trkpt>
      <trkpt lat="44.81027" lon="4.02853">
        <ele>1131.13</ele>
        <time>2024-09-11T07:51:05Z</time>
      </trkpt>
      <trkpt lat="44.81019" lon="4.02862">
        <ele>1131.13</ele>
        <time>2024-09-11T07:51:13Z</time>
      </trkpt>
      <trkpt lat="44.81013" lon="4.0287">
        <ele>1131.61</ele>
        <time>2024-09-11T07:51:22Z</time>
      </trkpt>
      <trkpt lat="44.81011" lon="4.02874">
        <ele>1132.09</ele>
        <time>2024-09-11T07:51:24Z</time>
      </trkpt>
      <trkpt lat="44.81004" lon="4.02881">
        <ele>1132.09</ele>
        <time>2024-09-11T07:51:32Z</time>
      </trkpt>
      <trkpt lat="44.81003" lon="4.02884">
        <ele>1132.09</ele>
        <time>2024-09-11T07:51:34Z</time>
      </trkpt>
      <trkpt lat="44.81" lon="4.02894">
        <ele>1132.57</ele>
        <time>2024-09-11T07:51:44Z</time>
      </trkpt>
      <trkpt lat="44.80999" lon="4.02905">
        <ele>1132.57</ele>
        <time>2024-09-11T07:51:54Z</time>
      </trkpt>
      <trkpt lat="44.80998" lon="4.02913">
        <ele>1133.53</ele>
        <time>2024-09-11T07:52:04Z</time>
      </trkpt>
      <trkpt lat="44.80997" lon="4.02922">
        <ele>1134.01</ele>
        <time>2024-09-11T07:52:14Z</time>
      </trkpt>
      <trkpt lat="44.80995" lon="4.02937">
        <ele>1134.49</ele>
        <time>2024-09-11T07:52:24Z</time>
      </trkpt>
      <trkpt lat="44.80991" lon="4.02946">
        <ele>1134.97</ele>
        <time>2024-09-11T07:52:32Z</time>
      </trkpt>
      <trkpt lat="44.80984" lon="4.02958">
        <ele>1135.45</ele>
        <time>2024-09-11T07:52:43Z</time>
      </trkpt>
      <trkpt lat="44.80982" lon="4.02968">
        <ele>1135.94</ele>
        <time>2024-09-11T07:52:53Z</time>
      </trkpt>
      <trkpt lat="44.80981" lon="4.02975">
        <ele>1136.42</ele>
        <time>2024-09-11T07:53:02Z</time>
      </trkpt>
      <trkpt lat="44.80976" lon="4.02991">
        <ele>1137.38</ele>
        <time>2024-09-11T07:53:13Z</time>
      </trkpt>
      <trkpt lat="44.8097" lon="4.03001">
        <ele>1138.34</ele>
        <time>2024-09-11T07:53:23Z</time>
      </trkpt>
      <trkpt lat="44.80967" lon="4.03012">
        <ele>1138.82</ele>
        <time>2024-09-11T07:53:34Z</time>
      </trkpt>
      <trkpt lat="44.80961" lon="4.03023">
        <ele>1139.3</ele>
        <time>2024-09-11T07:53:44Z</time>
      </trkpt>
      <trkpt lat="44.80953" lon="4.03035">
        <ele>1139.78</ele>
        <time>2024-09-11T07:53:54Z</time>
      </trkpt>
      <trkpt lat="44.80949" lon="4.03045">
        <ele>1140.74</ele>
        <time>2024-09-11T07:54:04Z</time>
      </trkpt>
      <trkpt lat="44.80944" lon="4.03056">
        <ele>1141.22</ele>
        <time>2024-09-11T07:54:14Z</time>
      </trkpt>
      <trkpt lat="44.80941" lon="4.03063">
        <ele>1141.7</ele>
        <time>2024-09-11T07:54:23Z</time>
      </trkpt>
      <trkpt lat="44.8094" lon="4.03072">
        <ele>1142.18</ele>
        <time>2024-09-11T07:54:32Z</time>
      </trkpt>
      <trkpt lat="44.80933" lon="4.03084">
        <ele>1143.14</ele>
        <time>2024-09-11T07:54:43Z</time>
      </trkpt>
      <trkpt lat="44.80925" lon="4.03097">
        <ele>1144.59</ele>
        <time>2024-09-11T07:54:54Z</time>
      </trkpt>
      <trkpt lat="44.80923" lon="4.03102">
        <ele>1145.07</ele>
        <time>2024-09-11T07:55:04Z</time>
      </trkpt>
      <trkpt lat="44.8092" lon="4.0311">
        <ele>1146.03</ele>
        <time>2024-09-11T07:55:14Z</time>
      </trkpt>
      <trkpt lat="44.80914" lon="4.03125">
        <ele>1147.47</ele>
        <time>2024-09-11T07:55:24Z</time>
      </trkpt>
      <trkpt lat="44.80911" lon="4.03131">
        <ele>1147.47</ele>
        <time>2024-09-11T07:55:28Z</time>
      </trkpt>
      <trkpt lat="44.80904" lon="4.03141">
        <ele>1148.43</ele>
        <time>2024-09-11T07:55:37Z</time>
      </trkpt>
      <trkpt lat="44.80897" lon="4.03158">
        <ele>1148.91</ele>
        <time>2024-09-11T07:55:49Z</time>
      </trkpt>
      <trkpt lat="44.80893" lon="4.03171">
        <ele>1149.39</ele>
        <time>2024-09-11T07:55:59Z</time>
      </trkpt>
      <trkpt lat="44.80889" lon="4.03183">
        <ele>1149.87</ele>
        <time>2024-09-11T07:56:09Z</time>
      </trkpt>
      <trkpt lat="44.80887" lon="4.03192">
        <ele>1149.87</ele>
        <time>2024-09-11T07:56:18Z</time>
      </trkpt>
      <trkpt lat="44.80886" lon="4.03198">
        <ele>1149.39</ele>
        <time>2024-09-11T07:56:22Z</time>
      </trkpt>
      <trkpt lat="44.80885" lon="4.0321">
        <ele>1148.91</ele>
        <time>2024-09-11T07:56:31Z</time>
      </trkpt>
      <trkpt lat="44.80884" lon="4.03217">
        <ele>1148.91</ele>
        <time>2024-09-11T07:56:37Z</time>
      </trkpt>
      <trkpt lat="44.80884" lon="4.03224">
        <ele>1148.43</ele>
        <time>2024-09-11T07:56:45Z</time>
      </trkpt>
      <trkpt lat="44.80886" lon="4.03226">
        <ele>1148.43</ele>
        <time>2024-09-11T07:56:54Z</time>
      </trkpt>
      <trkpt lat="44.80886" lon="4.03228">
        <ele>1148.43</ele>
        <time>2024-09-11T07:57:09Z</time>
      </trkpt>
      <trkpt lat="44.80886" lon="4.03231">
        <ele>1147.95</ele>
        <time>2024-09-11T07:57:19Z</time>
      </trkpt>
      <trkpt lat="44.80885" lon="4.03235">
        <ele>1147.47</ele>
        <time>2024-09-11T07:57:26Z</time>
      </trkpt>
      <trkpt lat="44.80884" lon="4.03243">
        <ele>1146.51</ele>
        <time>2024-09-11T07:57:34Z</time>
      </trkpt>
      <trkpt lat="44.80882" lon="4.03249">
        <ele>1145.55</ele>
        <time>2024-09-11T07:57:40Z</time>
      </trkpt>
      <trkpt lat="44.8088" lon="4.03261">
        <ele>1145.07</ele>
        <time>2024-09-11T07:57:48Z</time>
      </trkpt>
      <trkpt lat="44.80878" lon="4.03276">
        <ele>1144.11</ele>
        <time>2024-09-11T07:57:55Z</time>
      </trkpt>
      <trkpt lat="44.80877" lon="4.03284">
        <ele>1144.11</ele>
        <time>2024-09-11T07:58:04Z</time>
      </trkpt>
      <trkpt lat="44.80874" lon="4.03291">
        <ele>1143.63</ele>
        <time>2024-09-11T07:58:12Z</time>
      </trkpt>
      <trkpt lat="44.80874" lon="4.03293">
        <ele>1143.14</ele>
        <time>2024-09-11T07:58:20Z</time>
      </trkpt>
      <trkpt lat="44.80873" lon="4.03295">
        <ele>1143.14</ele>
        <time>2024-09-11T07:58:33Z</time>
      </trkpt>
      <trkpt lat="44.80874" lon="4.03295">
        <ele>1143.14</ele>
        <time>2024-09-11T07:58:43Z</time>
      </trkpt>
      <trkpt lat="44.80874" lon="4.03295">
        <ele>1143.14</ele>
        <time>2024-09-11T07:59:00Z</time>
      </trkpt>
      <trkpt lat="44.80873" lon="4.03298">
        <ele>1142.66</ele>
        <time>2024-09-11T07:59:09Z</time>
      </trkpt>
      <trkpt lat="44.80872" lon="4.03298">
        <ele>1142.66</ele>
        <time>2024-09-11T07:59:18Z</time>
      </trkpt>
      <trkpt lat="44.80872" lon="4.03299">
        <ele>1142.66</ele>
        <time>2024-09-11T07:59:31Z</time>
      </trkpt>
      <trkpt lat="44.80872" lon="4.033">
        <ele>1142.18</ele>
        <time>2024-09-11T07:59:38Z</time>
      </trkpt>
      <trkpt lat="44.80872" lon="4.03301">
        <ele>1142.18</ele>
        <time>2024-09-11T07:59:51Z</time>
      </trkpt>
      <trkpt lat="44.80872" lon="4.03301">
        <ele>1142.18</ele>
        <time>2024-09-11T07:59:59Z</time>
      </trkpt>
      <trkpt lat="44.80871" lon="4.03302">
        <ele>1143.63</ele>
        <time>2024-09-11T08:00:11Z</time>
      </trkpt>
      <trkpt lat="44.80871" lon="4.03303">
        <ele>1142.66</ele>
        <time>2024-09-11T08:00:25Z</time>
      </trkpt>
      <trkpt lat="44.80871" lon="4.03303">
        <ele>1142.18</ele>
        <time>2024-09-11T08:00:34Z</time>
      </trkpt>
      <trkpt lat="44.80871" lon="4.03304">
        <ele>1142.18</ele>
        <time>2024-09-11T08:00:45Z</time>
      </trkpt>
      <trkpt lat="44.80871" lon="4.03304">
        <ele>1142.18</ele>
        <time>2024-09-11T08:01:01Z</time>
      </trkpt>
      <trkpt lat="44.80871" lon="4.03305">
        <ele>1142.18</ele>
        <time>2024-09-11T08:01:18Z</time>
      </trkpt>
      <trkpt lat="44.8087" lon="4.03305">
        <ele>1142.18</ele>
        <time>2024-09-11T08:01:29Z</time>
      </trkpt>
      <trkpt lat="44.8087" lon="4.03305">
        <ele>1142.18</ele>
        <time>2024-09-11T08:01:42Z</time>
      </trkpt>
      <trkpt lat="44.8087" lon="4.03306">
        <ele>1141.7</ele>
        <time>2024-09-11T08:01:55Z</time>
      </trkpt>
      <trkpt lat="44.8087" lon="4.03306">
        <ele>1141.7</ele>
        <time>2024-09-11T08:02:09Z</time>
      </trkpt>
      <trkpt lat="44.8087" lon="4.03306">
        <ele>1142.18</ele>
        <time>2024-09-11T08:02:18Z</time>
      </trkpt>
      <trkpt lat="44.8087" lon="4.03306">
        <ele>1142.18</ele>
        <time>2024-09-11T08:02:22Z</time>
      </trkpt>
      <trkpt lat="44.80866" lon="4.03308">
        <ele>1141.7</ele>
        <time>2024-09-11T08:02:30Z</time>
      </trkpt>
      <trkpt lat="44.80863" lon="4.03313">
        <ele>1141.7</ele>
        <time>2024-09-11T08:02:39Z</time>
      </trkpt>
      <trkpt lat="44.80863" lon="4.03318">
        <ele>1141.22</ele>
        <time>2024-09-11T08:02:47Z</time>
      </trkpt>
      <trkpt lat="44.80861" lon="4.03322">
        <ele>1140.74</ele>
        <time>2024-09-11T08:02:56Z</time>
      </trkpt>
      <trkpt lat="44.80859" lon="4.03325">
        <ele>1140.26</ele>
        <time>2024-09-11T08:03:03Z</time>
      </trkpt>
      <trkpt lat="44.80858" lon="4.03325">
        <ele>1140.26</ele>
        <time>2024-09-11T08:03:16Z</time>
      </trkpt>
      <trkpt lat="44.80852" lon="4.03331">
        <ele>1140.26</ele>
        <time>2024-09-11T08:03:24Z</time>
      </trkpt>
      <trkpt lat="44.80848" lon="4.03339">
        <ele>1138.82</ele>
        <time>2024-09-11T08:03:34Z</time>
      </trkpt>
      <trkpt lat="44.80844" lon="4.03344">
        <ele>1138.34</ele>
        <time>2024-09-11T08:03:42Z</time>
      </trkpt>
      <trkpt lat="44.80839" lon="4.03351">
        <ele>1137.38</ele>
        <time>2024-09-11T08:03:51Z</time>
      </trkpt>
      <trkpt lat="44.80834" lon="4.03358">
        <ele>1136.9</ele>
        <time>2024-09-11T08:03:59Z</time>
      </trkpt>
      <trkpt lat="44.8083" lon="4.03364">
        <ele>1136.42</ele>
        <time>2024-09-11T08:04:05Z</time>
      </trkpt>
      <trkpt lat="44.80822" lon="4.03372">
        <ele>1135.94</ele>
        <time>2024-09-11T08:04:14Z</time>
      </trkpt>
      <trkpt lat="44.8082" lon="4.03373">
        <ele>1135.94</ele>
        <time>2024-09-11T08:04:16Z</time>
      </trkpt>
      <trkpt lat="44.80818" lon="4.03375">
        <ele>1135.45</ele>
        <time>2024-09-11T08:04:18Z</time>
      </trkpt>
      <trkpt lat="44.8081" lon="4.03382">
        <ele>1134.97</ele>
        <time>2024-09-11T08:04:27Z</time>
      </trkpt>
      <trkpt lat="44.8081" lon="4.03385">
        <ele>1134.97</ele>
        <time>2024-09-11T08:04:30Z</time>
      </trkpt>
      <trkpt lat="44.80809" lon="4.03387">
        <ele>1134.97</ele>
        <time>2024-09-11T08:04:32Z</time>
      </trkpt>
      <trkpt lat="44.80802" lon="4.03393">
        <ele>1134.49</ele>
        <time>2024-09-11T08:04:41Z</time>
      </trkpt>
      <trkpt lat="44.808" lon="4.03396">
        <ele>1134.01</ele>
        <time>2024-09-11T08:04:44Z</time>
      </trkpt>
      <trkpt lat="44.8079" lon="4.03406">
        <ele>1133.53</ele>
        <time>2024-09-11T08:04:55Z</time>
      </trkpt>
      <trkpt lat="44.80783" lon="4.03413">
        <ele>1133.05</ele>
        <time>2024-09-11T08:05:04Z</time>
      </trkpt>
      <trkpt lat="44.80779" lon="4.03414">
        <ele>1132.57</ele>
        <time>2024-09-11T08:05:08Z</time>
      </trkpt>
      <trkpt lat="44.8077" lon="4.0342">
        <ele>1131.61</ele>
        <time>2024-09-11T08:05:18Z</time>
      </trkpt>
      <trkpt lat="44.80763" lon="4.03425">
        <ele>1131.61</ele>
        <time>2024-09-11T08:05:26Z</time>
      </trkpt>
      <trkpt lat="44.80761" lon="4.03427">
        <ele>1131.13</ele>
        <time>2024-09-11T08:05:29Z</time>
      </trkpt>
      <trkpt lat="44.80759" lon="4.03428">
        <ele>1131.13</ele>
        <time>2024-09-11T08:05:31Z</time>
      </trkpt>
      <trkpt lat="44.80751" lon="4.03434">
        <ele>1131.13</ele>
        <time>2024-09-11T08:05:40Z</time>
      </trkpt>
      <trkpt lat="44.80744" lon="4.03436">
        <ele>1130.65</ele>
        <time>2024-09-11T08:05:47Z</time>
      </trkpt>
      <trkpt lat="44.8074" lon="4.03439">
        <ele>1130.65</ele>
        <time>2024-09-11T08:05:54Z</time>
      </trkpt>
      <trkpt lat="44.80738" lon="4.03439">
        <ele>1130.17</ele>
        <time>2024-09-11T08:05:56Z</time>
      </trkpt>
      <trkpt lat="44.80734" lon="4.03445">
        <ele>1130.17</ele>
        <time>2024-09-11T08:06:04Z</time>
      </trkpt>
      <trkpt lat="44.80734" lon="4.03446">
        <ele>1130.17</ele>
        <time>2024-09-11T08:06:10Z</time>
      </trkpt>
      <trkpt lat="44.80731" lon="4.03447">
        <ele>1130.17</ele>
        <time>2024-09-11T08:06:19Z</time>
      </trkpt>
      <trkpt lat="44.80731" lon="4.03447">
        <ele>1130.17</ele>
        <time>2024-09-11T08:06:26Z</time>
      </trkpt>
      <trkpt lat="44.80731" lon="4.03447">
        <ele>1130.17</ele>
        <time>2024-09-11T08:06:39Z</time>
      </trkpt>
      <trkpt lat="44.80731" lon="4.03448">
        <ele>1130.17</ele>
        <time>2024-09-11T08:06:52Z</time>
      </trkpt>
      <trkpt lat="44.8073" lon="4.03448">
        <ele>1130.17</ele>
        <time>2024-09-11T08:07:02Z</time>
      </trkpt>
      <trkpt lat="44.80728" lon="4.03448">
        <ele>1130.17</ele>
        <time>2024-09-11T08:07:04Z</time>
      </trkpt>
      <trkpt lat="44.80721" lon="4.03451">
        <ele>1129.69</ele>
        <time>2024-09-11T08:07:09Z</time>
      </trkpt>
      <trkpt lat="44.80718" lon="4.03454">
        <ele>1129.69</ele>
        <time>2024-09-11T08:07:12Z</time>
      </trkpt>
      <trkpt lat="44.8071" lon="4.03463">
        <ele>1128.24</ele>
        <time>2024-09-11T08:07:21Z</time>
      </trkpt>
      <trkpt lat="44.80707" lon="4.03468">
        <ele>1128.24</ele>
        <time>2024-09-11T08:07:25Z</time>
      </trkpt>
      <trkpt lat="44.80701" lon="4.03477">
        <ele>1126.8</ele>
        <time>2024-09-11T08:07:33Z</time>
      </trkpt>
      <trkpt lat="44.80696" lon="4.03488">
        <ele>1125.36</ele>
        <time>2024-09-11T08:07:43Z</time>
      </trkpt>
      <trkpt lat="44.80691" lon="4.03497">
        <ele>1124.88</ele>
        <time>2024-09-11T08:07:51Z</time>
      </trkpt>
      <trkpt lat="44.80685" lon="4.03506">
        <ele>1123.92</ele>
        <time>2024-09-11T08:07:59Z</time>
      </trkpt>
      <trkpt lat="44.80682" lon="4.03508">
        <ele>1123.44</ele>
        <time>2024-09-11T08:08:02Z</time>
      </trkpt>
      <trkpt lat="44.80675" lon="4.03516">
        <ele>1122.96</ele>
        <time>2024-09-11T08:08:10Z</time>
      </trkpt>
      <trkpt lat="44.80669" lon="4.03523">
        <ele>1122.48</ele>
        <time>2024-09-11T08:08:17Z</time>
      </trkpt>
      <trkpt lat="44.80664" lon="4.03531">
        <ele>1122</ele>
        <time>2024-09-11T08:08:25Z</time>
      </trkpt>
      <trkpt lat="44.8066" lon="4.0354">
        <ele>1121.52</ele>
        <time>2024-09-11T08:08:32Z</time>
      </trkpt>
      <trkpt lat="44.80655" lon="4.0355">
        <ele>1121.03</ele>
        <time>2024-09-11T08:08:40Z</time>
      </trkpt>
      <trkpt lat="44.80654" lon="4.03552">
        <ele>1120.55</ele>
        <time>2024-09-11T08:08:42Z</time>
      </trkpt>
      <trkpt lat="44.8065" lon="4.03565">
        <ele>1120.07</ele>
        <time>2024-09-11T08:08:51Z</time>
      </trkpt>
      <trkpt lat="44.80648" lon="4.03576">
        <ele>1119.59</ele>
        <time>2024-09-11T08:08:59Z</time>
      </trkpt>
      <trkpt lat="44.80646" lon="4.03589">
        <ele>1119.11</ele>
        <time>2024-09-11T08:09:08Z</time>
      </trkpt>
      <trkpt lat="44.80646" lon="4.03591">
        <ele>1119.11</ele>
        <time>2024-09-11T08:09:09Z</time>
      </trkpt>
      <trkpt lat="44.80646" lon="4.03602">
        <ele>1119.11</ele>
        <time>2024-09-11T08:09:16Z</time>
      </trkpt>
      <trkpt lat="44.80645" lon="4.03614">
        <ele>1118.63</ele>
        <time>2024-09-11T08:09:24Z</time>
      </trkpt>
      <trkpt lat="44.80646" lon="4.03628">
        <ele>1118.63</ele>
        <time>2024-09-11T08:09:32Z</time>
      </trkpt>
      <trkpt lat="44.80647" lon="4.03635">
        <ele>1118.15</ele>
        <time>2024-09-11T08:09:37Z</time>
      </trkpt>
      <trkpt lat="44.80649" lon="4.03649">
        <ele>1118.15</ele>
        <time>2024-09-11T08:09:46Z</time>
      </trkpt>
      <trkpt lat="44.80652" lon="4.03663">
        <ele>1118.15</ele>
        <time>2024-09-11T08:09:54Z</time>
      </trkpt>
      <trkpt lat="44.80654" lon="4.03673">
        <ele>1117.67</ele>
        <time>2024-09-11T08:10:01Z</time>
      </trkpt>
      <trkpt lat="44.80657" lon="4.03685">
        <ele>1117.67</ele>
        <time>2024-09-11T08:10:09Z</time>
      </trkpt>
      <trkpt lat="44.80659" lon="4.03697">
        <ele>1117.19</ele>
        <time>2024-09-11T08:10:17Z</time>
      </trkpt>
      <trkpt lat="44.8066" lon="4.03709">
        <ele>1117.19</ele>
        <time>2024-09-11T08:10:24Z</time>
      </trkpt>
      <trkpt lat="44.80661" lon="4.0372">
        <ele>1117.19</ele>
        <time>2024-09-11T08:10:32Z</time>
      </trkpt>
      <trkpt lat="44.80662" lon="4.03724">
        <ele>1117.19</ele>
        <time>2024-09-11T08:10:35Z</time>
      </trkpt>
      <trkpt lat="44.80664" lon="4.03736">
        <ele>1117.19</ele>
        <time>2024-09-11T08:10:43Z</time>
      </trkpt>
      <trkpt lat="44.80666" lon="4.03749">
        <ele>1117.19</ele>
        <time>2024-09-11T08:10:51Z</time>
      </trkpt>
      <trkpt lat="44.80669" lon="4.03761">
        <ele>1116.71</ele>
        <time>2024-09-11T08:10:58Z</time>
      </trkpt>
      <trkpt lat="44.80671" lon="4.03774">
        <ele>1116.23</ele>
        <time>2024-09-11T08:11:06Z</time>
      </trkpt>
      <trkpt lat="44.80676" lon="4.0379">
        <ele>1116.71</ele>
        <time>2024-09-11T08:11:17Z</time>
      </trkpt>
      <trkpt lat="44.80682" lon="4.03806">
        <ele>1116.71</ele>
        <time>2024-09-11T08:11:27Z</time>
      </trkpt>
      <trkpt lat="44.80686" lon="4.03816">
        <ele>1116.71</ele>
        <time>2024-09-11T08:11:33Z</time>
      </trkpt>
      <trkpt lat="44.8069" lon="4.03825">
        <ele>1116.71</ele>
        <time>2024-09-11T08:11:39Z</time>
      </trkpt>
      <trkpt lat="44.80694" lon="4.03836">
        <ele>1116.71</ele>
        <time>2024-09-11T08:11:47Z</time>
      </trkpt>
      <trkpt lat="44.80699" lon="4.03841">
        <ele>1115.75</ele>
        <time>2024-09-11T08:11:52Z</time>
      </trkpt>
      <trkpt lat="44.80705" lon="4.03845">
        <ele>1115.75</ele>
        <time>2024-09-11T08:12:00Z</time>
      </trkpt>
      <trkpt lat="44.80709" lon="4.03848">
        <ele>1115.75</ele>
        <time>2024-09-11T08:12:05Z</time>
      </trkpt>
      <trkpt lat="44.80715" lon="4.03856">
        <ele>1115.75</ele>
        <time>2024-09-11T08:12:13Z</time>
      </trkpt>
      <trkpt lat="44.8072" lon="4.03863">
        <ele>1116.23</ele>
        <time>2024-09-11T08:12:20Z</time>
      </trkpt>
      <trkpt lat="44.80725" lon="4.03869">
        <ele>1116.23</ele>
        <time>2024-09-11T08:12:27Z</time>
      </trkpt>
      <trkpt lat="44.80731" lon="4.03875">
        <ele>1115.75</ele>
        <time>2024-09-11T08:12:35Z</time>
      </trkpt>
      <trkpt lat="44.80734" lon="4.03879">
        <ele>1116.23</ele>
        <time>2024-09-11T08:12:39Z</time>
      </trkpt>
      <trkpt lat="44.80742" lon="4.0389">
        <ele>1116.23</ele>
        <time>2024-09-11T08:12:50Z</time>
      </trkpt>
      <trkpt lat="44.80744" lon="4.03896">
        <ele>1116.71</ele>
        <time>2024-09-11T08:12:56Z</time>
      </trkpt>
      <trkpt lat="44.80748" lon="4.03905">
        <ele>1116.23</ele>
        <time>2024-09-11T08:13:06Z</time>
      </trkpt>
      <trkpt lat="44.80751" lon="4.03913">
        <ele>1115.75</ele>
        <time>2024-09-11T08:13:14Z</time>
      </trkpt>
      <trkpt lat="44.80753" lon="4.03919">
        <ele>1114.79</ele>
        <time>2024-09-11T08:13:24Z</time>
      </trkpt>
      <trkpt lat="44.80755" lon="4.03927">
        <ele>1113.82</ele>
        <time>2024-09-11T08:13:32Z</time>
      </trkpt>
      <trkpt lat="44.8076" lon="4.03935">
        <ele>1113.34</ele>
        <time>2024-09-11T08:13:41Z</time>
      </trkpt>
      <trkpt lat="44.80767" lon="4.03949">
        <ele>1112.38</ele>
        <time>2024-09-11T08:13:50Z</time>
      </trkpt>
      <trkpt lat="44.80779" lon="4.03969">
        <ele>1111.42</ele>
        <time>2024-09-11T08:13:59Z</time>
      </trkpt>
      <trkpt lat="44.80783" lon="4.0398">
        <ele>1111.42</ele>
        <time>2024-09-11T08:14:06Z</time>
      </trkpt>
      <trkpt lat="44.80791" lon="4.03996">
        <ele>1110.46</ele>
        <time>2024-09-11T08:14:15Z</time>
      </trkpt>
      <trkpt lat="44.80793" lon="4.04004">
        <ele>1110.46</ele>
        <time>2024-09-11T08:14:20Z</time>
      </trkpt>
      <trkpt lat="44.808" lon="4.04021">
        <ele>1109.98</ele>
        <time>2024-09-11T08:14:31Z</time>
      </trkpt>
      <trkpt lat="44.80806" lon="4.04034">
        <ele>1109.98</ele>
        <time>2024-09-11T08:14:38Z</time>
      </trkpt>
      <trkpt lat="44.8081" lon="4.04044">
        <ele>1109.5</ele>
        <time>2024-09-11T08:14:46Z</time>
      </trkpt>
      <trkpt lat="44.80809" lon="4.04048">
        <ele>1109.5</ele>
        <time>2024-09-11T08:14:57Z</time>
      </trkpt>
      <trkpt lat="44.80809" lon="4.04049">
        <ele>1109.5</ele>
        <time>2024-09-11T08:15:04Z</time>
      </trkpt>
      <trkpt lat="44.80808" lon="4.04055">
        <ele>1109.02</ele>
        <time>2024-09-11T08:15:09Z</time>
      </trkpt>
      <trkpt lat="44.80811" lon="4.04061">
        <ele>1108.54</ele>
        <time>2024-09-11T08:15:13Z</time>
      </trkpt>
      <trkpt lat="44.80811" lon="4.04072">
        <ele>1108.06</ele>
        <time>2024-09-11T08:15:22Z</time>
      </trkpt>
      <trkpt lat="44.80811" lon="4.04074">
        <ele>1107.58</ele>
        <time>2024-09-11T08:15:27Z</time>
      </trkpt>
      <trkpt lat="44.80812" lon="4.04078">
        <ele>1107.58</ele>
        <time>2024-09-11T08:15:29Z</time>
      </trkpt>
      <trkpt lat="44.80818" lon="4.041">
        <ele>1106.61</ele>
        <time>2024-09-11T08:15:39Z</time>
      </trkpt>
      <trkpt lat="44.80819" lon="4.04112">
        <ele>1105.17</ele>
        <time>2024-09-11T08:15:48Z</time>
      </trkpt>
      <trkpt lat="44.8082" lon="4.04125">
        <ele>1104.21</ele>
        <time>2024-09-11T08:15:56Z</time>
      </trkpt>
      <trkpt lat="44.80819" lon="4.04137">
        <ele>1103.25</ele>
        <time>2024-09-11T08:16:03Z</time>
      </trkpt>
      <trkpt lat="44.80817" lon="4.0415">
        <ele>1101.81</ele>
        <time>2024-09-11T08:16:10Z</time>
      </trkpt>
      <trkpt lat="44.80815" lon="4.04154">
        <ele>1101.81</ele>
        <time>2024-09-11T08:16:13Z</time>
      </trkpt>
      <trkpt lat="44.80814" lon="4.04162">
        <ele>1100.37</ele>
        <time>2024-09-11T08:16:18Z</time>
      </trkpt>
      <trkpt lat="44.80814" lon="4.04177">
        <ele>1099.4</ele>
        <time>2024-09-11T08:16:27Z</time>
      </trkpt>
      <trkpt lat="44.80813" lon="4.04189">
        <ele>1098.92</ele>
        <time>2024-09-11T08:16:36Z</time>
      </trkpt>
      <trkpt lat="44.80813" lon="4.04189">
        <ele>1098.44</ele>
        <time>2024-09-11T08:16:38Z</time>
      </trkpt>
      <trkpt lat="44.80812" lon="4.04192">
        <ele>1098.44</ele>
        <time>2024-09-11T08:16:40Z</time>
      </trkpt>
      <trkpt lat="44.8081" lon="4.042">
        <ele>1097.96</ele>
        <time>2024-09-11T08:16:44Z</time>
      </trkpt>
      <trkpt lat="44.80804" lon="4.04206">
        <ele>1097</ele>
        <time>2024-09-11T08:16:52Z</time>
      </trkpt>
      <trkpt lat="44.80798" lon="4.0421">
        <ele>1096.04</ele>
        <time>2024-09-11T08:17:00Z</time>
      </trkpt>
      <trkpt lat="44.80792" lon="4.04211">
        <ele>1095.08</ele>
        <time>2024-09-11T08:17:06Z</time>
      </trkpt>
      <trkpt lat="44.80785" lon="4.04211">
        <ele>1094.12</ele>
        <time>2024-09-11T08:17:13Z</time>
      </trkpt>
      <trkpt lat="44.80781" lon="4.04207">
        <ele>1093.16</ele>
        <time>2024-09-11T08:17:18Z</time>
      </trkpt>
      <trkpt lat="44.80772" lon="4.04198">
        <ele>1093.16</ele>
        <time>2024-09-11T08:17:26Z</time>
      </trkpt>
      <trkpt lat="44.80765" lon="4.04196">
        <ele>1092.68</ele>
        <time>2024-09-11T08:17:33Z</time>
      </trkpt>
      <trkpt lat="44.8076" lon="4.042">
        <ele>1092.2</ele>
        <time>2024-09-11T08:17:39Z</time>
      </trkpt>
      <trkpt lat="44.8076" lon="4.0421">
        <ele>1092.68</ele>
        <time>2024-09-11T08:17:47Z</time>
      </trkpt>
      <trkpt lat="44.80762" lon="4.04219">
        <ele>1091.71</ele>
        <time>2024-09-11T08:17:55Z</time>
      </trkpt>
      <trkpt lat="44.80766" lon="4.0423">
        <ele>1091.71</ele>
        <time>2024-09-11T08:18:04Z</time>
      </trkpt>
      <trkpt lat="44.80767" lon="4.04238">
        <ele>1091.23</ele>
        <time>2024-09-11T08:18:09Z</time>
      </trkpt>
      <trkpt lat="44.80764" lon="4.04257">
        <ele>1090.75</ele>
        <time>2024-09-11T08:18:19Z</time>
      </trkpt>
      <trkpt lat="44.80762" lon="4.04269">
        <ele>1090.27</ele>
        <time>2024-09-11T08:18:27Z</time>
      </trkpt>
      <trkpt lat="44.80761" lon="4.04272">
        <ele>1090.27</ele>
        <time>2024-09-11T08:18:30Z</time>
      </trkpt>
      <trkpt lat="44.80758" lon="4.04283">
        <ele>1089.79</ele>
        <time>2024-09-11T08:18:39Z</time>
      </trkpt>
      <trkpt lat="44.80757" lon="4.04293">
        <ele>1088.83</ele>
        <time>2024-09-11T08:18:47Z</time>
      </trkpt>
      <trkpt lat="44.80754" lon="4.04302">
        <ele>1087.87</ele>
        <time>2024-09-11T08:18:54Z</time>
      </trkpt>
      <trkpt lat="44.80751" lon="4.0431">
        <ele>1086.91</ele>
        <time>2024-09-11T08:19:01Z</time>
      </trkpt>
      <trkpt lat="44.80752" lon="4.04321">
        <ele>1085.95</ele>
        <time>2024-09-11T08:19:09Z</time>
      </trkpt>
      <trkpt lat="44.80751" lon="4.04324">
        <ele>1085.47</ele>
        <time>2024-09-11T08:19:11Z</time>
      </trkpt>
      <trkpt lat="44.8075" lon="4.04335">
        <ele>1084.5</ele>
        <time>2024-09-11T08:19:19Z</time>
      </trkpt>
      <trkpt lat="44.8075" lon="4.04341">
        <ele>1084.02</ele>
        <time>2024-09-11T08:19:26Z</time>
      </trkpt>
      <trkpt lat="44.80752" lon="4.04346">
        <ele>1082.58</ele>
        <time>2024-09-11T08:19:33Z</time>
      </trkpt>
      <trkpt lat="44.80755" lon="4.04355">
        <ele>1081.14</ele>
        <time>2024-09-11T08:19:40Z</time>
      </trkpt>
      <trkpt lat="44.80757" lon="4.04365">
        <ele>1080.18</ele>
        <time>2024-09-11T08:19:48Z</time>
      </trkpt>
      <trkpt lat="44.80759" lon="4.04376">
        <ele>1078.74</ele>
        <time>2024-09-11T08:19:58Z</time>
      </trkpt>
      <trkpt lat="44.80759" lon="4.04381">
        <ele>1077.29</ele>
        <time>2024-09-11T08:20:06Z</time>
      </trkpt>
      <trkpt lat="44.80762" lon="4.04389">
        <ele>1075.85</ele>
        <time>2024-09-11T08:20:14Z</time>
      </trkpt>
      <trkpt lat="44.80763" lon="4.04396">
        <ele>1074.89</ele>
        <time>2024-09-11T08:20:20Z</time>
      </trkpt>
      <trkpt lat="44.80764" lon="4.04404">
        <ele>1073.93</ele>
        <time>2024-09-11T08:20:30Z</time>
      </trkpt>
      <trkpt lat="44.80764" lon="4.04413">
        <ele>1072.49</ele>
        <time>2024-09-11T08:20:38Z</time>
      </trkpt>
      <trkpt lat="44.80764" lon="4.04414">
        <ele>1072.49</ele>
        <time>2024-09-11T08:20:40Z</time>
      </trkpt>
      <trkpt lat="44.80763" lon="4.04423">
        <ele>1071.05</ele>
        <time>2024-09-11T08:20:47Z</time>
      </trkpt>
      <trkpt lat="44.80766" lon="4.0443">
        <ele>1069.6</ele>
        <time>2024-09-11T08:20:55Z</time>
      </trkpt>
      <trkpt lat="44.80768" lon="4.0444">
        <ele>1068.16</ele>
        <time>2024-09-11T08:21:05Z</time>
      </trkpt>
      <trkpt lat="44.80769" lon="4.04451">
        <ele>1067.2</ele>
        <time>2024-09-11T08:21:14Z</time>
      </trkpt>
      <trkpt lat="44.80771" lon="4.04465">
        <ele>1065.28</ele>
        <time>2024-09-11T08:21:25Z</time>
      </trkpt>
      <trkpt lat="44.8077" lon="4.04469">
        <ele>1064.32</ele>
        <time>2024-09-11T08:21:32Z</time>
      </trkpt>
      <trkpt lat="44.80768" lon="4.04472">
        <ele>1063.36</ele>
        <time>2024-09-11T08:21:38Z</time>
      </trkpt>
      <trkpt lat="44.80769" lon="4.04475">
        <ele>1062.87</ele>
        <time>2024-09-11T08:21:42Z</time>
      </trkpt>
      <trkpt lat="44.80772" lon="4.04483">
        <ele>1061.43</ele>
        <time>2024-09-11T08:21:50Z</time>
      </trkpt>
      <trkpt lat="44.80775" lon="4.04488">
        <ele>1060.47</ele>
        <time>2024-09-11T08:21:59Z</time>
      </trkpt>
      <trkpt lat="44.8078" lon="4.04492">
        <ele>1059.99</ele>
        <time>2024-09-11T08:22:09Z</time>
      </trkpt>
      <trkpt lat="44.8079" lon="4.04501">
        <ele>1059.03</ele>
        <time>2024-09-11T08:22:18Z</time>
      </trkpt>
      <trkpt lat="44.80793" lon="4.04501">
        <ele>1058.07</ele>
        <time>2024-09-11T08:22:26Z</time>
      </trkpt>
      <trkpt lat="44.80797" lon="4.04505">
        <ele>1056.15</ele>
        <time>2024-09-11T08:22:36Z</time>
      </trkpt>
      <trkpt lat="44.808" lon="4.04509">
        <ele>1054.7</ele>
        <time>2024-09-11T08:22:47Z</time>
      </trkpt>
      <trkpt lat="44.80804" lon="4.04512">
        <ele>1053.26</ele>
        <time>2024-09-11T08:22:55Z</time>
      </trkpt>
      <trkpt lat="44.80806" lon="4.04513">
        <ele>1051.82</ele>
        <time>2024-09-11T08:23:07Z</time>
      </trkpt>
      <trkpt lat="44.80816" lon="4.04519">
        <ele>1050.38</ele>
        <time>2024-09-11T08:23:15Z</time>
      </trkpt>
      <trkpt lat="44.8082" lon="4.04522">
        <ele>1048.94</ele>
        <time>2024-09-11T08:23:25Z</time>
      </trkpt>
      <trkpt lat="44.80822" lon="4.04523">
        <ele>1047.49</ele>
        <time>2024-09-11T08:23:33Z</time>
      </trkpt>
      <trkpt lat="44.80827" lon="4.04529">
        <ele>1046.53</ele>
        <time>2024-09-11T08:23:43Z</time>
      </trkpt>
      <trkpt lat="44.80837" lon="4.04539">
        <ele>1045.09</ele>
        <time>2024-09-11T08:23:52Z</time>
      </trkpt>
      <trkpt lat="44.80843" lon="4.04545">
        <ele>1043.65</ele>
        <time>2024-09-11T08:24:01Z</time>
      </trkpt>
      <trkpt lat="44.80853" lon="4.04553">
        <ele>1042.21</ele>
        <time>2024-09-11T08:24:11Z</time>
      </trkpt>
      <trkpt lat="44.80861" lon="4.04565">
        <ele>1040.76</ele>
        <time>2024-09-11T08:24:21Z</time>
      </trkpt>
      <trkpt lat="44.80866" lon="4.04574">
        <ele>1039.32</ele>
        <time>2024-09-11T08:24:32Z</time>
      </trkpt>
      <trkpt lat="44.80874" lon="4.04584">
        <ele>1038.36</ele>
        <time>2024-09-11T08:24:40Z</time>
      </trkpt>
      <trkpt lat="44.80884" lon="4.04598">
        <ele>1036.92</ele>
        <time>2024-09-11T08:24:48Z</time>
      </trkpt>
      <trkpt lat="44.80891" lon="4.04611">
        <ele>1036.44</ele>
        <time>2024-09-11T08:24:58Z</time>
      </trkpt>
      <trkpt lat="44.80897" lon="4.04629">
        <ele>1035.48</ele>
        <time>2024-09-11T08:25:08Z</time>
      </trkpt>
      <trkpt lat="44.80898" lon="4.0464">
        <ele>1034.52</ele>
        <time>2024-09-11T08:25:18Z</time>
      </trkpt>
      <trkpt lat="44.809" lon="4.04651">
        <ele>1034.04</ele>
        <time>2024-09-11T08:25:28Z</time>
      </trkpt>
      <trkpt lat="44.809" lon="4.04658">
        <ele>1033.55</ele>
        <time>2024-09-11T08:25:37Z</time>
      </trkpt>
      <trkpt lat="44.80909" lon="4.04673">
        <ele>1032.59</ele>
        <time>2024-09-11T08:25:48Z</time>
      </trkpt>
      <trkpt lat="44.80914" lon="4.04688">
        <ele>1031.15</ele>
        <time>2024-09-11T08:25:57Z</time>
      </trkpt>
      <trkpt lat="44.80917" lon="4.04697">
        <ele>1030.19</ele>
        <time>2024-09-11T08:26:07Z</time>
      </trkpt>
      <trkpt lat="44.80919" lon="4.04705">
        <ele>1029.71</ele>
        <time>2024-09-11T08:26:13Z</time>
      </trkpt>
      <trkpt lat="44.80924" lon="4.04715">
        <ele>1028.27</ele>
        <time>2024-09-11T08:26:22Z</time>
      </trkpt>
      <trkpt lat="44.80928" lon="4.04723">
        <ele>1027.31</ele>
        <time>2024-09-11T08:26:30Z</time>
      </trkpt>
      <trkpt lat="44.80931" lon="4.04729">
        <ele>1025.86</ele>
        <time>2024-09-11T08:26:38Z</time>
      </trkpt>
      <trkpt lat="44.80939" lon="4.04737">
        <ele>1023.94</ele>
        <time>2024-09-11T08:26:48Z</time>
      </trkpt>
      <trkpt lat="44.80944" lon="4.0474">
        <ele>1023.46</ele>
        <time>2024-09-11T08:26:52Z</time>
      </trkpt>
      <trkpt lat="44.80948" lon="4.04744">
        <ele>1022.5</ele>
        <time>2024-09-11T08:26:58Z</time>
      </trkpt>
      <trkpt lat="44.80957" lon="4.04749">
        <ele>1021.06</ele>
        <time>2024-09-11T08:27:07Z</time>
      </trkpt>
      <trkpt lat="44.80964" lon="4.04757">
        <ele>1019.62</ele>
        <time>2024-09-11T08:27:14Z</time>
      </trkpt>
      <trkpt lat="44.80964" lon="4.04772">
        <ele>1018.17</ele>
        <time>2024-09-11T08:27:23Z</time>
      </trkpt>
      <trkpt lat="44.80959" lon="4.04783">
        <ele>1016.73</ele>
        <time>2024-09-11T08:27:31Z</time>
      </trkpt>
      <trkpt lat="44.80958" lon="4.04788">
        <ele>1016.25</ele>
        <time>2024-09-11T08:27:34Z</time>
      </trkpt>
      <trkpt lat="44.80952" lon="4.04797">
        <ele>1015.29</ele>
        <time>2024-09-11T08:27:41Z</time>
      </trkpt>
      <trkpt lat="44.80951" lon="4.04808">
        <ele>1013.85</ele>
        <time>2024-09-11T08:27:50Z</time>
      </trkpt>
      <trkpt lat="44.80952" lon="4.04822">
        <ele>1012.41</ele>
        <time>2024-09-11T08:27:59Z</time>
      </trkpt>
      <trkpt lat="44.80955" lon="4.04831">
        <ele>1010.96</ele>
        <time>2024-09-11T08:28:07Z</time>
      </trkpt>
      <trkpt lat="44.80955" lon="4.04832">
        <ele>1010.96</ele>
        <time>2024-09-11T08:28:08Z</time>
      </trkpt>
      <trkpt lat="44.80955" lon="4.04836">
        <ele>1010.96</ele>
        <time>2024-09-11T08:28:10Z</time>
      </trkpt>
      <trkpt lat="44.80957" lon="4.04847">
        <ele>1009.52</ele>
        <time>2024-09-11T08:28:18Z</time>
      </trkpt>
      <trkpt lat="44.80961" lon="4.04854">
        <ele>1008.56</ele>
        <time>2024-09-11T08:28:24Z</time>
      </trkpt>
      <trkpt lat="44.80963" lon="4.04865">
        <ele>1007.12</ele>
        <time>2024-09-11T08:28:32Z</time>
      </trkpt>
      <trkpt lat="44.80964" lon="4.0487">
        <ele>1006.64</ele>
        <time>2024-09-11T08:28:36Z</time>
      </trkpt>
      <trkpt lat="44.80965" lon="4.04874">
        <ele>1006.16</ele>
        <time>2024-09-11T08:28:39Z</time>
      </trkpt>
      <trkpt lat="44.80966" lon="4.04883">
        <ele>1005.2</ele>
        <time>2024-09-11T08:28:46Z</time>
      </trkpt>
      <trkpt lat="44.80966" lon="4.04894">
        <ele>1003.75</ele>
        <time>2024-09-11T08:28:54Z</time>
      </trkpt>
      <trkpt lat="44.80966" lon="4.04902">
        <ele>1002.79</ele>
        <time>2024-09-11T08:29:01Z</time>
      </trkpt>
      <trkpt lat="44.80967" lon="4.0491">
        <ele>1001.35</ele>
        <time>2024-09-11T08:29:08Z</time>
      </trkpt>
      <trkpt lat="44.80974" lon="4.04918">
        <ele>1000.39</ele>
        <time>2024-09-11T08:29:16Z</time>
      </trkpt>
      <trkpt lat="44.80979" lon="4.04923">
        <ele>998.95</ele>
        <time>2024-09-11T08:29:23Z</time>
      </trkpt>
      <trkpt lat="44.80982" lon="4.04925">
        <ele>998.47</ele>
        <time>2024-09-11T08:29:26Z</time>
      </trkpt>
      <trkpt lat="44.80989" lon="4.0493">
        <ele>997.02</ele>
        <time>2024-09-11T08:29:34Z</time>
      </trkpt>
      <trkpt lat="44.80994" lon="4.04935">
        <ele>996.06</ele>
        <time>2024-09-11T08:29:42Z</time>
      </trkpt>
      <trkpt lat="44.80997" lon="4.04943">
        <ele>995.58</ele>
        <time>2024-09-11T08:29:49Z</time>
      </trkpt>
      <trkpt lat="44.81001" lon="4.04949">
        <ele>994.62</ele>
        <time>2024-09-11T08:29:56Z</time>
      </trkpt>
      <trkpt lat="44.81003" lon="4.04951">
        <ele>994.62</ele>
        <time>2024-09-11T08:29:58Z</time>
      </trkpt>
      <trkpt lat="44.81008" lon="4.04961">
        <ele>993.18</ele>
        <time>2024-09-11T08:30:07Z</time>
      </trkpt>
      <trkpt lat="44.8101" lon="4.04968">
        <ele>992.22</ele>
        <time>2024-09-11T08:30:14Z</time>
      </trkpt>
      <trkpt lat="44.81007" lon="4.0497">
        <ele>992.22</ele>
        <time>2024-09-11T08:30:21Z</time>
      </trkpt>
      <trkpt lat="44.81007" lon="4.04971">
        <ele>992.22</ele>
        <time>2024-09-11T08:30:28Z</time>
      </trkpt>
      <trkpt lat="44.81007" lon="4.0497">
        <ele>992.22</ele>
        <time>2024-09-11T08:30:44Z</time>
      </trkpt>
      <trkpt lat="44.81007" lon="4.04969">
        <ele>992.22</ele>
        <time>2024-09-11T08:30:58Z</time>
      </trkpt>
      <trkpt lat="44.81006" lon="4.04969">
        <ele>992.7</ele>
        <time>2024-09-11T08:31:17Z</time>
      </trkpt>
      <trkpt lat="44.81006" lon="4.04969">
        <ele>992.7</ele>
        <time>2024-09-11T08:31:31Z</time>
      </trkpt>
      <trkpt lat="44.81007" lon="4.04969">
        <ele>992.7</ele>
        <time>2024-09-11T08:31:45Z</time>
      </trkpt>
      <trkpt lat="44.81006" lon="4.04969">
        <ele>992.7</ele>
        <time>2024-09-11T08:32:02Z</time>
      </trkpt>
      <trkpt lat="44.81005" lon="4.04969">
        <ele>993.18</ele>
        <time>2024-09-11T08:32:19Z</time>
      </trkpt>
      <trkpt lat="44.81005" lon="4.04969">
        <ele>992.7</ele>
        <time>2024-09-11T08:32:28Z</time>
      </trkpt>
      <trkpt lat="44.81005" lon="4.04969">
        <ele>993.18</ele>
        <time>2024-09-11T08:32:43Z</time>
      </trkpt>
      <trkpt lat="44.81005" lon="4.04969">
        <ele>993.18</ele>
        <time>2024-09-11T08:32:53Z</time>
      </trkpt>
      <trkpt lat="44.81004" lon="4.04969">
        <ele>993.18</ele>
        <time>2024-09-11T08:33:05Z</time>
      </trkpt>
      <trkpt lat="44.81005" lon="4.04969">
        <ele>993.18</ele>
        <time>2024-09-11T08:33:18Z</time>
      </trkpt>
      <trkpt lat="44.81005" lon="4.0497">
        <ele>993.18</ele>
        <time>2024-09-11T08:33:25Z</time>
      </trkpt>
      <trkpt lat="44.81006" lon="4.0497">
        <ele>993.18</ele>
        <time>2024-09-11T08:33:39Z</time>
      </trkpt>
      <trkpt lat="44.81006" lon="4.0497">
        <ele>993.18</ele>
        <time>2024-09-11T08:33:52Z</time>
      </trkpt>
      <trkpt lat="44.81006" lon="4.0497">
        <ele>993.18</ele>
        <time>2024-09-11T08:34:06Z</time>
      </trkpt>
      <trkpt lat="44.81006" lon="4.0497">
        <ele>993.18</ele>
        <time>2024-09-11T08:34:22Z</time>
      </trkpt>
      <trkpt lat="44.81006" lon="4.0497">
        <ele>993.18</ele>
        <time>2024-09-11T08:34:32Z</time>
      </trkpt>
      <trkpt lat="44.81006" lon="4.0497">
        <ele>993.18</ele>
        <time>2024-09-11T08:34:46Z</time>
      </trkpt>
      <trkpt lat="44.81006" lon="4.0497">
        <ele>993.18</ele>
        <time>2024-09-11T08:34:57Z</time>
      </trkpt>
      <trkpt lat="44.81006" lon="4.0497">
        <ele>993.18</ele>
        <time>2024-09-11T08:35:13Z</time>
      </trkpt>
      <trkpt lat="44.81006" lon="4.0497">
        <ele>993.18</ele>
        <time>2024-09-11T08:35:27Z</time>
      </trkpt>
      <trkpt lat="44.81006" lon="4.0497">
        <ele>993.18</ele>
        <time>2024-09-11T08:35:43Z</time>
      </trkpt>
      <trkpt lat="44.81006" lon="4.0497">
        <ele>993.18</ele>
        <time>2024-09-11T08:35:58Z</time>
      </trkpt>
      <trkpt lat="44.81007" lon="4.04969">
        <ele>993.18</ele>
        <time>2024-09-11T08:36:14Z</time>
      </trkpt>
      <trkpt lat="44.81007" lon="4.0497">
        <ele>993.18</ele>
        <time>2024-09-11T08:36:32Z</time>
      </trkpt>
      <trkpt lat="44.81007" lon="4.0497">
        <ele>993.18</ele>
        <time>2024-09-11T08:36:46Z</time>
      </trkpt>
      <trkpt lat="44.81008" lon="4.0497">
        <ele>993.18</ele>
        <time>2024-09-11T08:37:00Z</time>
      </trkpt>
      <trkpt lat="44.8101" lon="4.04971">
        <ele>992.22</ele>
        <time>2024-09-11T08:37:07Z</time>
      </trkpt>
      <trkpt lat="44.81012" lon="4.04975">
        <ele>991.74</ele>
        <time>2024-09-11T08:37:11Z</time>
      </trkpt>
      <trkpt lat="44.81014" lon="4.04978">
        <ele>991.26</ele>
        <time>2024-09-11T08:37:18Z</time>
      </trkpt>
      <trkpt lat="44.81015" lon="4.04979">
        <ele>991.26</ele>
        <time>2024-09-11T08:37:27Z</time>
      </trkpt>
      <trkpt lat="44.81015" lon="4.04979">
        <ele>991.26</ele>
        <time>2024-09-11T08:37:36Z</time>
      </trkpt>
      <trkpt lat="44.81016" lon="4.0498">
        <ele>991.26</ele>
        <time>2024-09-11T08:37:44Z</time>
      </trkpt>
      <trkpt lat="44.81017" lon="4.0498">
        <ele>991.26</ele>
        <time>2024-09-11T08:37:52Z</time>
      </trkpt>
      <trkpt lat="44.81017" lon="4.04981">
        <ele>991.26</ele>
        <time>2024-09-11T08:38:04Z</time>
      </trkpt>
      <trkpt lat="44.81018" lon="4.04981">
        <ele>991.26</ele>
        <time>2024-09-11T08:38:15Z</time>
      </trkpt>
      <trkpt lat="44.81018" lon="4.04982">
        <ele>991.26</ele>
        <time>2024-09-11T08:38:21Z</time>
      </trkpt>
      <trkpt lat="44.81019" lon="4.04989">
        <ele>991.26</ele>
        <time>2024-09-11T08:38:30Z</time>
      </trkpt>
      <trkpt lat="44.81019" lon="4.0499">
        <ele>991.26</ele>
        <time>2024-09-11T08:38:40Z</time>
      </trkpt>
      <trkpt lat="44.8102" lon="4.04989">
        <ele>991.26</ele>
        <time>2024-09-11T08:38:55Z</time>
      </trkpt>
      <trkpt lat="44.8102" lon="4.0499">
        <ele>990.78</ele>
        <time>2024-09-11T08:39:09Z</time>
      </trkpt>
      <trkpt lat="44.81021" lon="4.0499">
        <ele>991.26</ele>
        <time>2024-09-11T08:39:24Z</time>
      </trkpt>
      <trkpt lat="44.81021" lon="4.0499">
        <ele>991.26</ele>
        <time>2024-09-11T08:39:32Z</time>
      </trkpt>
      <trkpt lat="44.81021" lon="4.04999">
        <ele>989.81</ele>
        <time>2024-09-11T08:39:39Z</time>
      </trkpt>
      <trkpt lat="44.81023" lon="4.05014">
        <ele>988.37</ele>
        <time>2024-09-11T08:39:48Z</time>
      </trkpt>
      <trkpt lat="44.81023" lon="4.05019">
        <ele>988.37</ele>
        <time>2024-09-11T08:39:52Z</time>
      </trkpt>
      <trkpt lat="44.81023" lon="4.05022">
        <ele>987.89</ele>
        <time>2024-09-11T08:39:54Z</time>
      </trkpt>
      <trkpt lat="44.81025" lon="4.05027">
        <ele>987.41</ele>
        <time>2024-09-11T08:39:58Z</time>
      </trkpt>
      <trkpt lat="44.81025" lon="4.0504">
        <ele>985.97</ele>
        <time>2024-09-11T08:40:07Z</time>
      </trkpt>
      <trkpt lat="44.81028" lon="4.05049">
        <ele>985.49</ele>
        <time>2024-09-11T08:40:13Z</time>
      </trkpt>
      <trkpt lat="44.81029" lon="4.05054">
        <ele>985.01</ele>
        <time>2024-09-11T08:40:17Z</time>
      </trkpt>
      <trkpt lat="44.81032" lon="4.0506">
        <ele>984.05</ele>
        <time>2024-09-11T08:40:23Z</time>
      </trkpt>
      <trkpt lat="44.81037" lon="4.05066">
        <ele>983.57</ele>
        <time>2024-09-11T08:40:30Z</time>
      </trkpt>
      <trkpt lat="44.81039" lon="4.05067">
        <ele>983.09</ele>
        <time>2024-09-11T08:40:32Z</time>
      </trkpt>
      <trkpt lat="44.81042" lon="4.0507">
        <ele>982.12</ele>
        <time>2024-09-11T08:40:40Z</time>
      </trkpt>
      <trkpt lat="44.81047" lon="4.05074">
        <ele>981.64</ele>
        <time>2024-09-11T08:40:47Z</time>
      </trkpt>
      <trkpt lat="44.81048" lon="4.05074">
        <ele>981.64</ele>
        <time>2024-09-11T08:40:48Z</time>
      </trkpt>
      <trkpt lat="44.81055" lon="4.0508">
        <ele>980.2</ele>
        <time>2024-09-11T08:40:58Z</time>
      </trkpt>
      <trkpt lat="44.81062" lon="4.05083">
        <ele>979.72</ele>
        <time>2024-09-11T08:41:05Z</time>
      </trkpt>
      <trkpt lat="44.81068" lon="4.05087">
        <ele>978.76</ele>
        <time>2024-09-11T08:41:14Z</time>
      </trkpt>
      <trkpt lat="44.81072" lon="4.05093">
        <ele>978.76</ele>
        <time>2024-09-11T08:41:20Z</time>
      </trkpt>
      <trkpt lat="44.81085" lon="4.05103">
        <ele>978.28</ele>
        <time>2024-09-11T08:41:28Z</time>
      </trkpt>
      <trkpt lat="44.81091" lon="4.0511">
        <ele>977.8</ele>
        <time>2024-09-11T08:41:36Z</time>
      </trkpt>
      <trkpt lat="44.81095" lon="4.05118">
        <ele>976.84</ele>
        <time>2024-09-11T08:41:45Z</time>
      </trkpt>
      <trkpt lat="44.81095" lon="4.05121">
        <ele>976.84</ele>
        <time>2024-09-11T08:41:54Z</time>
      </trkpt>
      <trkpt lat="44.81094" lon="4.05122">
        <ele>976.84</ele>
        <time>2024-09-11T08:42:10Z</time>
      </trkpt>
      <trkpt lat="44.81096" lon="4.05124">
        <ele>976.84</ele>
        <time>2024-09-11T08:42:24Z</time>
      </trkpt>
      <trkpt lat="44.81096" lon="4.05124">
        <ele>976.84</ele>
        <time>2024-09-11T08:42:35Z</time>
      </trkpt>
      <trkpt lat="44.81096" lon="4.05127">
        <ele>976.84</ele>
        <time>2024-09-11T08:42:44Z</time>
      </trkpt>
      <trkpt lat="44.81096" lon="4.05134">
        <ele>976.84</ele>
        <time>2024-09-11T08:42:49Z</time>
      </trkpt>
      <trkpt lat="44.81098" lon="4.05147">
        <ele>977.8</ele>
        <time>2024-09-11T08:42:58Z</time>
      </trkpt>
      <trkpt lat="44.811" lon="4.05156">
        <ele>978.28</ele>
        <time>2024-09-11T08:43:05Z</time>
      </trkpt>
      <trkpt lat="44.81105" lon="4.05165">
        <ele>977.8</ele>
        <time>2024-09-11T08:43:14Z</time>
      </trkpt>
      <trkpt lat="44.81109" lon="4.05165">
        <ele>977.8</ele>
        <time>2024-09-11T08:43:20Z</time>
      </trkpt>
      <trkpt lat="44.81111" lon="4.05157">
        <ele>977.32</ele>
        <time>2024-09-11T08:43:27Z</time>
      </trkpt>
      <trkpt lat="44.81116" lon="4.05153">
        <ele>976.84</ele>
        <time>2024-09-11T08:43:34Z</time>
      </trkpt>
      <trkpt lat="44.81121" lon="4.05149">
        <ele>976.36</ele>
        <time>2024-09-11T08:43:40Z</time>
      </trkpt>
      <trkpt lat="44.81125" lon="4.05147">
        <ele>975.88</ele>
        <time>2024-09-11T08:43:45Z</time>
      </trkpt>
      <trkpt lat="44.8113" lon="4.05143">
        <ele>975.88</ele>
        <time>2024-09-11T08:43:50Z</time>
      </trkpt>
      <trkpt lat="44.81138" lon="4.05136">
        <ele>975.88</ele>
        <time>2024-09-11T08:43:59Z</time>
      </trkpt>
      <trkpt lat="44.8114" lon="4.05135">
        <ele>975.39</ele>
        <time>2024-09-11T08:44:05Z</time>
      </trkpt>
      <trkpt lat="44.81141" lon="4.05135">
        <ele>975.39</ele>
        <time>2024-09-11T08:44:14Z</time>
      </trkpt>
      <trkpt lat="44.81149" lon="4.05135">
        <ele>973.95</ele>
        <time>2024-09-11T08:44:23Z</time>
      </trkpt>
      <trkpt lat="44.81158" lon="4.05134">
        <ele>972.03</ele>
        <time>2024-09-11T08:44:31Z</time>
      </trkpt>
      <trkpt lat="44.81165" lon="4.05132">
        <ele>971.07</ele>
        <time>2024-09-11T08:44:39Z</time>
      </trkpt>
      <trkpt lat="44.81169" lon="4.05132">
        <ele>970.11</ele>
        <time>2024-09-11T08:44:47Z</time>
      </trkpt>
      <trkpt lat="44.8117" lon="4.05129">
        <ele>969.63</ele>
        <time>2024-09-11T08:44:56Z</time>
      </trkpt>
      <trkpt lat="44.81176" lon="4.05127">
        <ele>968.67</ele>
        <time>2024-09-11T08:45:05Z</time>
      </trkpt>
      <trkpt lat="44.81181" lon="4.05121">
        <ele>967.22</ele>
        <time>2024-09-11T08:45:13Z</time>
      </trkpt>
      <trkpt lat="44.81188" lon="4.0512">
        <ele>966.74</ele>
        <time>2024-09-11T08:45:20Z</time>
      </trkpt>
      <trkpt lat="44.81194" lon="4.05118">
        <ele>965.78</ele>
        <time>2024-09-11T08:45:28Z</time>
      </trkpt>
      <trkpt lat="44.81203" lon="4.05115">
        <ele>965.3</ele>
        <time>2024-09-11T08:45:36Z</time>
      </trkpt>
      <trkpt lat="44.8121" lon="4.05111">
        <ele>964.34</ele>
        <time>2024-09-11T08:45:44Z</time>
      </trkpt>
      <trkpt lat="44.81214" lon="4.05103">
        <ele>962.9</ele>
        <time>2024-09-11T08:45:53Z</time>
      </trkpt>
      <trkpt lat="44.81218" lon="4.05092">
        <ele>961.46</ele>
        <time>2024-09-11T08:46:04Z</time>
      </trkpt>
      <trkpt lat="44.81224" lon="4.05083">
        <ele>960.01</ele>
        <time>2024-09-11T08:46:14Z</time>
      </trkpt>
      <trkpt lat="44.81228" lon="4.05078">
        <ele>959.53</ele>
        <time>2024-09-11T08:46:19Z</time>
      </trkpt>
      <trkpt lat="44.81232" lon="4.05067">
        <ele>958.57</ele>
        <time>2024-09-11T08:46:27Z</time>
      </trkpt>
      <trkpt lat="44.81235" lon="4.0506">
        <ele>957.61</ele>
        <time>2024-09-11T08:46:35Z</time>
      </trkpt>
      <trkpt lat="44.81237" lon="4.05057">
        <ele>957.61</ele>
        <time>2024-09-11T08:46:39Z</time>
      </trkpt>
      <trkpt lat="44.8124" lon="4.05047">
        <ele>957.13</ele>
        <time>2024-09-11T08:46:48Z</time>
      </trkpt>
      <trkpt lat="44.81246" lon="4.05038">
        <ele>956.65</ele>
        <time>2024-09-11T08:46:57Z</time>
      </trkpt>
      <trkpt lat="44.81247" lon="4.05036">
        <ele>956.65</ele>
        <time>2024-09-11T08:47:03Z</time>
      </trkpt>
      <trkpt lat="44.81247" lon="4.05036">
        <ele>956.65</ele>
        <time>2024-09-11T08:47:04Z</time>
      </trkpt>
      <trkpt lat="44.81248" lon="4.05032">
        <ele>956.17</ele>
        <time>2024-09-11T08:47:07Z</time>
      </trkpt>
      <trkpt lat="44.81252" lon="4.05017">
        <ele>956.65</ele>
        <time>2024-09-11T08:47:16Z</time>
      </trkpt>
      <trkpt lat="44.81258" lon="4.05009">
        <ele>957.13</ele>
        <time>2024-09-11T08:47:24Z</time>
      </trkpt>
      <trkpt lat="44.81262" lon="4.05005">
        <ele>957.13</ele>
        <time>2024-09-11T08:47:28Z</time>
      </trkpt>
      <trkpt lat="44.81271" lon="4.05001">
        <ele>957.61</ele>
        <time>2024-09-11T08:47:37Z</time>
      </trkpt>
      <trkpt lat="44.81279" lon="4.04998">
        <ele>958.57</ele>
        <time>2024-09-11T08:47:46Z</time>
      </trkpt>
      <trkpt lat="44.81284" lon="4.04995">
        <ele>958.57</ele>
        <time>2024-09-11T08:47:53Z</time>
      </trkpt>
      <trkpt lat="44.81289" lon="4.04996">
        <ele>959.53</ele>
        <time>2024-09-11T08:47:59Z</time>
      </trkpt>
      <trkpt lat="44.81297" lon="4.04998">
        <ele>960.01</ele>
        <time>2024-09-11T08:48:05Z</time>
      </trkpt>
      <trkpt lat="44.81304" lon="4.05002">
        <ele>960.98</ele>
        <time>2024-09-11T08:48:15Z</time>
      </trkpt>
      <trkpt lat="44.81308" lon="4.05003">
        <ele>961.46</ele>
        <time>2024-09-11T08:48:21Z</time>
      </trkpt>
      <trkpt lat="44.81316" lon="4.05007">
        <ele>961.94</ele>
        <time>2024-09-11T08:48:31Z</time>
      </trkpt>
      <trkpt lat="44.8132" lon="4.05008">
        <ele>962.9</ele>
        <time>2024-09-11T08:48:39Z</time>
      </trkpt>
      <trkpt lat="44.81325" lon="4.0501">
        <ele>963.86</ele>
        <time>2024-09-11T08:48:47Z</time>
      </trkpt>
      <trkpt lat="44.81331" lon="4.05012">
        <ele>965.3</ele>
        <time>2024-09-11T08:48:58Z</time>
      </trkpt>
      <trkpt lat="44.81334" lon="4.05013">
        <ele>966.26</ele>
        <time>2024-09-11T08:49:04Z</time>
      </trkpt>
      <trkpt lat="44.81343" lon="4.05014">
        <ele>967.22</ele>
        <time>2024-09-11T08:49:12Z</time>
      </trkpt>
      <trkpt lat="44.81352" lon="4.05011">
        <ele>968.18</ele>
        <time>2024-09-11T08:49:20Z</time>
      </trkpt>
      <trkpt lat="44.81359" lon="4.05009">
        <ele>969.63</ele>
        <time>2024-09-11T08:49:30Z</time>
      </trkpt>
      <trkpt lat="44.81367" lon="4.05006">
        <ele>970.11</ele>
        <time>2024-09-11T08:49:40Z</time>
      </trkpt>
      <trkpt lat="44.81376" lon="4.05004">
        <ele>970.59</ele>
        <time>2024-09-11T08:49:48Z</time>
      </trkpt>
      <trkpt lat="44.81388" lon="4.05003">
        <ele>971.07</ele>
        <time>2024-09-11T08:49:57Z</time>
      </trkpt>
      <trkpt lat="44.81397" lon="4.05001">
        <ele>971.55</ele>
        <time>2024-09-11T08:50:06Z</time>
      </trkpt>
      <trkpt lat="44.81403" lon="4.05001">
        <ele>971.55</ele>
        <time>2024-09-11T08:50:14Z</time>
      </trkpt>
      <trkpt lat="44.81412" lon="4.04999">
        <ele>971.55</ele>
        <time>2024-09-11T08:50:22Z</time>
      </trkpt>
      <trkpt lat="44.81419" lon="4.05001">
        <ele>972.03</ele>
        <time>2024-09-11T08:50:30Z</time>
      </trkpt>
      <trkpt lat="44.81431" lon="4.05002">
        <ele>971.55</ele>
        <time>2024-09-11T08:50:41Z</time>
      </trkpt>
      <trkpt lat="44.81439" lon="4.05001">
        <ele>971.55</ele>
        <time>2024-09-11T08:50:50Z</time>
      </trkpt>
      <trkpt lat="44.81448" lon="4.05001">
        <ele>971.55</ele>
        <time>2024-09-11T08:50:58Z</time>
      </trkpt>
      <trkpt lat="44.81458" lon="4.05001">
        <ele>971.55</ele>
        <time>2024-09-11T08:51:07Z</time>
      </trkpt>
      <trkpt lat="44.81466" lon="4.04998">
        <ele>971.07</ele>
        <time>2024-09-11T08:51:16Z</time>
      </trkpt>
      <trkpt lat="44.81474" lon="4.04994">
        <ele>971.07</ele>
        <time>2024-09-11T08:51:25Z</time>
      </trkpt>
      <trkpt lat="44.8148" lon="4.04987">
        <ele>970.59</ele>
        <time>2024-09-11T08:51:34Z</time>
      </trkpt>
      <trkpt lat="44.81488" lon="4.04984">
        <ele>969.63</ele>
        <time>2024-09-11T08:51:41Z</time>
      </trkpt>
      <trkpt lat="44.81491" lon="4.04981">
        <ele>969.15</ele>
        <time>2024-09-11T08:51:48Z</time>
      </trkpt>
      <trkpt lat="44.81498" lon="4.04978">
        <ele>968.18</ele>
        <time>2024-09-11T08:51:55Z</time>
      </trkpt>
      <trkpt lat="44.81507" lon="4.04974">
        <ele>967.22</ele>
        <time>2024-09-11T08:52:04Z</time>
      </trkpt>
      <trkpt lat="44.81515" lon="4.04972">
        <ele>966.74</ele>
        <time>2024-09-11T08:52:12Z</time>
      </trkpt>
      <trkpt lat="44.81518" lon="4.04971">
        <ele>966.26</ele>
        <time>2024-09-11T08:52:15Z</time>
      </trkpt>
      <trkpt lat="44.81528" lon="4.04969">
        <ele>966.26</ele>
        <time>2024-09-11T08:52:24Z</time>
      </trkpt>
      <trkpt lat="44.8154" lon="4.04968">
        <ele>965.78</ele>
        <time>2024-09-11T08:52:35Z</time>
      </trkpt>
      <trkpt lat="44.81547" lon="4.04965">
        <ele>965.3</ele>
        <time>2024-09-11T08:52:42Z</time>
      </trkpt>
      <trkpt lat="44.81553" lon="4.04959">
        <ele>965.3</ele>
        <time>2024-09-11T08:52:51Z</time>
      </trkpt>
      <trkpt lat="44.8156" lon="4.04955">
        <ele>964.82</ele>
        <time>2024-09-11T08:52:58Z</time>
      </trkpt>
      <trkpt lat="44.81567" lon="4.04955">
        <ele>964.34</ele>
        <time>2024-09-11T08:53:05Z</time>
      </trkpt>
      <trkpt lat="44.81569" lon="4.04955">
        <ele>964.34</ele>
        <time>2024-09-11T08:53:07Z</time>
      </trkpt>
      <trkpt lat="44.81577" lon="4.04955">
        <ele>963.86</ele>
        <time>2024-09-11T08:53:17Z</time>
      </trkpt>
      <trkpt lat="44.81584" lon="4.04955">
        <ele>962.9</ele>
        <time>2024-09-11T08:53:25Z</time>
      </trkpt>
      <trkpt lat="44.8159" lon="4.04955">
        <ele>961.94</ele>
        <time>2024-09-11T08:53:33Z</time>
      </trkpt>
      <trkpt lat="44.81595" lon="4.04951">
        <ele>960.98</ele>
        <time>2024-09-11T08:53:41Z</time>
      </trkpt>
      <trkpt lat="44.81601" lon="4.0495">
        <ele>960.01</ele>
        <time>2024-09-11T08:53:48Z</time>
      </trkpt>
      <trkpt lat="44.81606" lon="4.04948">
        <ele>959.05</ele>
        <time>2024-09-11T08:53:56Z</time>
      </trkpt>
      <trkpt lat="44.81611" lon="4.04946">
        <ele>958.09</ele>
        <time>2024-09-11T08:54:04Z</time>
      </trkpt>
      <trkpt lat="44.81615" lon="4.04945">
        <ele>957.13</ele>
        <time>2024-09-11T08:54:10Z</time>
      </trkpt>
      <trkpt lat="44.81619" lon="4.04943">
        <ele>956.65</ele>
        <time>2024-09-11T08:54:15Z</time>
      </trkpt>
      <trkpt lat="44.81625" lon="4.04943">
        <ele>955.69</ele>
        <time>2024-09-11T08:54:22Z</time>
      </trkpt>
      <trkpt lat="44.81631" lon="4.04938">
        <ele>954.73</ele>
        <time>2024-09-11T08:54:30Z</time>
      </trkpt>
      <trkpt lat="44.81636" lon="4.04933">
        <ele>953.77</ele>
        <time>2024-09-11T08:54:38Z</time>
      </trkpt>
      <trkpt lat="44.81642" lon="4.04929">
        <ele>953.28</ele>
        <time>2024-09-11T08:54:46Z</time>
      </trkpt>
      <trkpt lat="44.81645" lon="4.04924">
        <ele>952.32</ele>
        <time>2024-09-11T08:54:54Z</time>
      </trkpt>
      <trkpt lat="44.81649" lon="4.04919">
        <ele>951.36</ele>
        <time>2024-09-11T08:55:02Z</time>
      </trkpt>
      <trkpt lat="44.81652" lon="4.04913">
        <ele>950.4</ele>
        <time>2024-09-11T08:55:10Z</time>
      </trkpt>
      <trkpt lat="44.81656" lon="4.04904">
        <ele>948.96</ele>
        <time>2024-09-11T08:55:19Z</time>
      </trkpt>
      <trkpt lat="44.81662" lon="4.04898">
        <ele>948</ele>
        <time>2024-09-11T08:55:28Z</time>
      </trkpt>
      <trkpt lat="44.81663" lon="4.04895">
        <ele>947.52</ele>
        <time>2024-09-11T08:55:31Z</time>
      </trkpt>
      <trkpt lat="44.81664" lon="4.04895">
        <ele>947.52</ele>
        <time>2024-09-11T08:55:33Z</time>
      </trkpt>
      <trkpt lat="44.81672" lon="4.04889">
        <ele>946.56</ele>
        <time>2024-09-11T08:55:42Z</time>
      </trkpt>
      <trkpt lat="44.81675" lon="4.04884">
        <ele>946.07</ele>
        <time>2024-09-11T08:55:48Z</time>
      </trkpt>
      <trkpt lat="44.8168" lon="4.04879">
        <ele>945.59</ele>
        <time>2024-09-11T08:55:55Z</time>
      </trkpt>
      <trkpt lat="44.81686" lon="4.04873">
        <ele>945.59</ele>
        <time>2024-09-11T08:56:02Z</time>
      </trkpt>
      <trkpt lat="44.8169" lon="4.0487">
        <ele>945.59</ele>
        <time>2024-09-11T08:56:08Z</time>
      </trkpt>
      <trkpt lat="44.81697" lon="4.04865">
        <ele>945.59</ele>
        <time>2024-09-11T08:56:16Z</time>
      </trkpt>
      <trkpt lat="44.81701" lon="4.04863">
        <ele>945.11</ele>
        <time>2024-09-11T08:56:20Z</time>
      </trkpt>
      <trkpt lat="44.81703" lon="4.04859">
        <ele>945.11</ele>
        <time>2024-09-11T08:56:23Z</time>
      </trkpt>
      <trkpt lat="44.81712" lon="4.04856">
        <ele>945.11</ele>
        <time>2024-09-11T08:56:32Z</time>
      </trkpt>
      <trkpt lat="44.81714" lon="4.04856">
        <ele>945.11</ele>
        <time>2024-09-11T08:56:34Z</time>
      </trkpt>
      <trkpt lat="44.81721" lon="4.04859">
        <ele>944.15</ele>
        <time>2024-09-11T08:56:44Z</time>
      </trkpt>
      <trkpt lat="44.81728" lon="4.04862">
        <ele>943.19</ele>
        <time>2024-09-11T08:56:53Z</time>
      </trkpt>
      <trkpt lat="44.81735" lon="4.04862">
        <ele>941.75</ele>
        <time>2024-09-11T08:57:02Z</time>
      </trkpt>
      <trkpt lat="44.8174" lon="4.04868">
        <ele>940.31</ele>
        <time>2024-09-11T08:57:10Z</time>
      </trkpt>
      <trkpt lat="44.81739" lon="4.04878">
        <ele>939.35</ele>
        <time>2024-09-11T08:57:18Z</time>
      </trkpt>
      <trkpt lat="44.81741" lon="4.04885">
        <ele>938.38</ele>
        <time>2024-09-11T08:57:26Z</time>
      </trkpt>
      <trkpt lat="44.81741" lon="4.04894">
        <ele>937.9</ele>
        <time>2024-09-11T08:57:36Z</time>
      </trkpt>
      <trkpt lat="44.8174" lon="4.049">
        <ele>936.94</ele>
        <time>2024-09-11T08:57:45Z</time>
      </trkpt>
      <trkpt lat="44.8174" lon="4.04905">
        <ele>935.98</ele>
        <time>2024-09-11T08:57:52Z</time>
      </trkpt>
      <trkpt lat="44.81741" lon="4.04909">
        <ele>935.02</ele>
        <time>2024-09-11T08:57:59Z</time>
      </trkpt>
      <trkpt lat="44.81744" lon="4.04913">
        <ele>934.06</ele>
        <time>2024-09-11T08:58:06Z</time>
      </trkpt>
      <trkpt lat="44.81745" lon="4.04912">
        <ele>933.58</ele>
        <time>2024-09-11T08:58:13Z</time>
      </trkpt>
      <trkpt lat="44.81746" lon="4.04911">
        <ele>932.62</ele>
        <time>2024-09-11T08:58:21Z</time>
      </trkpt>
      <trkpt lat="44.81747" lon="4.04907">
        <ele>931.65</ele>
        <time>2024-09-11T08:58:28Z</time>
      </trkpt>
      <trkpt lat="44.81749" lon="4.04904">
        <ele>930.21</ele>
        <time>2024-09-11T08:58:35Z</time>
      </trkpt>
      <trkpt lat="44.81751" lon="4.04898">
        <ele>929.25</ele>
        <time>2024-09-11T08:58:43Z</time>
      </trkpt>
      <trkpt lat="44.81752" lon="4.04891">
        <ele>928.29</ele>
        <time>2024-09-11T08:58:51Z</time>
      </trkpt>
      <trkpt lat="44.81753" lon="4.0489">
        <ele>927.81</ele>
        <time>2024-09-11T08:58:54Z</time>
      </trkpt>
      <trkpt lat="44.81758" lon="4.04882">
        <ele>927.33</ele>
        <time>2024-09-11T08:59:02Z</time>
      </trkpt>
      <trkpt lat="44.81761" lon="4.04878">
        <ele>925.89</ele>
        <time>2024-09-11T08:59:12Z</time>
      </trkpt>
      <trkpt lat="44.81762" lon="4.04878">
        <ele>925.41</ele>
        <time>2024-09-11T08:59:26Z</time>
      </trkpt>
      <trkpt lat="44.81766" lon="4.04876">
        <ele>924.93</ele>
        <time>2024-09-11T08:59:37Z</time>
      </trkpt>
      <trkpt lat="44.81769" lon="4.04874">
        <ele>924.45</ele>
        <time>2024-09-11T08:59:46Z</time>
      </trkpt>
      <trkpt lat="44.81772" lon="4.04864">
        <ele>922.52</ele>
        <time>2024-09-11T08:59:55Z</time>
      </trkpt>
      <trkpt lat="44.81776" lon="4.04857">
        <ele>922.04</ele>
        <time>2024-09-11T09:00:02Z</time>
      </trkpt>
      <trkpt lat="44.81779" lon="4.0485">
        <ele>921.08</ele>
        <time>2024-09-11T09:00:10Z</time>
      </trkpt>
      <trkpt lat="44.81784" lon="4.04844">
        <ele>920.12</ele>
        <time>2024-09-11T09:00:19Z</time>
      </trkpt>
      <trkpt lat="44.81785" lon="4.04839">
        <ele>919.16</ele>
        <time>2024-09-11T09:00:27Z</time>
      </trkpt>
      <trkpt lat="44.81787" lon="4.04833">
        <ele>918.2</ele>
        <time>2024-09-11T09:00:35Z</time>
      </trkpt>
      <trkpt lat="44.81788" lon="4.04829">
        <ele>917.24</ele>
        <time>2024-09-11T09:00:45Z</time>
      </trkpt>
      <trkpt lat="44.8179" lon="4.0482">
        <ele>916.75</ele>
        <time>2024-09-11T09:00:53Z</time>
      </trkpt>
      <trkpt lat="44.81792" lon="4.0481">
        <ele>915.79</ele>
        <time>2024-09-11T09:01:01Z</time>
      </trkpt>
      <trkpt lat="44.81795" lon="4.048">
        <ele>915.31</ele>
        <time>2024-09-11T09:01:09Z</time>
      </trkpt>
      <trkpt lat="44.81801" lon="4.04794">
        <ele>915.31</ele>
        <time>2024-09-11T09:01:16Z</time>
      </trkpt>
      <trkpt lat="44.81802" lon="4.04793">
        <ele>914.83</ele>
        <time>2024-09-11T09:01:18Z</time>
      </trkpt>
      <trkpt lat="44.81809" lon="4.04787">
        <ele>915.31</ele>
        <time>2024-09-11T09:01:27Z</time>
      </trkpt>
      <trkpt lat="44.81815" lon="4.04783">
        <ele>915.31</ele>
        <time>2024-09-11T09:01:35Z</time>
      </trkpt>
      <trkpt lat="44.81819" lon="4.04781">
        <ele>915.31</ele>
        <time>2024-09-11T09:01:40Z</time>
      </trkpt>
      <trkpt lat="44.81825" lon="4.04777">
        <ele>914.83</ele>
        <time>2024-09-11T09:01:49Z</time>
      </trkpt>
      <trkpt lat="44.81832" lon="4.0477">
        <ele>914.35</ele>
        <time>2024-09-11T09:02:00Z</time>
      </trkpt>
      <trkpt lat="44.81837" lon="4.04764">
        <ele>913.39</ele>
        <time>2024-09-11T09:02:08Z</time>
      </trkpt>
      <trkpt lat="44.81839" lon="4.04761">
        <ele>913.39</ele>
        <time>2024-09-11T09:02:15Z</time>
      </trkpt>
      <trkpt lat="44.81839" lon="4.0476">
        <ele>912.43</ele>
        <time>2024-09-11T09:02:21Z</time>
      </trkpt>
      <trkpt lat="44.81841" lon="4.04756">
        <ele>911.95</ele>
        <time>2024-09-11T09:02:28Z</time>
      </trkpt>
      <trkpt lat="44.81842" lon="4.04755">
        <ele>911.95</ele>
        <time>2024-09-11T09:02:39Z</time>
      </trkpt>
      <trkpt lat="44.81843" lon="4.04754">
        <ele>910.99</ele>
        <time>2024-09-11T09:02:50Z</time>
      </trkpt>
      <trkpt lat="44.81846" lon="4.04751">
        <ele>910.51</ele>
        <time>2024-09-11T09:02:53Z</time>
      </trkpt>
      <trkpt lat="44.8185" lon="4.04742">
        <ele>909.06</ele>
        <time>2024-09-11T09:02:59Z</time>
      </trkpt>
      <trkpt lat="44.81852" lon="4.0474">
        <ele>909.06</ele>
        <time>2024-09-11T09:03:01Z</time>
      </trkpt>
      <trkpt lat="44.81856" lon="4.04731">
        <ele>908.1</ele>
        <time>2024-09-11T09:03:09Z</time>
      </trkpt>
      <trkpt lat="44.81857" lon="4.04728">
        <ele>907.62</ele>
        <time>2024-09-11T09:03:16Z</time>
      </trkpt>
      <trkpt lat="44.81858" lon="4.04728">
        <ele>907.14</ele>
        <time>2024-09-11T09:03:25Z</time>
      </trkpt>
      <trkpt lat="44.81859" lon="4.04727">
        <ele>907.14</ele>
        <time>2024-09-11T09:03:34Z</time>
      </trkpt>
      <trkpt lat="44.81859" lon="4.04726">
        <ele>907.62</ele>
        <time>2024-09-11T09:03:48Z</time>
      </trkpt>
      <trkpt lat="44.8186" lon="4.04727">
        <ele>907.14</ele>
        <time>2024-09-11T09:03:57Z</time>
      </trkpt>
      <trkpt lat="44.81861" lon="4.04727">
        <ele>907.62</ele>
        <time>2024-09-11T09:04:09Z</time>
      </trkpt>
      <trkpt lat="44.81861" lon="4.04728">
        <ele>907.14</ele>
        <time>2024-09-11T09:04:24Z</time>
      </trkpt>
      <trkpt lat="44.81861" lon="4.04729">
        <ele>907.14</ele>
        <time>2024-09-11T09:04:36Z</time>
      </trkpt>
      <trkpt lat="44.81862" lon="4.04729">
        <ele>907.14</ele>
        <time>2024-09-11T09:04:50Z</time>
      </trkpt>
      <trkpt lat="44.81861" lon="4.04729">
        <ele>907.14</ele>
        <time>2024-09-11T09:04:59Z</time>
      </trkpt>
      <trkpt lat="44.81861" lon="4.04729">
        <ele>907.14</ele>
        <time>2024-09-11T09:05:13Z</time>
      </trkpt>
      <trkpt lat="44.81861" lon="4.04728">
        <ele>905.7</ele>
        <time>2024-09-11T09:05:27Z</time>
      </trkpt>
      <trkpt lat="44.81861" lon="4.04728">
        <ele>907.62</ele>
        <time>2024-09-11T09:05:37Z</time>
      </trkpt>
      <trkpt lat="44.81861" lon="4.04728">
        <ele>907.62</ele>
        <time>2024-09-11T09:05:45Z</time>
      </trkpt>
      <trkpt lat="44.81861" lon="4.04728">
        <ele>907.14</ele>
        <time>2024-09-11T09:06:01Z</time>
      </trkpt>
      <trkpt lat="44.81862" lon="4.04728">
        <ele>907.14</ele>
        <time>2024-09-11T09:06:15Z</time>
      </trkpt>
      <trkpt lat="44.81862" lon="4.04728">
        <ele>907.14</ele>
        <time>2024-09-11T09:06:30Z</time>
      </trkpt>
      <trkpt lat="44.81862" lon="4.04728">
        <ele>907.14</ele>
        <time>2024-09-11T09:06:46Z</time>
      </trkpt>
      <trkpt lat="44.81862" lon="4.04728">
        <ele>907.14</ele>
        <time>2024-09-11T09:06:55Z</time>
      </trkpt>
      <trkpt lat="44.81861" lon="4.04728">
        <ele>907.62</ele>
        <time>2024-09-11T09:07:04Z</time>
      </trkpt>
      <trkpt lat="44.81861" lon="4.04727">
        <ele>907.62</ele>
        <time>2024-09-11T09:07:12Z</time>
      </trkpt>
      <trkpt lat="44.8186" lon="4.04726">
        <ele>907.62</ele>
        <time>2024-09-11T09:07:14Z</time>
      </trkpt>
      <trkpt lat="44.81856" lon="4.04718">
        <ele>907.62</ele>
        <time>2024-09-11T09:07:22Z</time>
      </trkpt>
      <trkpt lat="44.81852" lon="4.04711">
        <ele>908.1</ele>
        <time>2024-09-11T09:07:29Z</time>
      </trkpt>
      <trkpt lat="44.8185" lon="4.0471">
        <ele>908.1</ele>
        <time>2024-09-11T09:07:39Z</time>
      </trkpt>
      <trkpt lat="44.8185" lon="4.04708">
        <ele>908.58</ele>
        <time>2024-09-11T09:07:47Z</time>
      </trkpt>
      <trkpt lat="44.81849" lon="4.04706">
        <ele>908.1</ele>
        <time>2024-09-11T09:08:00Z</time>
      </trkpt>
      <trkpt lat="44.81847" lon="4.04699">
        <ele>908.58</ele>
        <time>2024-09-11T09:08:07Z</time>
      </trkpt>
      <trkpt lat="44.81842" lon="4.04688">
        <ele>909.06</ele>
        <time>2024-09-11T09:08:15Z</time>
      </trkpt>
      <trkpt lat="44.81841" lon="4.04683">
        <ele>909.06</ele>
        <time>2024-09-11T09:08:23Z</time>
      </trkpt>
      <trkpt lat="44.81837" lon="4.04672">
        <ele>909.06</ele>
        <time>2024-09-11T09:08:30Z</time>
      </trkpt>
      <trkpt lat="44.81835" lon="4.04661">
        <ele>909.54</ele>
        <time>2024-09-11T09:08:37Z</time>
      </trkpt>
      <trkpt lat="44.81834" lon="4.04659">
        <ele>909.54</ele>
        <time>2024-09-11T09:08:39Z</time>
      </trkpt>
      <trkpt lat="44.81833" lon="4.04649">
        <ele>910.03</ele>
        <time>2024-09-11T09:08:47Z</time>
      </trkpt>
      <trkpt lat="44.81833" lon="4.04641">
        <ele>910.03</ele>
        <time>2024-09-11T09:08:54Z</time>
      </trkpt>
      <trkpt lat="44.81831" lon="4.04635">
        <ele>910.51</ele>
        <time>2024-09-11T09:09:01Z</time>
      </trkpt>
      <trkpt lat="44.8183" lon="4.04624">
        <ele>910.51</ele>
        <time>2024-09-11T09:09:09Z</time>
      </trkpt>
      <trkpt lat="44.8183" lon="4.04616">
        <ele>910.51</ele>
        <time>2024-09-11T09:09:17Z</time>
      </trkpt>
      <trkpt lat="44.8183" lon="4.04614">
        <ele>910.99</ele>
        <time>2024-09-11T09:09:27Z</time>
      </trkpt>
      <trkpt lat="44.81828" lon="4.04611">
        <ele>910.99</ele>
        <time>2024-09-11T09:09:44Z</time>
      </trkpt>
      <trkpt lat="44.81828" lon="4.04611">
        <ele>910.99</ele>
        <time>2024-09-11T09:09:52Z</time>
      </trkpt>
      <trkpt lat="44.81828" lon="4.04611">
        <ele>911.47</ele>
        <time>2024-09-11T09:09:59Z</time>
      </trkpt>
      <trkpt lat="44.81828" lon="4.04608">
        <ele>911.47</ele>
        <time>2024-09-11T09:10:05Z</time>
      </trkpt>
      <trkpt lat="44.81826" lon="4.04604">
        <ele>912.43</ele>
        <time>2024-09-11T09:10:13Z</time>
      </trkpt>
      <trkpt lat="44.81827" lon="4.046">
        <ele>913.39</ele>
        <time>2024-09-11T09:10:21Z</time>
      </trkpt>
      <trkpt lat="44.81827" lon="4.04593">
        <ele>914.35</ele>
        <time>2024-09-11T09:10:28Z</time>
      </trkpt>
      <trkpt lat="44.81827" lon="4.0459">
        <ele>915.79</ele>
        <time>2024-09-11T09:10:37Z</time>
      </trkpt>
      <trkpt lat="44.81826" lon="4.04586">
        <ele>917.24</ele>
        <time>2024-09-11T09:10:46Z</time>
      </trkpt>
      <trkpt lat="44.81824" lon="4.04585">
        <ele>918.2</ele>
        <time>2024-09-11T09:10:55Z</time>
      </trkpt>
      <trkpt lat="44.8182" lon="4.04589">
        <ele>919.64</ele>
        <time>2024-09-11T09:11:03Z</time>
      </trkpt>
      <trkpt lat="44.81817" lon="4.04593">
        <ele>919.64</ele>
        <time>2024-09-11T09:11:10Z</time>
      </trkpt>
      <trkpt lat="44.81815" lon="4.04595">
        <ele>920.12</ele>
        <time>2024-09-11T09:11:16Z</time>
      </trkpt>
      <trkpt lat="44.81813" lon="4.04602">
        <ele>920.6</ele>
        <time>2024-09-11T09:11:23Z</time>
      </trkpt>
      <trkpt lat="44.8181" lon="4.04608">
        <ele>921.08</ele>
        <time>2024-09-11T09:11:31Z</time>
      </trkpt>
      <trkpt lat="44.81804" lon="4.04616">
        <ele>921.56</ele>
        <time>2024-09-11T09:11:38Z</time>
      </trkpt>
      <trkpt lat="44.818" lon="4.04622">
        <ele>923</ele>
        <time>2024-09-11T09:11:47Z</time>
      </trkpt>
      <trkpt lat="44.81795" lon="4.04623">
        <ele>923.96</ele>
        <time>2024-09-11T09:11:56Z</time>
      </trkpt>
      <trkpt lat="44.81791" lon="4.04624">
        <ele>924.45</ele>
        <time>2024-09-11T09:12:03Z</time>
      </trkpt>
      <trkpt lat="44.81791" lon="4.0462">
        <ele>925.89</ele>
        <time>2024-09-11T09:12:13Z</time>
      </trkpt>
      <trkpt lat="44.81791" lon="4.04606">
        <ele>926.85</ele>
        <time>2024-09-11T09:12:22Z</time>
      </trkpt>
      <trkpt lat="44.8179" lon="4.04598">
        <ele>927.33</ele>
        <time>2024-09-11T09:12:28Z</time>
      </trkpt>
      <trkpt lat="44.81791" lon="4.0459">
        <ele>928.29</ele>
        <time>2024-09-11T09:12:37Z</time>
      </trkpt>
      <trkpt lat="44.81792" lon="4.04586">
        <ele>929.73</ele>
        <time>2024-09-11T09:12:47Z</time>
      </trkpt>
      <trkpt lat="44.81792" lon="4.04581">
        <ele>930.69</ele>
        <time>2024-09-11T09:12:53Z</time>
      </trkpt>
      <trkpt lat="44.81792" lon="4.04572">
        <ele>931.65</ele>
        <time>2024-09-11T09:13:02Z</time>
      </trkpt>
      <trkpt lat="44.81794" lon="4.0457">
        <ele>931.65</ele>
        <time>2024-09-11T09:13:12Z</time>
      </trkpt>
      <trkpt lat="44.81795" lon="4.04568">
        <ele>931.65</ele>
        <time>2024-09-11T09:13:20Z</time>
      </trkpt>
      <trkpt lat="44.81796" lon="4.04567">
        <ele>931.65</ele>
        <time>2024-09-11T09:13:33Z</time>
      </trkpt>
      <trkpt lat="44.81796" lon="4.04567">
        <ele>931.65</ele>
        <time>2024-09-11T09:13:44Z</time>
      </trkpt>
      <trkpt lat="44.81797" lon="4.04562">
        <ele>931.65</ele>
        <time>2024-09-11T09:13:55Z</time>
      </trkpt>
      <trkpt lat="44.81798" lon="4.04555">
        <ele>933.1</ele>
        <time>2024-09-11T09:14:05Z</time>
      </trkpt>
      <trkpt lat="44.818" lon="4.04548">
        <ele>934.54</ele>
        <time>2024-09-11T09:14:14Z</time>
      </trkpt>
      <trkpt lat="44.81803" lon="4.04537">
        <ele>935.5</ele>
        <time>2024-09-11T09:14:24Z</time>
      </trkpt>
      <trkpt lat="44.81805" lon="4.0453">
        <ele>936.46</ele>
        <time>2024-09-11T09:14:31Z</time>
      </trkpt>
      <trkpt lat="44.8181" lon="4.04521">
        <ele>936.94</ele>
        <time>2024-09-11T09:14:40Z</time>
      </trkpt>
      <trkpt lat="44.81811" lon="4.04513">
        <ele>937.9</ele>
        <time>2024-09-11T09:14:47Z</time>
      </trkpt>
      <trkpt lat="44.81811" lon="4.04508">
        <ele>937.9</ele>
        <time>2024-09-11T09:14:54Z</time>
      </trkpt>
      <trkpt lat="44.81811" lon="4.04501">
        <ele>938.86</ele>
        <time>2024-09-11T09:15:02Z</time>
      </trkpt>
      <trkpt lat="44.81809" lon="4.045">
        <ele>940.31</ele>
        <time>2024-09-11T09:15:09Z</time>
      </trkpt>
      <trkpt lat="44.81804" lon="4.04503">
        <ele>940.79</ele>
        <time>2024-09-11T09:15:17Z</time>
      </trkpt>
      <trkpt lat="44.81798" lon="4.04507">
        <ele>941.75</ele>
        <time>2024-09-11T09:15:25Z</time>
      </trkpt>
      <trkpt lat="44.81794" lon="4.04517">
        <ele>942.71</ele>
        <time>2024-09-11T09:15:34Z</time>
      </trkpt>
      <trkpt lat="44.8179" lon="4.04523">
        <ele>943.19</ele>
        <time>2024-09-11T09:15:41Z</time>
      </trkpt>
      <trkpt lat="44.81789" lon="4.04525">
        <ele>943.67</ele>
        <time>2024-09-11T09:15:45Z</time>
      </trkpt>
      <trkpt lat="44.81784" lon="4.04528">
        <ele>944.15</ele>
        <time>2024-09-11T09:15:52Z</time>
      </trkpt>
      <trkpt lat="44.81781" lon="4.04528">
        <ele>945.11</ele>
        <time>2024-09-11T09:16:00Z</time>
      </trkpt>
      <trkpt lat="44.8178" lon="4.04529">
        <ele>945.11</ele>
        <time>2024-09-11T09:16:13Z</time>
      </trkpt>
      <trkpt lat="44.81779" lon="4.0453">
        <ele>945.59</ele>
        <time>2024-09-11T09:16:20Z</time>
      </trkpt>
      <trkpt lat="44.81778" lon="4.04527">
        <ele>946.07</ele>
        <time>2024-09-11T09:16:37Z</time>
      </trkpt>
      <trkpt lat="44.81778" lon="4.04527">
        <ele>945.59</ele>
        <time>2024-09-11T09:16:52Z</time>
      </trkpt>
      <trkpt lat="44.81779" lon="4.04526">
        <ele>945.59</ele>
        <time>2024-09-11T09:17:03Z</time>
      </trkpt>
      <trkpt lat="44.81778" lon="4.04524">
        <ele>945.59</ele>
        <time>2024-09-11T09:17:20Z</time>
      </trkpt>
      <trkpt lat="44.81778" lon="4.04523">
        <ele>945.59</ele>
        <time>2024-09-11T09:17:36Z</time>
      </trkpt>
      <trkpt lat="44.81778" lon="4.04523">
        <ele>945.59</ele>
        <time>2024-09-11T09:17:51Z</time>
      </trkpt>
      <trkpt lat="44.81778" lon="4.04523">
        <ele>946.56</ele>
        <time>2024-09-11T09:18:01Z</time>
      </trkpt>
      <trkpt lat="44.81778" lon="4.04521">
        <ele>948</ele>
        <time>2024-09-11T09:18:12Z</time>
      </trkpt>
      <trkpt lat="44.81776" lon="4.04504">
        <ele>948.96</ele>
        <time>2024-09-11T09:18:21Z</time>
      </trkpt>
      <trkpt lat="44.81773" lon="4.04494">
        <ele>949.92</ele>
        <time>2024-09-11T09:18:30Z</time>
      </trkpt>
      <trkpt lat="44.81771" lon="4.04484">
        <ele>950.88</ele>
        <time>2024-09-11T09:18:38Z</time>
      </trkpt>
      <trkpt lat="44.81771" lon="4.04477">
        <ele>951.84</ele>
        <time>2024-09-11T09:18:45Z</time>
      </trkpt>
      <trkpt lat="44.8177" lon="4.04469">
        <ele>952.8</ele>
        <time>2024-09-11T09:18:54Z</time>
      </trkpt>
      <trkpt lat="44.81769" lon="4.04457">
        <ele>953.77</ele>
        <time>2024-09-11T09:19:04Z</time>
      </trkpt>
      <trkpt lat="44.81764" lon="4.0445">
        <ele>954.25</ele>
        <time>2024-09-11T09:19:12Z</time>
      </trkpt>
      <trkpt lat="44.81761" lon="4.0444">
        <ele>955.21</ele>
        <time>2024-09-11T09:19:21Z</time>
      </trkpt>
      <trkpt lat="44.8176" lon="4.04433">
        <ele>956.17</ele>
        <time>2024-09-11T09:19:29Z</time>
      </trkpt>
      <trkpt lat="44.8176" lon="4.04428">
        <ele>956.65</ele>
        <time>2024-09-11T09:19:36Z</time>
      </trkpt>
      <trkpt lat="44.81759" lon="4.0442">
        <ele>957.13</ele>
        <time>2024-09-11T09:19:45Z</time>
      </trkpt>
      <trkpt lat="44.81757" lon="4.04412">
        <ele>957.61</ele>
        <time>2024-09-11T09:19:53Z</time>
      </trkpt>
      <trkpt lat="44.81755" lon="4.04405">
        <ele>958.09</ele>
        <time>2024-09-11T09:20:01Z</time>
      </trkpt>
      <trkpt lat="44.81754" lon="4.04397">
        <ele>958.57</ele>
        <time>2024-09-11T09:20:09Z</time>
      </trkpt>
      <trkpt lat="44.8175" lon="4.04392">
        <ele>959.05</ele>
        <time>2024-09-11T09:20:16Z</time>
      </trkpt>
      <trkpt lat="44.81748" lon="4.04384">
        <ele>959.53</ele>
        <time>2024-09-11T09:20:24Z</time>
      </trkpt>
      <trkpt lat="44.81745" lon="4.04378">
        <ele>960.49</ele>
        <time>2024-09-11T09:20:32Z</time>
      </trkpt>
      <trkpt lat="44.81743" lon="4.04373">
        <ele>960.98</ele>
        <time>2024-09-11T09:20:39Z</time>
      </trkpt>
      <trkpt lat="44.81742" lon="4.04372">
        <ele>961.46</ele>
        <time>2024-09-11T09:20:49Z</time>
      </trkpt>
      <trkpt lat="44.81739" lon="4.04365">
        <ele>962.42</ele>
        <time>2024-09-11T09:20:57Z</time>
      </trkpt>
      <trkpt lat="44.81736" lon="4.04359">
        <ele>963.38</ele>
        <time>2024-09-11T09:21:05Z</time>
      </trkpt>
      <trkpt lat="44.81732" lon="4.04354">
        <ele>963.86</ele>
        <time>2024-09-11T09:21:13Z</time>
      </trkpt>
      <trkpt lat="44.81728" lon="4.04349">
        <ele>964.34</ele>
        <time>2024-09-11T09:21:21Z</time>
      </trkpt>
      <trkpt lat="44.81725" lon="4.04345">
        <ele>965.3</ele>
        <time>2024-09-11T09:21:28Z</time>
      </trkpt>
      <trkpt lat="44.81722" lon="4.0434">
        <ele>966.26</ele>
        <time>2024-09-11T09:21:38Z</time>
      </trkpt>
      <trkpt lat="44.81719" lon="4.04337">
        <ele>966.74</ele>
        <time>2024-09-11T09:21:45Z</time>
      </trkpt>
      <trkpt lat="44.81716" lon="4.04333">
        <ele>967.7</ele>
        <time>2024-09-11T09:21:53Z</time>
      </trkpt>
      <trkpt lat="44.81713" lon="4.04331">
        <ele>968.18</ele>
        <time>2024-09-11T09:22:00Z</time>
      </trkpt>
      <trkpt lat="44.81709" lon="4.04326">
        <ele>969.15</ele>
        <time>2024-09-11T09:22:08Z</time>
      </trkpt>
      <trkpt lat="44.81706" lon="4.04323">
        <ele>970.11</ele>
        <time>2024-09-11T09:22:15Z</time>
      </trkpt>
      <trkpt lat="44.81702" lon="4.04318">
        <ele>970.59</ele>
        <time>2024-09-11T09:22:22Z</time>
      </trkpt>
      <trkpt lat="44.81697" lon="4.04313">
        <ele>971.55</ele>
        <time>2024-09-11T09:22:32Z</time>
      </trkpt>
      <trkpt lat="44.81694" lon="4.04306">
        <ele>972.99</ele>
        <time>2024-09-11T09:22:42Z</time>
      </trkpt>
      <trkpt lat="44.81691" lon="4.04303">
        <ele>973.47</ele>
        <time>2024-09-11T09:22:50Z</time>
      </trkpt>
      <trkpt lat="44.81688" lon="4.04296">
        <ele>974.43</ele>
        <time>2024-09-11T09:22:59Z</time>
      </trkpt>
      <trkpt lat="44.81684" lon="4.0429">
        <ele>975.39</ele>
        <time>2024-09-11T09:23:09Z</time>
      </trkpt>
      <trkpt lat="44.81682" lon="4.04286">
        <ele>975.88</ele>
        <time>2024-09-11T09:23:16Z</time>
      </trkpt>
      <trkpt lat="44.81679" lon="4.04282">
        <ele>976.84</ele>
        <time>2024-09-11T09:23:23Z</time>
      </trkpt>
      <trkpt lat="44.81677" lon="4.0428">
        <ele>977.32</ele>
        <time>2024-09-11T09:23:29Z</time>
      </trkpt>
      <trkpt lat="44.81675" lon="4.04276">
        <ele>978.28</ele>
        <time>2024-09-11T09:23:37Z</time>
      </trkpt>
      <trkpt lat="44.81672" lon="4.04273">
        <ele>978.76</ele>
        <time>2024-09-11T09:23:45Z</time>
      </trkpt>
      <trkpt lat="44.81669" lon="4.04269">
        <ele>979.72</ele>
        <time>2024-09-11T09:23:53Z</time>
      </trkpt>
      <trkpt lat="44.81665" lon="4.04267">
        <ele>981.16</ele>
        <time>2024-09-11T09:24:01Z</time>
      </trkpt>
      <trkpt lat="44.81662" lon="4.04264">
        <ele>981.64</ele>
        <time>2024-09-11T09:24:08Z</time>
      </trkpt>
      <trkpt lat="44.81658" lon="4.04261">
        <ele>982.6</ele>
        <time>2024-09-11T09:24:15Z</time>
      </trkpt>
      <trkpt lat="44.81655" lon="4.04256">
        <ele>983.57</ele>
        <time>2024-09-11T09:24:23Z</time>
      </trkpt>
      <trkpt lat="44.81653" lon="4.04253">
        <ele>984.53</ele>
        <time>2024-09-11T09:24:32Z</time>
      </trkpt>
      <trkpt lat="44.81649" lon="4.04249">
        <ele>985.49</ele>
        <time>2024-09-11T09:24:40Z</time>
      </trkpt>
      <trkpt lat="44.81647" lon="4.04247">
        <ele>985.49</ele>
        <time>2024-09-11T09:24:47Z</time>
      </trkpt>
      <trkpt lat="44.81642" lon="4.04242">
        <ele>986.45</ele>
        <time>2024-09-11T09:24:56Z</time>
      </trkpt>
      <trkpt lat="44.81636" lon="4.04239">
        <ele>987.41</ele>
        <time>2024-09-11T09:25:04Z</time>
      </trkpt>
      <trkpt lat="44.81631" lon="4.04236">
        <ele>988.37</ele>
        <time>2024-09-11T09:25:14Z</time>
      </trkpt>
      <trkpt lat="44.81628" lon="4.04234">
        <ele>989.33</ele>
        <time>2024-09-11T09:25:21Z</time>
      </trkpt>
      <trkpt lat="44.81624" lon="4.0423">
        <ele>990.3</ele>
        <time>2024-09-11T09:25:29Z</time>
      </trkpt>
      <trkpt lat="44.81619" lon="4.04226">
        <ele>991.26</ele>
        <time>2024-09-11T09:25:38Z</time>
      </trkpt>
      <trkpt lat="44.81617" lon="4.04224">
        <ele>991.74</ele>
        <time>2024-09-11T09:25:44Z</time>
      </trkpt>
      <trkpt lat="44.81612" lon="4.0422">
        <ele>992.22</ele>
        <time>2024-09-11T09:25:53Z</time>
      </trkpt>
      <trkpt lat="44.81609" lon="4.04218">
        <ele>993.18</ele>
        <time>2024-09-11T09:26:03Z</time>
      </trkpt>
      <trkpt lat="44.81605" lon="4.04212">
        <ele>994.14</ele>
        <time>2024-09-11T09:26:10Z</time>
      </trkpt>
      <trkpt lat="44.81601" lon="4.04208">
        <ele>995.1</ele>
        <time>2024-09-11T09:26:17Z</time>
      </trkpt>
      <trkpt lat="44.816" lon="4.04205">
        <ele>996.06</ele>
        <time>2024-09-11T09:26:24Z</time>
      </trkpt>
      <trkpt lat="44.81598" lon="4.04202">
        <ele>997.02</ele>
        <time>2024-09-11T09:26:32Z</time>
      </trkpt>
      <trkpt lat="44.81597" lon="4.04199">
        <ele>997.99</ele>
        <time>2024-09-11T09:26:41Z</time>
      </trkpt>
      <trkpt lat="44.81592" lon="4.04194">
        <ele>998.95</ele>
        <time>2024-09-11T09:26:48Z</time>
      </trkpt>
      <trkpt lat="44.81588" lon="4.04194">
        <ele>999.43</ele>
        <time>2024-09-11T09:26:54Z</time>
      </trkpt>
      <trkpt lat="44.81586" lon="4.04193">
        <ele>1000.39</ele>
        <time>2024-09-11T09:27:03Z</time>
      </trkpt>
      <trkpt lat="44.81584" lon="4.04194">
        <ele>1001.35</ele>
        <time>2024-09-11T09:27:11Z</time>
      </trkpt>
      <trkpt lat="44.81578" lon="4.04197">
        <ele>1002.79</ele>
        <time>2024-09-11T09:27:21Z</time>
      </trkpt>
      <trkpt lat="44.81574" lon="4.04196">
        <ele>1003.75</ele>
        <time>2024-09-11T09:27:27Z</time>
      </trkpt>
      <trkpt lat="44.81571" lon="4.04196">
        <ele>1004.72</ele>
        <time>2024-09-11T09:27:34Z</time>
      </trkpt>
      <trkpt lat="44.81566" lon="4.04195">
        <ele>1005.68</ele>
        <time>2024-09-11T09:27:42Z</time>
      </trkpt>
      <trkpt lat="44.81563" lon="4.04195">
        <ele>1006.16</ele>
        <time>2024-09-11T09:27:45Z</time>
      </trkpt>
      <trkpt lat="44.81559" lon="4.04194">
        <ele>1007.12</ele>
        <time>2024-09-11T09:27:53Z</time>
      </trkpt>
      <trkpt lat="44.81555" lon="4.04192">
        <ele>1008.08</ele>
        <time>2024-09-11T09:28:00Z</time>
      </trkpt>
      <trkpt lat="44.81554" lon="4.04193">
        <ele>1008.56</ele>
        <time>2024-09-11T09:28:05Z</time>
      </trkpt>
      <trkpt lat="44.81553" lon="4.04194">
        <ele>1008.56</ele>
        <time>2024-09-11T09:28:14Z</time>
      </trkpt>
      <trkpt lat="44.81552" lon="4.04193">
        <ele>1008.56</ele>
        <time>2024-09-11T09:28:22Z</time>
      </trkpt>
      <trkpt lat="44.81552" lon="4.04193">
        <ele>1008.56</ele>
        <time>2024-09-11T09:28:34Z</time>
      </trkpt>
      <trkpt lat="44.81552" lon="4.04193">
        <ele>1008.08</ele>
        <time>2024-09-11T09:28:45Z</time>
      </trkpt>
      <trkpt lat="44.81552" lon="4.04193">
        <ele>1008.56</ele>
        <time>2024-09-11T09:28:58Z</time>
      </trkpt>
      <trkpt lat="44.81552" lon="4.04193">
        <ele>1008.08</ele>
        <time>2024-09-11T09:29:09Z</time>
      </trkpt>
      <trkpt lat="44.81552" lon="4.04193">
        <ele>1008.08</ele>
        <time>2024-09-11T09:29:27Z</time>
      </trkpt>
      <trkpt lat="44.81552" lon="4.04193">
        <ele>1008.56</ele>
        <time>2024-09-11T09:29:46Z</time>
      </trkpt>
      <trkpt lat="44.81552" lon="4.04193">
        <ele>1008.56</ele>
        <time>2024-09-11T09:29:54Z</time>
      </trkpt>
      <trkpt lat="44.81551" lon="4.04191">
        <ele>1008.56</ele>
        <time>2024-09-11T09:30:04Z</time>
      </trkpt>
      <trkpt lat="44.8155" lon="4.0419">
        <ele>1008.56</ele>
        <time>2024-09-11T09:30:05Z</time>
      </trkpt>
      <trkpt lat="44.81549" lon="4.04187">
        <ele>1008.56</ele>
        <time>2024-09-11T09:30:07Z</time>
      </trkpt>
      <trkpt lat="44.81547" lon="4.04183">
        <ele>1009.04</ele>
        <time>2024-09-11T09:30:11Z</time>
      </trkpt>
      <trkpt lat="44.81542" lon="4.04171">
        <ele>1009.04</ele>
        <time>2024-09-11T09:30:20Z</time>
      </trkpt>
      <trkpt lat="44.81538" lon="4.0416">
        <ele>1009.52</ele>
        <time>2024-09-11T09:30:31Z</time>
      </trkpt>
      <trkpt lat="44.81537" lon="4.04158">
        <ele>1009.52</ele>
        <time>2024-09-11T09:30:33Z</time>
      </trkpt>
      <trkpt lat="44.81533" lon="4.04147">
        <ele>1010</ele>
        <time>2024-09-11T09:30:43Z</time>
      </trkpt>
      <trkpt lat="44.81531" lon="4.0414">
        <ele>1010</ele>
        <time>2024-09-11T09:30:50Z</time>
      </trkpt>
      <trkpt lat="44.81527" lon="4.04134">
        <ele>1010.48</ele>
        <time>2024-09-11T09:30:58Z</time>
      </trkpt>
      <trkpt lat="44.81526" lon="4.04132">
        <ele>1010.48</ele>
        <time>2024-09-11T09:31:00Z</time>
      </trkpt>
      <trkpt lat="44.81522" lon="4.04124">
        <ele>1010.96</ele>
        <time>2024-09-11T09:31:09Z</time>
      </trkpt>
      <trkpt lat="44.81518" lon="4.04118">
        <ele>1011.44</ele>
        <time>2024-09-11T09:31:16Z</time>
      </trkpt>
      <trkpt lat="44.81514" lon="4.04112">
        <ele>1011.93</ele>
        <time>2024-09-11T09:31:23Z</time>
      </trkpt>
      <trkpt lat="44.8151" lon="4.04104">
        <ele>1012.41</ele>
        <time>2024-09-11T09:31:31Z</time>
      </trkpt>
      <trkpt lat="44.81506" lon="4.04097">
        <ele>1012.89</ele>
        <time>2024-09-11T09:31:39Z</time>
      </trkpt>
      <trkpt lat="44.81501" lon="4.04091">
        <ele>1013.85</ele>
        <time>2024-09-11T09:31:47Z</time>
      </trkpt>
      <trkpt lat="44.81496" lon="4.04084">
        <ele>1014.33</ele>
        <time>2024-09-11T09:31:54Z</time>
      </trkpt>
      <trkpt lat="44.81491" lon="4.04078">
        <ele>1015.29</ele>
        <time>2024-09-11T09:32:02Z</time>
      </trkpt>
      <trkpt lat="44.8149" lon="4.04075">
        <ele>1015.29</ele>
        <time>2024-09-11T09:32:05Z</time>
      </trkpt>
      <trkpt lat="44.81486" lon="4.04071">
        <ele>1015.77</ele>
        <time>2024-09-11T09:32:10Z</time>
      </trkpt>
      <trkpt lat="44.81481" lon="4.04063">
        <ele>1016.73</ele>
        <time>2024-09-11T09:32:18Z</time>
      </trkpt>
      <trkpt lat="44.81477" lon="4.04053">
        <ele>1017.21</ele>
        <time>2024-09-11T09:32:27Z</time>
      </trkpt>
      <trkpt lat="44.81475" lon="4.04044">
        <ele>1017.69</ele>
        <time>2024-09-11T09:32:34Z</time>
      </trkpt>
      <trkpt lat="44.81475" lon="4.04035">
        <ele>1018.17</ele>
        <time>2024-09-11T09:32:41Z</time>
      </trkpt>
      <trkpt lat="44.81474" lon="4.04032">
        <ele>1018.17</ele>
        <time>2024-09-11T09:32:43Z</time>
      </trkpt>
      <trkpt lat="44.81474" lon="4.04029">
        <ele>1018.65</ele>
        <time>2024-09-11T09:32:45Z</time>
      </trkpt>
      <trkpt lat="44.81473" lon="4.04018">
        <ele>1018.65</ele>
        <time>2024-09-11T09:32:53Z</time>
      </trkpt>
      <trkpt lat="44.81473" lon="4.04007">
        <ele>1019.13</ele>
        <time>2024-09-11T09:33:00Z</time>
      </trkpt>
      <trkpt lat="44.81473" lon="4.04004">
        <ele>1019.13</ele>
        <time>2024-09-11T09:33:03Z</time>
      </trkpt>
      <trkpt lat="44.81473" lon="4.03992">
        <ele>1020.1</ele>
        <time>2024-09-11T09:33:11Z</time>
      </trkpt>
      <trkpt lat="44.81472" lon="4.03981">
        <ele>1020.58</ele>
        <time>2024-09-11T09:33:21Z</time>
      </trkpt>
      <trkpt lat="44.8147" lon="4.0397">
        <ele>1021.06</ele>
        <time>2024-09-11T09:33:30Z</time>
      </trkpt>
      <trkpt lat="44.81466" lon="4.0396">
        <ele>1021.54</ele>
        <time>2024-09-11T09:33:38Z</time>
      </trkpt>
      <trkpt lat="44.81462" lon="4.03951">
        <ele>1022.02</ele>
        <time>2024-09-11T09:33:47Z</time>
      </trkpt>
      <trkpt lat="44.81454" lon="4.03945">
        <ele>1022.5</ele>
        <time>2024-09-11T09:33:57Z</time>
      </trkpt>
      <trkpt lat="44.8145" lon="4.03942">
        <ele>1022.5</ele>
        <time>2024-09-11T09:34:02Z</time>
      </trkpt>
      <trkpt lat="44.81442" lon="4.03932">
        <ele>1023.46</ele>
        <time>2024-09-11T09:34:12Z</time>
      </trkpt>
      <trkpt lat="44.81437" lon="4.03925">
        <ele>1023.94</ele>
        <time>2024-09-11T09:34:20Z</time>
      </trkpt>
      <trkpt lat="44.81432" lon="4.03916">
        <ele>1024.9</ele>
        <time>2024-09-11T09:34:28Z</time>
      </trkpt>
      <trkpt lat="44.8143" lon="4.03911">
        <ele>1024.9</ele>
        <time>2024-09-11T09:34:33Z</time>
      </trkpt>
      <trkpt lat="44.81427" lon="4.03906">
        <ele>1025.38</ele>
        <time>2024-09-11T09:34:38Z</time>
      </trkpt>
      <trkpt lat="44.81421" lon="4.03896">
        <ele>1025.38</ele>
        <time>2024-09-11T09:34:47Z</time>
      </trkpt>
      <trkpt lat="44.8142" lon="4.03895">
        <ele>1025.38</ele>
        <time>2024-09-11T09:34:49Z</time>
      </trkpt>
      <trkpt lat="44.81414" lon="4.03885">
        <ele>1025.86</ele>
        <time>2024-09-11T09:34:58Z</time>
      </trkpt>
      <trkpt lat="44.81409" lon="4.03877">
        <ele>1025.38</ele>
        <time>2024-09-11T09:35:04Z</time>
      </trkpt>
      <trkpt lat="44.81403" lon="4.03871">
        <ele>1024.9</ele>
        <time>2024-09-11T09:35:12Z</time>
      </trkpt>
      <trkpt lat="44.81398" lon="4.03866">
        <ele>1024.9</ele>
        <time>2024-09-11T09:35:21Z</time>
      </trkpt>
      <trkpt lat="44.81392" lon="4.03869">
        <ele>1023.94</ele>
        <time>2024-09-11T09:35:29Z</time>
      </trkpt>
      <trkpt lat="44.81387" lon="4.03872">
        <ele>1022.98</ele>
        <time>2024-09-11T09:35:38Z</time>
      </trkpt>
      <trkpt lat="44.81385" lon="4.03873">
        <ele>1022.98</ele>
        <time>2024-09-11T09:35:47Z</time>
      </trkpt>
      <trkpt lat="44.8138" lon="4.03877">
        <ele>1022.5</ele>
        <time>2024-09-11T09:35:54Z</time>
      </trkpt>
      <trkpt lat="44.81379" lon="4.03877">
        <ele>1022.02</ele>
        <time>2024-09-11T09:36:02Z</time>
      </trkpt>
      <trkpt lat="44.81373" lon="4.03881">
        <ele>1021.54</ele>
        <time>2024-09-11T09:36:10Z</time>
      </trkpt>
      <trkpt lat="44.81368" lon="4.0388">
        <ele>1021.54</ele>
        <time>2024-09-11T09:36:17Z</time>
      </trkpt>
      <trkpt lat="44.81366" lon="4.0388">
        <ele>1021.54</ele>
        <time>2024-09-11T09:36:23Z</time>
      </trkpt>
      <trkpt lat="44.81364" lon="4.03877">
        <ele>1021.54</ele>
        <time>2024-09-11T09:36:33Z</time>
      </trkpt>
      <trkpt lat="44.81362" lon="4.03872">
        <ele>1022.02</ele>
        <time>2024-09-11T09:36:37Z</time>
      </trkpt>
      <trkpt lat="44.8136" lon="4.03861">
        <ele>1022.5</ele>
        <time>2024-09-11T09:36:45Z</time>
      </trkpt>
      <trkpt lat="44.81355" lon="4.03852">
        <ele>1022.98</ele>
        <time>2024-09-11T09:36:53Z</time>
      </trkpt>
      <trkpt lat="44.81351" lon="4.0384">
        <ele>1023.46</ele>
        <time>2024-09-11T09:37:03Z</time>
      </trkpt>
      <trkpt lat="44.81348" lon="4.03837">
        <ele>1023.94</ele>
        <time>2024-09-11T09:37:07Z</time>
      </trkpt>
      <trkpt lat="44.81345" lon="4.0383">
        <ele>1023.94</ele>
        <time>2024-09-11T09:37:14Z</time>
      </trkpt>
      <trkpt lat="44.81341" lon="4.03824">
        <ele>1023.94</ele>
        <time>2024-09-11T09:37:20Z</time>
      </trkpt>
      <trkpt lat="44.81339" lon="4.03821">
        <ele>1023.46</ele>
        <time>2024-09-11T09:37:30Z</time>
      </trkpt>
      <trkpt lat="44.81336" lon="4.03817">
        <ele>1022.98</ele>
        <time>2024-09-11T09:37:37Z</time>
      </trkpt>
      <trkpt lat="44.81332" lon="4.03815">
        <ele>1022.5</ele>
        <time>2024-09-11T09:37:45Z</time>
      </trkpt>
      <trkpt lat="44.81332" lon="4.03815">
        <ele>1022.5</ele>
        <time>2024-09-11T09:37:53Z</time>
      </trkpt>
      <trkpt lat="44.81327" lon="4.03815">
        <ele>1022.02</ele>
        <time>2024-09-11T09:38:02Z</time>
      </trkpt>
      <trkpt lat="44.81327" lon="4.03814">
        <ele>1022.02</ele>
        <time>2024-09-11T09:38:16Z</time>
      </trkpt>
      <trkpt lat="44.81326" lon="4.03818">
        <ele>1021.54</ele>
        <time>2024-09-11T09:38:25Z</time>
      </trkpt>
      <trkpt lat="44.81326" lon="4.03818">
        <ele>1021.54</ele>
        <time>2024-09-11T09:38:38Z</time>
      </trkpt>
      <trkpt lat="44.81327" lon="4.03819">
        <ele>1021.54</ele>
        <time>2024-09-11T09:38:55Z</time>
      </trkpt>
      <trkpt lat="44.81327" lon="4.03819">
        <ele>1021.54</ele>
        <time>2024-09-11T09:39:14Z</time>
      </trkpt>
      <trkpt lat="44.81327" lon="4.03819">
        <ele>1021.54</ele>
        <time>2024-09-11T09:39:26Z</time>
      </trkpt>
      <trkpt lat="44.81327" lon="4.03817">
        <ele>1021.54</ele>
        <time>2024-09-11T09:39:34Z</time>
      </trkpt>
      <trkpt lat="44.81332" lon="4.03813">
        <ele>1022.02</ele>
        <time>2024-09-11T09:39:41Z</time>
      </trkpt>
      <trkpt lat="44.81338" lon="4.03817">
        <ele>1022.98</ele>
        <time>2024-09-11T09:39:49Z</time>
      </trkpt>
      <trkpt lat="44.81344" lon="4.03822">
        <ele>1023.94</ele>
        <time>2024-09-11T09:39:57Z</time>
      </trkpt>
      <trkpt lat="44.8135" lon="4.03831">
        <ele>1023.94</ele>
        <time>2024-09-11T09:40:06Z</time>
      </trkpt>
      <trkpt lat="44.81353" lon="4.03841">
        <ele>1023.94</ele>
        <time>2024-09-11T09:40:15Z</time>
      </trkpt>
      <trkpt lat="44.81357" lon="4.0385">
        <ele>1023.46</ele>
        <time>2024-09-11T09:40:22Z</time>
      </trkpt>
      <trkpt lat="44.8136" lon="4.0386">
        <ele>1022.5</ele>
        <time>2024-09-11T09:40:31Z</time>
      </trkpt>
      <trkpt lat="44.81365" lon="4.0387">
        <ele>1022.02</ele>
        <time>2024-09-11T09:40:40Z</time>
      </trkpt>
      <trkpt lat="44.81369" lon="4.03875">
        <ele>1021.54</ele>
        <time>2024-09-11T09:40:49Z</time>
      </trkpt>
      <trkpt lat="44.81374" lon="4.03876">
        <ele>1021.54</ele>
        <time>2024-09-11T09:40:56Z</time>
      </trkpt>
      <trkpt lat="44.8138" lon="4.03873">
        <ele>1022.5</ele>
        <time>2024-09-11T09:41:04Z</time>
      </trkpt>
      <trkpt lat="44.81382" lon="4.03871">
        <ele>1022.5</ele>
        <time>2024-09-11T09:41:07Z</time>
      </trkpt>
      <trkpt lat="44.81386" lon="4.03868">
        <ele>1023.46</ele>
        <time>2024-09-11T09:41:14Z</time>
      </trkpt>
      <trkpt lat="44.81393" lon="4.03864">
        <ele>1023.94</ele>
        <time>2024-09-11T09:41:22Z</time>
      </trkpt>
      <trkpt lat="44.81396" lon="4.03861">
        <ele>1024.9</ele>
        <time>2024-09-11T09:41:28Z</time>
      </trkpt>
      <trkpt lat="44.81404" lon="4.03866">
        <ele>1025.38</ele>
        <time>2024-09-11T09:41:37Z</time>
      </trkpt>
      <trkpt lat="44.81411" lon="4.03873">
        <ele>1025.86</ele>
        <time>2024-09-11T09:41:45Z</time>
      </trkpt>
      <trkpt lat="44.81413" lon="4.03876">
        <ele>1025.86</ele>
        <time>2024-09-11T09:41:48Z</time>
      </trkpt>
      <trkpt lat="44.81418" lon="4.03884">
        <ele>1026.34</ele>
        <time>2024-09-11T09:41:57Z</time>
      </trkpt>
      <trkpt lat="44.81419" lon="4.03886">
        <ele>1026.34</ele>
        <time>2024-09-11T09:42:06Z</time>
      </trkpt>
      <trkpt lat="44.8142" lon="4.0389">
        <ele>1026.34</ele>
        <time>2024-09-11T09:42:13Z</time>
      </trkpt>
      <trkpt lat="44.81421" lon="4.03891">
        <ele>1026.34</ele>
        <time>2024-09-11T09:42:22Z</time>
      </trkpt>
      <trkpt lat="44.81427" lon="4.03897">
        <ele>1026.34</ele>
        <time>2024-09-11T09:42:30Z</time>
      </trkpt>
      <trkpt lat="44.81432" lon="4.03901">
        <ele>1025.86</ele>
        <time>2024-09-11T09:42:38Z</time>
      </trkpt>
      <trkpt lat="44.81434" lon="4.039">
        <ele>1025.86</ele>
        <time>2024-09-11T09:42:41Z</time>
      </trkpt>
      <trkpt lat="44.81439" lon="4.03893">
        <ele>1026.83</ele>
        <time>2024-09-11T09:42:50Z</time>
      </trkpt>
      <trkpt lat="44.81445" lon="4.03888">
        <ele>1027.79</ele>
        <time>2024-09-11T09:43:00Z</time>
      </trkpt>
      <trkpt lat="44.81449" lon="4.03886">
        <ele>1028.75</ele>
        <time>2024-09-11T09:43:08Z</time>
      </trkpt>
      <trkpt lat="44.81455" lon="4.03884">
        <ele>1029.23</ele>
        <time>2024-09-11T09:43:16Z</time>
      </trkpt>
      <trkpt lat="44.81461" lon="4.03883">
        <ele>1029.71</ele>
        <time>2024-09-11T09:43:23Z</time>
      </trkpt>
      <trkpt lat="44.8147" lon="4.0388">
        <ele>1030.19</ele>
        <time>2024-09-11T09:43:32Z</time>
      </trkpt>
      <trkpt lat="44.81476" lon="4.03874">
        <ele>1031.15</ele>
        <time>2024-09-11T09:43:39Z</time>
      </trkpt>
      <trkpt lat="44.81477" lon="4.03874">
        <ele>1031.15</ele>
        <time>2024-09-11T09:43:40Z</time>
      </trkpt>
      <trkpt lat="44.81479" lon="4.03872">
        <ele>1031.15</ele>
        <time>2024-09-11T09:43:43Z</time>
      </trkpt>
      <trkpt lat="44.81488" lon="4.03868">
        <ele>1031.63</ele>
        <time>2024-09-11T09:43:53Z</time>
      </trkpt>
      <trkpt lat="44.81495" lon="4.03862">
        <ele>1032.59</ele>
        <time>2024-09-11T09:44:02Z</time>
      </trkpt>
      <trkpt lat="44.81501" lon="4.03858">
        <ele>1032.59</ele>
        <time>2024-09-11T09:44:09Z</time>
      </trkpt>
      <trkpt lat="44.81508" lon="4.03855">
        <ele>1032.59</ele>
        <time>2024-09-11T09:44:16Z</time>
      </trkpt>
      <trkpt lat="44.81515" lon="4.03851">
        <ele>1032.59</ele>
        <time>2024-09-11T09:44:24Z</time>
      </trkpt>
      <trkpt lat="44.8152" lon="4.03846">
        <ele>1033.07</ele>
        <time>2024-09-11T09:44:32Z</time>
      </trkpt>
      <trkpt lat="44.8152" lon="4.03845">
        <ele>1032.59</ele>
        <time>2024-09-11T09:44:33Z</time>
      </trkpt>
      <trkpt lat="44.81526" lon="4.03837">
        <ele>1033.07</ele>
        <time>2024-09-11T09:44:41Z</time>
      </trkpt>
      <trkpt lat="44.81531" lon="4.0383">
        <ele>1034.04</ele>
        <time>2024-09-11T09:44:49Z</time>
      </trkpt>
      <trkpt lat="44.81536" lon="4.03824">
        <ele>1033.55</ele>
        <time>2024-09-11T09:44:57Z</time>
      </trkpt>
      <trkpt lat="44.81537" lon="4.03824">
        <ele>1034.04</ele>
        <time>2024-09-11T09:45:06Z</time>
      </trkpt>
      <trkpt lat="44.8154" lon="4.03817">
        <ele>1034.04</ele>
        <time>2024-09-11T09:45:15Z</time>
      </trkpt>
      <trkpt lat="44.81544" lon="4.03809">
        <ele>1034.04</ele>
        <time>2024-09-11T09:45:22Z</time>
      </trkpt>
      <trkpt lat="44.81548" lon="4.038">
        <ele>1034.52</ele>
        <time>2024-09-11T09:45:30Z</time>
      </trkpt>
      <trkpt lat="44.8155" lon="4.0379">
        <ele>1035</ele>
        <time>2024-09-11T09:45:40Z</time>
      </trkpt>
      <trkpt lat="44.81553" lon="4.03781">
        <ele>1035.96</ele>
        <time>2024-09-11T09:45:48Z</time>
      </trkpt>
      <trkpt lat="44.81559" lon="4.03775">
        <ele>1035.96</ele>
        <time>2024-09-11T09:45:56Z</time>
      </trkpt>
      <trkpt lat="44.81564" lon="4.03769">
        <ele>1035.96</ele>
        <time>2024-09-11T09:46:05Z</time>
      </trkpt>
      <trkpt lat="44.8157" lon="4.03762">
        <ele>1035</ele>
        <time>2024-09-11T09:46:14Z</time>
      </trkpt>
      <trkpt lat="44.81575" lon="4.03755">
        <ele>1034.04</ele>
        <time>2024-09-11T09:46:21Z</time>
      </trkpt>
      <trkpt lat="44.81579" lon="4.03748">
        <ele>1033.55</ele>
        <time>2024-09-11T09:46:28Z</time>
      </trkpt>
      <trkpt lat="44.81585" lon="4.03739">
        <ele>1033.07</ele>
        <time>2024-09-11T09:46:37Z</time>
      </trkpt>
      <trkpt lat="44.81588" lon="4.03729">
        <ele>1033.07</ele>
        <time>2024-09-11T09:46:45Z</time>
      </trkpt>
      <trkpt lat="44.81588" lon="4.03726">
        <ele>1032.59</ele>
        <time>2024-09-11T09:46:52Z</time>
      </trkpt>
      <trkpt lat="44.81591" lon="4.03716">
        <ele>1032.59</ele>
        <time>2024-09-11T09:47:01Z</time>
      </trkpt>
      <trkpt lat="44.81593" lon="4.03707">
        <ele>1033.07</ele>
        <time>2024-09-11T09:47:08Z</time>
      </trkpt>
      <trkpt lat="44.81595" lon="4.03697">
        <ele>1032.59</ele>
        <time>2024-09-11T09:47:16Z</time>
      </trkpt>
      <trkpt lat="44.81595" lon="4.03688">
        <ele>1032.11</ele>
        <time>2024-09-11T09:47:23Z</time>
      </trkpt>
      <trkpt lat="44.81596" lon="4.03673">
        <ele>1031.63</ele>
        <time>2024-09-11T09:47:33Z</time>
      </trkpt>
      <trkpt lat="44.81596" lon="4.03668">
        <ele>1031.15</ele>
        <time>2024-09-11T09:47:37Z</time>
      </trkpt>
      <trkpt lat="44.81598" lon="4.03655">
        <ele>1030.67</ele>
        <time>2024-09-11T09:47:48Z</time>
      </trkpt>
      <trkpt lat="44.81602" lon="4.03644">
        <ele>1029.23</ele>
        <time>2024-09-11T09:47:57Z</time>
      </trkpt>
      <trkpt lat="44.81605" lon="4.03635">
        <ele>1027.79</ele>
        <time>2024-09-11T09:48:07Z</time>
      </trkpt>
      <trkpt lat="44.81608" lon="4.03626">
        <ele>1026.34</ele>
        <time>2024-09-11T09:48:16Z</time>
      </trkpt>
      <trkpt lat="44.81613" lon="4.03612">
        <ele>1025.86</ele>
        <time>2024-09-11T09:48:25Z</time>
      </trkpt>
      <trkpt lat="44.81617" lon="4.03598">
        <ele>1024.9</ele>
        <time>2024-09-11T09:48:37Z</time>
      </trkpt>
      <trkpt lat="44.8162" lon="4.03587">
        <ele>1023.46</ele>
        <time>2024-09-11T09:48:48Z</time>
      </trkpt>
      <trkpt lat="44.81622" lon="4.0358">
        <ele>1022.5</ele>
        <time>2024-09-11T09:48:57Z</time>
      </trkpt>
      <trkpt lat="44.81625" lon="4.03575">
        <ele>1021.54</ele>
        <time>2024-09-11T09:49:04Z</time>
      </trkpt>
      <trkpt lat="44.8163" lon="4.0357">
        <ele>1021.06</ele>
        <time>2024-09-11T09:49:13Z</time>
      </trkpt>
      <trkpt lat="44.81634" lon="4.03565">
        <ele>1021.06</ele>
        <time>2024-09-11T09:49:22Z</time>
      </trkpt>
      <trkpt lat="44.81638" lon="4.0356">
        <ele>1021.06</ele>
        <time>2024-09-11T09:49:30Z</time>
      </trkpt>
      <trkpt lat="44.81646" lon="4.0355">
        <ele>1021.54</ele>
        <time>2024-09-11T09:49:40Z</time>
      </trkpt>
      <trkpt lat="44.81651" lon="4.03546">
        <ele>1022.5</ele>
        <time>2024-09-11T09:49:48Z</time>
      </trkpt>
      <trkpt lat="44.81655" lon="4.03541">
        <ele>1023.46</ele>
        <time>2024-09-11T09:49:56Z</time>
      </trkpt>
      <trkpt lat="44.8166" lon="4.03534">
        <ele>1024.42</ele>
        <time>2024-09-11T09:50:04Z</time>
      </trkpt>
      <trkpt lat="44.81665" lon="4.03527">
        <ele>1024.9</ele>
        <time>2024-09-11T09:50:13Z</time>
      </trkpt>
      <trkpt lat="44.81669" lon="4.03522">
        <ele>1025.86</ele>
        <time>2024-09-11T09:50:21Z</time>
      </trkpt>
      <trkpt lat="44.81672" lon="4.03516">
        <ele>1026.34</ele>
        <time>2024-09-11T09:50:29Z</time>
      </trkpt>
      <trkpt lat="44.81672" lon="4.03515">
        <ele>1026.34</ele>
        <time>2024-09-11T09:50:30Z</time>
      </trkpt>
      <trkpt lat="44.81676" lon="4.03509">
        <ele>1027.31</ele>
        <time>2024-09-11T09:50:39Z</time>
      </trkpt>
      <trkpt lat="44.8168" lon="4.03504">
        <ele>1028.27</ele>
        <time>2024-09-11T09:50:48Z</time>
      </trkpt>
      <trkpt lat="44.81684" lon="4.03498">
        <ele>1028.75</ele>
        <time>2024-09-11T09:50:56Z</time>
      </trkpt>
      <trkpt lat="44.81691" lon="4.03493">
        <ele>1029.23</ele>
        <time>2024-09-11T09:51:05Z</time>
      </trkpt>
      <trkpt lat="44.81693" lon="4.0349">
        <ele>1030.19</ele>
        <time>2024-09-11T09:51:14Z</time>
      </trkpt>
      <trkpt lat="44.81697" lon="4.03485">
        <ele>1030.67</ele>
        <time>2024-09-11T09:51:22Z</time>
      </trkpt>
      <trkpt lat="44.81702" lon="4.0348">
        <ele>1031.15</ele>
        <time>2024-09-11T09:51:30Z</time>
      </trkpt>
      <trkpt lat="44.81708" lon="4.03474">
        <ele>1031.15</ele>
        <time>2024-09-11T09:51:39Z</time>
      </trkpt>
      <trkpt lat="44.81715" lon="4.03465">
        <ele>1032.11</ele>
        <time>2024-09-11T09:51:51Z</time>
      </trkpt>
      <trkpt lat="44.81717" lon="4.03463">
        <ele>1032.11</ele>
        <time>2024-09-11T09:52:02Z</time>
      </trkpt>
      <trkpt lat="44.81718" lon="4.03462">
        <ele>1032.11</ele>
        <time>2024-09-11T09:52:16Z</time>
      </trkpt>
      <trkpt lat="44.81718" lon="4.03462">
        <ele>1032.11</ele>
        <time>2024-09-11T09:52:31Z</time>
      </trkpt>
      <trkpt lat="44.81718" lon="4.03463">
        <ele>1032.11</ele>
        <time>2024-09-11T09:52:51Z</time>
      </trkpt>
      <trkpt lat="44.8172" lon="4.03464">
        <ele>1032.11</ele>
        <time>2024-09-11T09:53:10Z</time>
      </trkpt>
      <trkpt lat="44.81721" lon="4.03464">
        <ele>1031.63</ele>
        <time>2024-09-11T09:53:25Z</time>
      </trkpt>
      <trkpt lat="44.81724" lon="4.03458">
        <ele>1032.11</ele>
        <time>2024-09-11T09:53:33Z</time>
      </trkpt>
      <trkpt lat="44.8173" lon="4.03446">
        <ele>1031.63</ele>
        <time>2024-09-11T09:53:45Z</time>
      </trkpt>
      <trkpt lat="44.81733" lon="4.03435">
        <ele>1032.11</ele>
        <time>2024-09-11T09:53:56Z</time>
      </trkpt>
      <trkpt lat="44.81739" lon="4.03413">
        <ele>1033.07</ele>
        <time>2024-09-11T09:54:08Z</time>
      </trkpt>
      <trkpt lat="44.81742" lon="4.03405">
        <ele>1033.55</ele>
        <time>2024-09-11T09:54:16Z</time>
      </trkpt>
      <trkpt lat="44.81746" lon="4.03396">
        <ele>1034.52</ele>
        <time>2024-09-11T09:54:25Z</time>
      </trkpt>
      <trkpt lat="44.81746" lon="4.03386">
        <ele>1035</ele>
        <time>2024-09-11T09:54:35Z</time>
      </trkpt>
      <trkpt lat="44.81749" lon="4.03379">
        <ele>1035.96</ele>
        <time>2024-09-11T09:54:43Z</time>
      </trkpt>
      <trkpt lat="44.81752" lon="4.03366">
        <ele>1035.96</ele>
        <time>2024-09-11T09:54:53Z</time>
      </trkpt>
      <trkpt lat="44.81754" lon="4.0336">
        <ele>1035.96</ele>
        <time>2024-09-11T09:55:03Z</time>
      </trkpt>
      <trkpt lat="44.81758" lon="4.03352">
        <ele>1035.48</ele>
        <time>2024-09-11T09:55:14Z</time>
      </trkpt>
      <trkpt lat="44.81765" lon="4.03344">
        <ele>1035</ele>
        <time>2024-09-11T09:55:24Z</time>
      </trkpt>
      <trkpt lat="44.81769" lon="4.03339">
        <ele>1034.52</ele>
        <time>2024-09-11T09:55:34Z</time>
      </trkpt>
      <trkpt lat="44.81777" lon="4.03331">
        <ele>1034.04</ele>
        <time>2024-09-11T09:55:45Z</time>
      </trkpt>
      <trkpt lat="44.8179" lon="4.0332">
        <ele>1034.04</ele>
        <time>2024-09-11T09:55:53Z</time>
      </trkpt>
      <trkpt lat="44.81801" lon="4.03308">
        <ele>1033.55</ele>
        <time>2024-09-11T09:56:04Z</time>
      </trkpt>
      <trkpt lat="44.81809" lon="4.033">
        <ele>1033.55</ele>
        <time>2024-09-11T09:56:14Z</time>
      </trkpt>
      <trkpt lat="44.81819" lon="4.03291">
        <ele>1032.59</ele>
        <time>2024-09-11T09:56:27Z</time>
      </trkpt>
      <trkpt lat="44.81828" lon="4.0328">
        <ele>1031.63</ele>
        <time>2024-09-11T09:56:39Z</time>
      </trkpt>
      <trkpt lat="44.81837" lon="4.03269">
        <ele>1032.11</ele>
        <time>2024-09-11T09:56:49Z</time>
      </trkpt>
      <trkpt lat="44.81844" lon="4.03256">
        <ele>1032.59</ele>
        <time>2024-09-11T09:57:00Z</time>
      </trkpt>
      <trkpt lat="44.81846" lon="4.03248">
        <ele>1033.07</ele>
        <time>2024-09-11T09:57:09Z</time>
      </trkpt>
      <trkpt lat="44.81847" lon="4.0324">
        <ele>1033.55</ele>
        <time>2024-09-11T09:57:17Z</time>
      </trkpt>
      <trkpt lat="44.81851" lon="4.03231">
        <ele>1034.04</ele>
        <time>2024-09-11T09:57:27Z</time>
      </trkpt>
      <trkpt lat="44.81853" lon="4.03217">
        <ele>1035</ele>
        <time>2024-09-11T09:57:36Z</time>
      </trkpt>
      <trkpt lat="44.81856" lon="4.03208">
        <ele>1035.48</ele>
        <time>2024-09-11T09:57:45Z</time>
      </trkpt>
      <trkpt lat="44.81855" lon="4.03203">
        <ele>1035.96</ele>
        <time>2024-09-11T09:57:53Z</time>
      </trkpt>
      <trkpt lat="44.81855" lon="4.03199">
        <ele>1036.92</ele>
        <time>2024-09-11T09:58:01Z</time>
      </trkpt>
      <trkpt lat="44.81854" lon="4.03192">
        <ele>1037.88</ele>
        <time>2024-09-11T09:58:11Z</time>
      </trkpt>
      <trkpt lat="44.81851" lon="4.03181">
        <ele>1038.36</ele>
        <time>2024-09-11T09:58:20Z</time>
      </trkpt>
      <trkpt lat="44.81848" lon="4.03175">
        <ele>1039.32</ele>
        <time>2024-09-11T09:58:28Z</time>
      </trkpt>
      <trkpt lat="44.81847" lon="4.03166">
        <ele>1040.28</ele>
        <time>2024-09-11T09:58:37Z</time>
      </trkpt>
      <trkpt lat="44.81845" lon="4.03158">
        <ele>1041.25</ele>
        <time>2024-09-11T09:58:46Z</time>
      </trkpt>
      <trkpt lat="44.81843" lon="4.03153">
        <ele>1042.69</ele>
        <time>2024-09-11T09:58:56Z</time>
      </trkpt>
      <trkpt lat="44.81842" lon="4.03147">
        <ele>1043.65</ele>
        <time>2024-09-11T09:59:04Z</time>
      </trkpt>
      <trkpt lat="44.81841" lon="4.03142">
        <ele>1044.61</ele>
        <time>2024-09-11T09:59:13Z</time>
      </trkpt>
      <trkpt lat="44.81838" lon="4.03138">
        <ele>1045.57</ele>
        <time>2024-09-11T09:59:23Z</time>
      </trkpt>
      <trkpt lat="44.81832" lon="4.03131">
        <ele>1047.01</ele>
        <time>2024-09-11T09:59:33Z</time>
      </trkpt>
      <trkpt lat="44.81826" lon="4.03126">
        <ele>1047.97</ele>
        <time>2024-09-11T09:59:42Z</time>
      </trkpt>
      <trkpt lat="44.81821" lon="4.03123">
        <ele>1048.94</ele>
        <time>2024-09-11T09:59:52Z</time>
      </trkpt>
      <trkpt lat="44.81819" lon="4.03121">
        <ele>1049.9</ele>
        <time>2024-09-11T10:00:01Z</time>
      </trkpt>
      <trkpt lat="44.81816" lon="4.03121">
        <ele>1050.86</ele>
        <time>2024-09-11T10:00:09Z</time>
      </trkpt>
      <trkpt lat="44.81808" lon="4.03119">
        <ele>1051.82</ele>
        <time>2024-09-11T10:00:19Z</time>
      </trkpt>
      <trkpt lat="44.81804" lon="4.03116">
        <ele>1053.26</ele>
        <time>2024-09-11T10:00:29Z</time>
      </trkpt>
      <trkpt lat="44.81798" lon="4.03112">
        <ele>1054.7</ele>
        <time>2024-09-11T10:00:38Z</time>
      </trkpt>
      <trkpt lat="44.81794" lon="4.03111">
        <ele>1055.67</ele>
        <time>2024-09-11T10:00:47Z</time>
      </trkpt>
      <trkpt lat="44.8179" lon="4.03106">
        <ele>1056.63</ele>
        <time>2024-09-11T10:00:54Z</time>
      </trkpt>
      <trkpt lat="44.81784" lon="4.03098">
        <ele>1057.59</ele>
        <time>2024-09-11T10:01:03Z</time>
      </trkpt>
      <trkpt lat="44.8178" lon="4.03091">
        <ele>1058.55</ele>
        <time>2024-09-11T10:01:10Z</time>
      </trkpt>
      <trkpt lat="44.81777" lon="4.03087">
        <ele>1059.99</ele>
        <time>2024-09-11T10:01:17Z</time>
      </trkpt>
      <trkpt lat="44.81774" lon="4.03085">
        <ele>1060.95</ele>
        <time>2024-09-11T10:01:27Z</time>
      </trkpt>
      <trkpt lat="44.8177" lon="4.03079">
        <ele>1062.39</ele>
        <time>2024-09-11T10:01:36Z</time>
      </trkpt>
      <trkpt lat="44.81768" lon="4.03073">
        <ele>1062.39</ele>
        <time>2024-09-11T10:01:44Z</time>
      </trkpt>
      <trkpt lat="44.81769" lon="4.03072">
        <ele>1062.87</ele>
        <time>2024-09-11T10:01:56Z</time>
      </trkpt>
      <trkpt lat="44.8177" lon="4.03072">
        <ele>1062.39</ele>
        <time>2024-09-11T10:02:10Z</time>
      </trkpt>
      <trkpt lat="44.8177" lon="4.03072">
        <ele>1062.39</ele>
        <time>2024-09-11T10:02:22Z</time>
      </trkpt>
      <trkpt lat="44.81769" lon="4.03072">
        <ele>1062.39</ele>
        <time>2024-09-11T10:02:35Z</time>
      </trkpt>
      <trkpt lat="44.81769" lon="4.03071">
        <ele>1062.39</ele>
        <time>2024-09-11T10:02:45Z</time>
      </trkpt>
      <trkpt lat="44.8177" lon="4.03071">
        <ele>1062.39</ele>
        <time>2024-09-11T10:02:59Z</time>
      </trkpt>
      <trkpt lat="44.8177" lon="4.03071">
        <ele>1062.39</ele>
        <time>2024-09-11T10:03:13Z</time>
      </trkpt>
      <trkpt lat="44.81771" lon="4.03069">
        <ele>1062.39</ele>
        <time>2024-09-11T10:03:27Z</time>
      </trkpt>
      <trkpt lat="44.81772" lon="4.03066">
        <ele>1057.11</ele>
        <time>2024-09-11T10:03:43Z</time>
      </trkpt>
      <trkpt lat="44.81772" lon="4.03066">
        <ele>1065.76</ele>
        <time>2024-09-11T10:03:44Z</time>
      </trkpt>
      <trkpt lat="44.81772" lon="4.03066">
        <ele>1059.99</ele>
        <time>2024-09-11T10:03:45Z</time>
      </trkpt>
      <trkpt lat="44.81772" lon="4.03065">
        <ele>1064.32</ele>
        <time>2024-09-11T10:03:46Z</time>
      </trkpt>
      <trkpt lat="44.81773" lon="4.03065">
        <ele>1062.39</ele>
        <time>2024-09-11T10:03:58Z</time>
      </trkpt>
      <trkpt lat="44.81772" lon="4.03066">
        <ele>1062.39</ele>
        <time>2024-09-11T10:04:15Z</time>
      </trkpt>
      <trkpt lat="44.81772" lon="4.03066">
        <ele>1061.91</ele>
        <time>2024-09-11T10:04:26Z</time>
      </trkpt>
      <trkpt lat="44.81773" lon="4.03065">
        <ele>1061.91</ele>
        <time>2024-09-11T10:04:45Z</time>
      </trkpt>
      <trkpt lat="44.81773" lon="4.03065">
        <ele>1061.91</ele>
        <time>2024-09-11T10:04:58Z</time>
      </trkpt>
      <trkpt lat="44.81773" lon="4.03064">
        <ele>1061.91</ele>
        <time>2024-09-11T10:05:14Z</time>
      </trkpt>
      <trkpt lat="44.81773" lon="4.03064">
        <ele>1062.39</ele>
        <time>2024-09-11T10:05:30Z</time>
      </trkpt>
      <trkpt lat="44.81773" lon="4.03059">
        <ele>1061.43</ele>
        <time>2024-09-11T10:05:37Z</time>
      </trkpt>
      <trkpt lat="44.81772" lon="4.03049">
        <ele>1060.47</ele>
        <time>2024-09-11T10:05:45Z</time>
      </trkpt>
      <trkpt lat="44.81769" lon="4.03039">
        <ele>1059.51</ele>
        <time>2024-09-11T10:05:53Z</time>
      </trkpt>
      <trkpt lat="44.81769" lon="4.03026">
        <ele>1059.51</ele>
        <time>2024-09-11T10:06:02Z</time>
      </trkpt>
      <trkpt lat="44.81768" lon="4.03023">
        <ele>1059.51</ele>
        <time>2024-09-11T10:06:04Z</time>
      </trkpt>
      <trkpt lat="44.81767" lon="4.03014">
        <ele>1059.51</ele>
        <time>2024-09-11T10:06:12Z</time>
      </trkpt>
      <trkpt lat="44.81765" lon="4.03009">
        <ele>1059.51</ele>
        <time>2024-09-11T10:06:19Z</time>
      </trkpt>
      <trkpt lat="44.81764" lon="4.03007">
        <ele>1060.47</ele>
        <time>2024-09-11T10:06:27Z</time>
      </trkpt>
      <trkpt lat="44.81759" lon="4.02997">
        <ele>1060.47</ele>
        <time>2024-09-11T10:06:35Z</time>
      </trkpt>
      <trkpt lat="44.81756" lon="4.02987">
        <ele>1060.47</ele>
        <time>2024-09-11T10:06:43Z</time>
      </trkpt>
      <trkpt lat="44.81755" lon="4.02979">
        <ele>1060.47</ele>
        <time>2024-09-11T10:06:50Z</time>
      </trkpt>
      <trkpt lat="44.81758" lon="4.02966">
        <ele>1060.47</ele>
        <time>2024-09-11T10:06:59Z</time>
      </trkpt>
      <trkpt lat="44.81758" lon="4.02965">
        <ele>1060.47</ele>
        <time>2024-09-11T10:07:10Z</time>
      </trkpt>
      <trkpt lat="44.81768" lon="4.02961">
        <ele>1059.99</ele>
        <time>2024-09-11T10:07:19Z</time>
      </trkpt>
      <trkpt lat="44.8178" lon="4.02951">
        <ele>1059.51</ele>
        <time>2024-09-11T10:07:29Z</time>
      </trkpt>
      <trkpt lat="44.81786" lon="4.02952">
        <ele>1059.99</ele>
        <time>2024-09-11T10:07:38Z</time>
      </trkpt>
      <trkpt lat="44.8179" lon="4.02953">
        <ele>1059.99</ele>
        <time>2024-09-11T10:07:46Z</time>
      </trkpt>
      <trkpt lat="44.818" lon="4.02959">
        <ele>1060.95</ele>
        <time>2024-09-11T10:07:54Z</time>
      </trkpt>
      <trkpt lat="44.8181" lon="4.02964">
        <ele>1062.39</ele>
        <time>2024-09-11T10:08:04Z</time>
      </trkpt>
      <trkpt lat="44.81817" lon="4.02966">
        <ele>1063.84</ele>
        <time>2024-09-11T10:08:15Z</time>
      </trkpt>
      <trkpt lat="44.81831" lon="4.02961">
        <ele>1065.28</ele>
        <time>2024-09-11T10:08:27Z</time>
      </trkpt>
      <trkpt lat="44.81844" lon="4.02953">
        <ele>1067.2</ele>
        <time>2024-09-11T10:08:38Z</time>
      </trkpt>
      <trkpt lat="44.81852" lon="4.02954">
        <ele>1068.16</ele>
        <time>2024-09-11T10:08:48Z</time>
      </trkpt>
      <trkpt lat="44.81862" lon="4.02949">
        <ele>1068.16</ele>
        <time>2024-09-11T10:08:56Z</time>
      </trkpt>
      <trkpt lat="44.81873" lon="4.02945">
        <ele>1068.64</ele>
        <time>2024-09-11T10:09:08Z</time>
      </trkpt>
      <trkpt lat="44.81884" lon="4.02937">
        <ele>1068.16</ele>
        <time>2024-09-11T10:09:18Z</time>
      </trkpt>
      <trkpt lat="44.81893" lon="4.02932">
        <ele>1068.64</ele>
        <time>2024-09-11T10:09:28Z</time>
      </trkpt>
      <trkpt lat="44.81902" lon="4.02929">
        <ele>1068.16</ele>
        <time>2024-09-11T10:09:36Z</time>
      </trkpt>
      <trkpt lat="44.81903" lon="4.02929">
        <ele>1068.16</ele>
        <time>2024-09-11T10:09:37Z</time>
      </trkpt>
      <trkpt lat="44.81907" lon="4.02927">
        <ele>1068.16</ele>
        <time>2024-09-11T10:09:44Z</time>
      </trkpt>
      <trkpt lat="44.81916" lon="4.0292">
        <ele>1068.64</ele>
        <time>2024-09-11T10:09:53Z</time>
      </trkpt>
      <trkpt lat="44.81921" lon="4.02914">
        <ele>1070.08</ele>
        <time>2024-09-11T10:10:00Z</time>
      </trkpt>
      <trkpt lat="44.81923" lon="4.02912">
        <ele>1071.05</ele>
        <time>2024-09-11T10:10:08Z</time>
      </trkpt>
      <trkpt lat="44.81926" lon="4.02902">
        <ele>1072.49</ele>
        <time>2024-09-11T10:10:17Z</time>
      </trkpt>
      <trkpt lat="44.8193" lon="4.02895">
        <ele>1073.45</ele>
        <time>2024-09-11T10:10:26Z</time>
      </trkpt>
      <trkpt lat="44.81937" lon="4.02887">
        <ele>1073.93</ele>
        <time>2024-09-11T10:10:37Z</time>
      </trkpt>
      <trkpt lat="44.81943" lon="4.02876">
        <ele>1074.41</ele>
        <time>2024-09-11T10:10:47Z</time>
      </trkpt>
      <trkpt lat="44.81951" lon="4.02868">
        <ele>1074.89</ele>
        <time>2024-09-11T10:10:56Z</time>
      </trkpt>
      <trkpt lat="44.81957" lon="4.02861">
        <ele>1075.37</ele>
        <time>2024-09-11T10:11:06Z</time>
      </trkpt>
      <trkpt lat="44.81962" lon="4.02854">
        <ele>1075.37</ele>
        <time>2024-09-11T10:11:17Z</time>
      </trkpt>
      <trkpt lat="44.81966" lon="4.02847">
        <ele>1075.85</ele>
        <time>2024-09-11T10:11:27Z</time>
      </trkpt>
      <trkpt lat="44.81968" lon="4.02845">
        <ele>1075.85</ele>
        <time>2024-09-11T10:11:29Z</time>
      </trkpt>
      <trkpt lat="44.81976" lon="4.02834">
        <ele>1075.85</ele>
        <time>2024-09-11T10:11:38Z</time>
      </trkpt>
      <trkpt lat="44.81984" lon="4.02823">
        <ele>1076.33</ele>
        <time>2024-09-11T10:11:48Z</time>
      </trkpt>
      <trkpt lat="44.81995" lon="4.02812">
        <ele>1076.81</ele>
        <time>2024-09-11T10:11:58Z</time>
      </trkpt>
      <trkpt lat="44.82001" lon="4.02802">
        <ele>1077.29</ele>
        <time>2024-09-11T10:12:08Z</time>
      </trkpt>
      <trkpt lat="44.82005" lon="4.02796">
        <ele>1077.29</ele>
        <time>2024-09-11T10:12:19Z</time>
      </trkpt>
      <trkpt lat="44.82014" lon="4.02781">
        <ele>1077.29</ele>
        <time>2024-09-11T10:12:28Z</time>
      </trkpt>
      <trkpt lat="44.8202" lon="4.02773">
        <ele>1078.26</ele>
        <time>2024-09-11T10:12:36Z</time>
      </trkpt>
      <trkpt lat="44.82026" lon="4.02764">
        <ele>1078.26</ele>
        <time>2024-09-11T10:12:44Z</time>
      </trkpt>
      <trkpt lat="44.82034" lon="4.02752">
        <ele>1079.22</ele>
        <time>2024-09-11T10:12:55Z</time>
      </trkpt>
      <trkpt lat="44.82039" lon="4.02743">
        <ele>1079.22</ele>
        <time>2024-09-11T10:13:04Z</time>
      </trkpt>
      <trkpt lat="44.82044" lon="4.02734">
        <ele>1079.7</ele>
        <time>2024-09-11T10:13:12Z</time>
      </trkpt>
      <trkpt lat="44.82046" lon="4.02727">
        <ele>1080.18</ele>
        <time>2024-09-11T10:13:20Z</time>
      </trkpt>
      <trkpt lat="44.82049" lon="4.02714">
        <ele>1080.18</ele>
        <time>2024-09-11T10:13:31Z</time>
      </trkpt>
      <trkpt lat="44.82052" lon="4.02709">
        <ele>1080.66</ele>
        <time>2024-09-11T10:13:39Z</time>
      </trkpt>
      <trkpt lat="44.82055" lon="4.027">
        <ele>1080.66</ele>
        <time>2024-09-11T10:13:48Z</time>
      </trkpt>
      <trkpt lat="44.82057" lon="4.0269">
        <ele>1080.66</ele>
        <time>2024-09-11T10:13:56Z</time>
      </trkpt>
      <trkpt lat="44.82056" lon="4.0268">
        <ele>1081.14</ele>
        <time>2024-09-11T10:14:04Z</time>
      </trkpt>
      <trkpt lat="44.82057" lon="4.02669">
        <ele>1081.62</ele>
        <time>2024-09-11T10:14:12Z</time>
      </trkpt>
      <trkpt lat="44.82057" lon="4.02663">
        <ele>1081.62</ele>
        <time>2024-09-11T10:14:20Z</time>
      </trkpt>
      <trkpt lat="44.82055" lon="4.02661">
        <ele>1081.62</ele>
        <time>2024-09-11T10:14:29Z</time>
      </trkpt>
      <trkpt lat="44.82053" lon="4.02654">
        <ele>1080.66</ele>
        <time>2024-09-11T10:14:39Z</time>
      </trkpt>
      <trkpt lat="44.8205" lon="4.02645">
        <ele>1079.22</ele>
        <time>2024-09-11T10:14:48Z</time>
      </trkpt>
      <trkpt lat="44.82048" lon="4.02631">
        <ele>1077.78</ele>
        <time>2024-09-11T10:14:58Z</time>
      </trkpt>
      <trkpt lat="44.82042" lon="4.02621">
        <ele>1076.33</ele>
        <time>2024-09-11T10:15:07Z</time>
      </trkpt>
      <trkpt lat="44.82034" lon="4.02615">
        <ele>1075.37</ele>
        <time>2024-09-11T10:15:15Z</time>
      </trkpt>
      <trkpt lat="44.82032" lon="4.02602">
        <ele>1074.89</ele>
        <time>2024-09-11T10:15:24Z</time>
      </trkpt>
      <trkpt lat="44.82027" lon="4.02595">
        <ele>1073.45</ele>
        <time>2024-09-11T10:15:33Z</time>
      </trkpt>
      <trkpt lat="44.82023" lon="4.02589">
        <ele>1072.97</ele>
        <time>2024-09-11T10:15:40Z</time>
      </trkpt>
      <trkpt lat="44.82021" lon="4.0258">
        <ele>1072.49</ele>
        <time>2024-09-11T10:15:47Z</time>
      </trkpt>
      <trkpt lat="44.82016" lon="4.02573">
        <ele>1072.01</ele>
        <time>2024-09-11T10:15:55Z</time>
      </trkpt>
      <trkpt lat="44.82012" lon="4.02562">
        <ele>1071.05</ele>
        <time>2024-09-11T10:16:02Z</time>
      </trkpt>
      <trkpt lat="44.82009" lon="4.02552">
        <ele>1071.05</ele>
        <time>2024-09-11T10:16:09Z</time>
      </trkpt>
      <trkpt lat="44.82009" lon="4.02545">
        <ele>1071.05</ele>
        <time>2024-09-11T10:16:13Z</time>
      </trkpt>
      <trkpt lat="44.82008" lon="4.02532">
        <ele>1070.57</ele>
        <time>2024-09-11T10:16:20Z</time>
      </trkpt>
      <trkpt lat="44.82006" lon="4.02521">
        <ele>1070.57</ele>
        <time>2024-09-11T10:16:28Z</time>
      </trkpt>
      <trkpt lat="44.82001" lon="4.02512">
        <ele>1071.05</ele>
        <time>2024-09-11T10:16:35Z</time>
      </trkpt>
      <trkpt lat="44.81997" lon="4.02507">
        <ele>1071.53</ele>
        <time>2024-09-11T10:16:40Z</time>
      </trkpt>
      <trkpt lat="44.81993" lon="4.02503">
        <ele>1071.05</ele>
        <time>2024-09-11T10:16:44Z</time>
      </trkpt>
      <trkpt lat="44.81991" lon="4.02491">
        <ele>1071.53</ele>
        <time>2024-09-11T10:16:52Z</time>
      </trkpt>
      <trkpt lat="44.81987" lon="4.02481">
        <ele>1071.53</ele>
        <time>2024-09-11T10:16:59Z</time>
      </trkpt>
      <trkpt lat="44.81987" lon="4.0248">
        <ele>1072.01</ele>
        <time>2024-09-11T10:17:00Z</time>
      </trkpt>
      <trkpt lat="44.81983" lon="4.02471">
        <ele>1072.49</ele>
        <time>2024-09-11T10:17:07Z</time>
      </trkpt>
      <trkpt lat="44.81982" lon="4.02462">
        <ele>1072.97</ele>
        <time>2024-09-11T10:17:14Z</time>
      </trkpt>
      <trkpt lat="44.81976" lon="4.02455">
        <ele>1072.97</ele>
        <time>2024-09-11T10:17:22Z</time>
      </trkpt>
      <trkpt lat="44.81973" lon="4.02449">
        <ele>1073.93</ele>
        <time>2024-09-11T10:17:29Z</time>
      </trkpt>
      <trkpt lat="44.81971" lon="4.02443">
        <ele>1073.93</ele>
        <time>2024-09-11T10:17:34Z</time>
      </trkpt>
      <trkpt lat="44.81966" lon="4.02434">
        <ele>1074.89</ele>
        <time>2024-09-11T10:17:42Z</time>
      </trkpt>
      <trkpt lat="44.81961" lon="4.02427">
        <ele>1075.37</ele>
        <time>2024-09-11T10:17:49Z</time>
      </trkpt>
      <trkpt lat="44.81958" lon="4.02419">
        <ele>1075.37</ele>
        <time>2024-09-11T10:17:56Z</time>
      </trkpt>
      <trkpt lat="44.81955" lon="4.02412">
        <ele>1075.85</ele>
        <time>2024-09-11T10:18:03Z</time>
      </trkpt>
      <trkpt lat="44.81953" lon="4.02404">
        <ele>1076.33</ele>
        <time>2024-09-11T10:18:09Z</time>
      </trkpt>
      <trkpt lat="44.81952" lon="4.024">
        <ele>1076.81</ele>
        <time>2024-09-11T10:18:12Z</time>
      </trkpt>
      <trkpt lat="44.81951" lon="4.02395">
        <ele>1076.81</ele>
        <time>2024-09-11T10:18:16Z</time>
      </trkpt>
      <trkpt lat="44.81948" lon="4.02385">
        <ele>1077.29</ele>
        <time>2024-09-11T10:18:24Z</time>
      </trkpt>
      <trkpt lat="44.81947" lon="4.02378">
        <ele>1077.29</ele>
        <time>2024-09-11T10:18:30Z</time>
      </trkpt>
      <trkpt lat="44.81945" lon="4.02367">
        <ele>1078.26</ele>
        <time>2024-09-11T10:18:39Z</time>
      </trkpt>
      <trkpt lat="44.81944" lon="4.02366">
        <ele>1078.26</ele>
        <time>2024-09-11T10:18:41Z</time>
      </trkpt>
      <trkpt lat="44.81941" lon="4.02358">
        <ele>1078.26</ele>
        <time>2024-09-11T10:18:48Z</time>
      </trkpt>
      <trkpt lat="44.81938" lon="4.02352">
        <ele>1079.22</ele>
        <time>2024-09-11T10:18:56Z</time>
      </trkpt>
      <trkpt lat="44.81936" lon="4.02347">
        <ele>1079.7</ele>
        <time>2024-09-11T10:19:05Z</time>
      </trkpt>
      <trkpt lat="44.81933" lon="4.02339">
        <ele>1080.18</ele>
        <time>2024-09-11T10:19:15Z</time>
      </trkpt>
      <trkpt lat="44.8193" lon="4.02333">
        <ele>1081.14</ele>
        <time>2024-09-11T10:19:26Z</time>
      </trkpt>
      <trkpt lat="44.81929" lon="4.02331">
        <ele>1082.1</ele>
        <time>2024-09-11T10:19:36Z</time>
      </trkpt>
      <trkpt lat="44.81925" lon="4.02326">
        <ele>1083.06</ele>
        <time>2024-09-11T10:19:42Z</time>
      </trkpt>
      <trkpt lat="44.81915" lon="4.02317">
        <ele>1083.54</ele>
        <time>2024-09-11T10:19:50Z</time>
      </trkpt>
      <trkpt lat="44.81912" lon="4.02308">
        <ele>1084.99</ele>
        <time>2024-09-11T10:19:58Z</time>
      </trkpt>
      <trkpt lat="44.81906" lon="4.023">
        <ele>1085.95</ele>
        <time>2024-09-11T10:20:08Z</time>
      </trkpt>
      <trkpt lat="44.81905" lon="4.02294">
        <ele>1086.91</ele>
        <time>2024-09-11T10:20:16Z</time>
      </trkpt>
      <trkpt lat="44.81902" lon="4.02284">
        <ele>1087.87</ele>
        <time>2024-09-11T10:20:25Z</time>
      </trkpt>
      <trkpt lat="44.81898" lon="4.02276">
        <ele>1089.31</ele>
        <time>2024-09-11T10:20:34Z</time>
      </trkpt>
      <trkpt lat="44.81897" lon="4.02267">
        <ele>1090.27</ele>
        <time>2024-09-11T10:20:42Z</time>
      </trkpt>
      <trkpt lat="44.81896" lon="4.0226">
        <ele>1091.71</ele>
        <time>2024-09-11T10:20:53Z</time>
      </trkpt>
      <trkpt lat="44.81891" lon="4.02255">
        <ele>1093.16</ele>
        <time>2024-09-11T10:21:03Z</time>
      </trkpt>
      <trkpt lat="44.81889" lon="4.02247">
        <ele>1094.12</ele>
        <time>2024-09-11T10:21:12Z</time>
      </trkpt>
      <trkpt lat="44.81885" lon="4.02241">
        <ele>1095.08</ele>
        <time>2024-09-11T10:21:20Z</time>
      </trkpt>
      <trkpt lat="44.81881" lon="4.02239">
        <ele>1096.04</ele>
        <time>2024-09-11T10:21:28Z</time>
      </trkpt>
      <trkpt lat="44.81878" lon="4.02237">
        <ele>1097</ele>
        <time>2024-09-11T10:21:35Z</time>
      </trkpt>
      <trkpt lat="44.81875" lon="4.02233">
        <ele>1097.96</ele>
        <time>2024-09-11T10:21:43Z</time>
      </trkpt>
      <trkpt lat="44.81864" lon="4.02229">
        <ele>1098.92</ele>
        <time>2024-09-11T10:21:53Z</time>
      </trkpt>
      <trkpt lat="44.81861" lon="4.02225">
        <ele>1099.89</ele>
        <time>2024-09-11T10:22:00Z</time>
      </trkpt>
      <trkpt lat="44.81861" lon="4.02217">
        <ele>1101.33</ele>
        <time>2024-09-11T10:22:10Z</time>
      </trkpt>
      <trkpt lat="44.81858" lon="4.02211">
        <ele>1101.81</ele>
        <time>2024-09-11T10:22:17Z</time>
      </trkpt>
      <trkpt lat="44.81856" lon="4.02208">
        <ele>1102.77</ele>
        <time>2024-09-11T10:22:26Z</time>
      </trkpt>
      <trkpt lat="44.81851" lon="4.02203">
        <ele>1103.73</ele>
        <time>2024-09-11T10:22:34Z</time>
      </trkpt>
      <trkpt lat="44.8185" lon="4.02197">
        <ele>1104.21</ele>
        <time>2024-09-11T10:22:41Z</time>
      </trkpt>
      <trkpt lat="44.8185" lon="4.02195">
        <ele>1104.21</ele>
        <time>2024-09-11T10:22:54Z</time>
      </trkpt>
      <trkpt lat="44.8185" lon="4.02194">
        <ele>1104.69</ele>
        <time>2024-09-11T10:23:02Z</time>
      </trkpt>
      <trkpt lat="44.8185" lon="4.02194">
        <ele>1104.69</ele>
        <time>2024-09-11T10:23:11Z</time>
      </trkpt>
      <trkpt lat="44.81848" lon="4.02195">
        <ele>1104.21</ele>
        <time>2024-09-11T10:23:24Z</time>
      </trkpt>
      <trkpt lat="44.81841" lon="4.02198">
        <ele>1104.21</ele>
        <time>2024-09-11T10:23:34Z</time>
      </trkpt>
      <trkpt lat="44.8184" lon="4.02198">
        <ele>1104.21</ele>
        <time>2024-09-11T10:23:47Z</time>
      </trkpt>
      <trkpt lat="44.81839" lon="4.02196">
        <ele>1103.73</ele>
        <time>2024-09-11T10:23:56Z</time>
      </trkpt>
      <trkpt lat="44.81833" lon="4.02193">
        <ele>1103.25</ele>
        <time>2024-09-11T10:24:06Z</time>
      </trkpt>
      <trkpt lat="44.81829" lon="4.02192">
        <ele>1102.77</ele>
        <time>2024-09-11T10:24:16Z</time>
      </trkpt>
      <trkpt lat="44.81827" lon="4.02191">
        <ele>1102.29</ele>
        <time>2024-09-11T10:24:26Z</time>
      </trkpt>
      <trkpt lat="44.81825" lon="4.0219">
        <ele>1102.29</ele>
        <time>2024-09-11T10:24:41Z</time>
      </trkpt>
      <trkpt lat="44.81824" lon="4.02189">
        <ele>1102.29</ele>
        <time>2024-09-11T10:24:58Z</time>
      </trkpt>
      <trkpt lat="44.81822" lon="4.02187">
        <ele>1102.29</ele>
        <time>2024-09-11T10:25:15Z</time>
      </trkpt>
      <trkpt lat="44.81822" lon="4.02187">
        <ele>1102.29</ele>
        <time>2024-09-11T10:25:29Z</time>
      </trkpt>
      <trkpt lat="44.8182" lon="4.02188">
        <ele>1102.29</ele>
        <time>2024-09-11T10:25:41Z</time>
      </trkpt>
      <trkpt lat="44.81821" lon="4.02186">
        <ele>1102.29</ele>
        <time>2024-09-11T10:25:49Z</time>
      </trkpt>
      <trkpt lat="44.8182" lon="4.02184">
        <ele>1102.29</ele>
        <time>2024-09-11T10:25:57Z</time>
      </trkpt>
      <trkpt lat="44.81819" lon="4.02183">
        <ele>1101.81</ele>
        <time>2024-09-11T10:26:07Z</time>
      </trkpt>
      <trkpt lat="44.81817" lon="4.02185">
        <ele>1102.29</ele>
        <time>2024-09-11T10:26:15Z</time>
      </trkpt>
      <trkpt lat="44.81819" lon="4.02186">
        <ele>1102.29</ele>
        <time>2024-09-11T10:26:24Z</time>
      </trkpt>
      <trkpt lat="44.81818" lon="4.02186">
        <ele>1101.33</ele>
        <time>2024-09-11T10:26:33Z</time>
      </trkpt>
      <trkpt lat="44.81819" lon="4.02187">
        <ele>1101.33</ele>
        <time>2024-09-11T10:26:49Z</time>
      </trkpt>
      <trkpt lat="44.8182" lon="4.02186">
        <ele>1100.85</ele>
        <time>2024-09-11T10:27:05Z</time>
      </trkpt>
      <trkpt lat="44.81819" lon="4.02185">
        <ele>1100.85</ele>
        <time>2024-09-11T10:27:17Z</time>
      </trkpt>
      <trkpt lat="44.81818" lon="4.02185">
        <ele>1101.33</ele>
        <time>2024-09-11T10:27:30Z</time>
      </trkpt>
      <trkpt lat="44.81818" lon="4.02185">
        <ele>1100.85</ele>
        <time>2024-09-11T10:27:50Z</time>
      </trkpt>
      <trkpt lat="44.81817" lon="4.02187">
        <ele>1101.33</ele>
        <time>2024-09-11T10:28:09Z</time>
      </trkpt>
      <trkpt lat="44.81816" lon="4.02187">
        <ele>1101.33</ele>
        <time>2024-09-11T10:28:26Z</time>
      </trkpt>
      <trkpt lat="44.81816" lon="4.02187">
        <ele>1101.33</ele>
        <time>2024-09-11T10:28:46Z</time>
      </trkpt>
      <trkpt lat="44.81816" lon="4.02186">
        <ele>1101.33</ele>
        <time>2024-09-11T10:29:03Z</time>
      </trkpt>
      <trkpt lat="44.81816" lon="4.02187">
        <ele>1101.33</ele>
        <time>2024-09-11T10:29:22Z</time>
      </trkpt>
      <trkpt lat="44.81816" lon="4.02187">
        <ele>1101.33</ele>
        <time>2024-09-11T10:29:39Z</time>
      </trkpt>
      <trkpt lat="44.81815" lon="4.02187">
        <ele>1101.33</ele>
        <time>2024-09-11T10:29:56Z</time>
      </trkpt>
      <trkpt lat="44.81815" lon="4.02186">
        <ele>1101.33</ele>
        <time>2024-09-11T10:30:12Z</time>
      </trkpt>
      <trkpt lat="44.81815" lon="4.02185">
        <ele>1101.81</ele>
        <time>2024-09-11T10:30:35Z</time>
      </trkpt>
      <trkpt lat="44.81814" lon="4.02186">
        <ele>1102.29</ele>
        <time>2024-09-11T10:30:54Z</time>
      </trkpt>
      <trkpt lat="44.81815" lon="4.02185">
        <ele>1102.29</ele>
        <time>2024-09-11T10:31:17Z</time>
      </trkpt>
      <trkpt lat="44.81815" lon="4.02186">
        <ele>1102.29</ele>
        <time>2024-09-11T10:31:38Z</time>
      </trkpt>
      <trkpt lat="44.81815" lon="4.02186">
        <ele>1102.29</ele>
        <time>2024-09-11T10:32:02Z</time>
      </trkpt>
      <trkpt lat="44.81815" lon="4.02185">
        <ele>1102.77</ele>
        <time>2024-09-11T10:32:22Z</time>
      </trkpt>
      <trkpt lat="44.81815" lon="4.02185">
        <ele>1102.77</ele>
        <time>2024-09-11T10:32:43Z</time>
      </trkpt>
      <trkpt lat="44.81815" lon="4.02184">
        <ele>1102.77</ele>
        <time>2024-09-11T10:33:01Z</time>
      </trkpt>
      <trkpt lat="44.81815" lon="4.02184">
        <ele>1102.29</ele>
        <time>2024-09-11T10:33:16Z</time>
      </trkpt>
      <trkpt lat="44.81815" lon="4.02184">
        <ele>1102.77</ele>
        <time>2024-09-11T10:33:34Z</time>
      </trkpt>
      <trkpt lat="44.81815" lon="4.02184">
        <ele>1103.25</ele>
        <time>2024-09-11T10:33:52Z</time>
      </trkpt>
      <trkpt lat="44.81816" lon="4.02184">
        <ele>1103.25</ele>
        <time>2024-09-11T10:34:05Z</time>
      </trkpt>
      <trkpt lat="44.81815" lon="4.02184">
        <ele>1103.25</ele>
        <time>2024-09-11T10:34:18Z</time>
      </trkpt>
      <trkpt lat="44.81815" lon="4.02184">
        <ele>1103.25</ele>
        <time>2024-09-11T10:34:36Z</time>
      </trkpt>
      <trkpt lat="44.81816" lon="4.02183">
        <ele>1103.25</ele>
        <time>2024-09-11T10:34:58Z</time>
      </trkpt>
      <trkpt lat="44.81816" lon="4.02183">
        <ele>1103.25</ele>
        <time>2024-09-11T10:35:17Z</time>
      </trkpt>
      <trkpt lat="44.81816" lon="4.02183">
        <ele>1103.25</ele>
        <time>2024-09-11T10:35:32Z</time>
      </trkpt>
      <trkpt lat="44.81817" lon="4.02182">
        <ele>1103.25</ele>
        <time>2024-09-11T10:35:49Z</time>
      </trkpt>
      <trkpt lat="44.81817" lon="4.02182">
        <ele>1103.25</ele>
        <time>2024-09-11T10:36:07Z</time>
      </trkpt>
      <trkpt lat="44.81818" lon="4.02182">
        <ele>1103.25</ele>
        <time>2024-09-11T10:36:28Z</time>
      </trkpt>
      <trkpt lat="44.81818" lon="4.02182">
        <ele>1103.25</ele>
        <time>2024-09-11T10:36:44Z</time>
      </trkpt>
      <trkpt lat="44.81819" lon="4.02182">
        <ele>1103.25</ele>
        <time>2024-09-11T10:37:03Z</time>
      </trkpt>
      <trkpt lat="44.81819" lon="4.02182">
        <ele>1103.25</ele>
        <time>2024-09-11T10:37:21Z</time>
      </trkpt>
      <trkpt lat="44.81818" lon="4.02181">
        <ele>1103.25</ele>
        <time>2024-09-11T10:37:42Z</time>
      </trkpt>
      <trkpt lat="44.81818" lon="4.0218">
        <ele>1103.25</ele>
        <time>2024-09-11T10:37:52Z</time>
      </trkpt>
      <trkpt lat="44.81818" lon="4.02181">
        <ele>1103.25</ele>
        <time>2024-09-11T10:38:09Z</time>
      </trkpt>
      <trkpt lat="44.81818" lon="4.0218">
        <ele>1103.25</ele>
        <time>2024-09-11T10:38:30Z</time>
      </trkpt>
      <trkpt lat="44.81819" lon="4.02179">
        <ele>1103.73</ele>
        <time>2024-09-11T10:38:49Z</time>
      </trkpt>
      <trkpt lat="44.81819" lon="4.02178">
        <ele>1103.73</ele>
        <time>2024-09-11T10:39:06Z</time>
      </trkpt>
      <trkpt lat="44.81819" lon="4.02178">
        <ele>1103.73</ele>
        <time>2024-09-11T10:39:26Z</time>
      </trkpt>
      <trkpt lat="44.8182" lon="4.02177">
        <ele>1103.73</ele>
        <time>2024-09-11T10:39:45Z</time>
      </trkpt>
      <trkpt lat="44.8182" lon="4.02177">
        <ele>1104.21</ele>
        <time>2024-09-11T10:40:01Z</time>
      </trkpt>
      <trkpt lat="44.81821" lon="4.02176">
        <ele>1104.21</ele>
        <time>2024-09-11T10:40:17Z</time>
      </trkpt>
      <trkpt lat="44.81821" lon="4.02176">
        <ele>1104.21</ele>
        <time>2024-09-11T10:40:34Z</time>
      </trkpt>
      <trkpt lat="44.81821" lon="4.02176">
        <ele>1104.21</ele>
        <time>2024-09-11T10:40:50Z</time>
      </trkpt>
      <trkpt lat="44.81822" lon="4.02176">
        <ele>1104.21</ele>
        <time>2024-09-11T10:41:02Z</time>
      </trkpt>
      <trkpt lat="44.81822" lon="4.02176">
        <ele>1104.21</ele>
        <time>2024-09-11T10:41:15Z</time>
      </trkpt>
      <trkpt lat="44.81822" lon="4.02175">
        <ele>1104.21</ele>
        <time>2024-09-11T10:41:32Z</time>
      </trkpt>
      <trkpt lat="44.81822" lon="4.02175">
        <ele>1104.21</ele>
        <time>2024-09-11T10:41:51Z</time>
      </trkpt>
      <trkpt lat="44.81822" lon="4.02175">
        <ele>1104.21</ele>
        <time>2024-09-11T10:42:09Z</time>
      </trkpt>
      <trkpt lat="44.81822" lon="4.02175">
        <ele>1104.21</ele>
        <time>2024-09-11T10:42:27Z</time>
      </trkpt>
      <trkpt lat="44.81822" lon="4.02175">
        <ele>1104.21</ele>
        <time>2024-09-11T10:42:47Z</time>
      </trkpt>
      <trkpt lat="44.81822" lon="4.02175">
        <ele>1104.21</ele>
        <time>2024-09-11T10:43:03Z</time>
      </trkpt>
      <trkpt lat="44.81822" lon="4.02176">
        <ele>1104.21</ele>
        <time>2024-09-11T10:43:15Z</time>
      </trkpt>
      <trkpt lat="44.81822" lon="4.02176">
        <ele>1104.69</ele>
        <time>2024-09-11T10:43:28Z</time>
      </trkpt>
      <trkpt lat="44.81822" lon="4.02176">
        <ele>1104.69</ele>
        <time>2024-09-11T10:43:45Z</time>
      </trkpt>
      <trkpt lat="44.81822" lon="4.02177">
        <ele>1104.69</ele>
        <time>2024-09-11T10:44:06Z</time>
      </trkpt>
      <trkpt lat="44.81822" lon="4.02177">
        <ele>1104.69</ele>
        <time>2024-09-11T10:44:25Z</time>
      </trkpt>
      <trkpt lat="44.81823" lon="4.02178">
        <ele>1104.69</ele>
        <time>2024-09-11T10:44:45Z</time>
      </trkpt>
      <trkpt lat="44.81822" lon="4.02178">
        <ele>1104.69</ele>
        <time>2024-09-11T10:45:11Z</time>
      </trkpt>
      <trkpt lat="44.81822" lon="4.02178">
        <ele>1104.69</ele>
        <time>2024-09-11T10:45:29Z</time>
      </trkpt>
      <trkpt lat="44.81823" lon="4.02179">
        <ele>1104.69</ele>
        <time>2024-09-11T10:45:45Z</time>
      </trkpt>
      <trkpt lat="44.81823" lon="4.02179">
        <ele>1104.69</ele>
        <time>2024-09-11T10:46:01Z</time>
      </trkpt>
      <trkpt lat="44.81823" lon="4.02179">
        <ele>1104.21</ele>
        <time>2024-09-11T10:46:19Z</time>
      </trkpt>
      <trkpt lat="44.81823" lon="4.0218">
        <ele>1104.69</ele>
        <time>2024-09-11T10:46:38Z</time>
      </trkpt>
      <trkpt lat="44.81823" lon="4.02181">
        <ele>1105.17</ele>
        <time>2024-09-11T10:46:53Z</time>
      </trkpt>
      <trkpt lat="44.81823" lon="4.02181">
        <ele>1104.69</ele>
        <time>2024-09-11T10:47:05Z</time>
      </trkpt>
      <trkpt lat="44.81824" lon="4.02181">
        <ele>1105.17</ele>
        <time>2024-09-11T10:47:21Z</time>
      </trkpt>
      <trkpt lat="44.81824" lon="4.02181">
        <ele>1104.69</ele>
        <time>2024-09-11T10:47:38Z</time>
      </trkpt>
      <trkpt lat="44.81824" lon="4.02181">
        <ele>1104.69</ele>
        <time>2024-09-11T10:47:54Z</time>
      </trkpt>
      <trkpt lat="44.81824" lon="4.02181">
        <ele>1104.69</ele>
        <time>2024-09-11T10:48:11Z</time>
      </trkpt>
      <trkpt lat="44.81824" lon="4.02181">
        <ele>1104.21</ele>
        <time>2024-09-11T10:48:28Z</time>
      </trkpt>
      <trkpt lat="44.81824" lon="4.02181">
        <ele>1104.69</ele>
        <time>2024-09-11T10:48:45Z</time>
      </trkpt>
      <trkpt lat="44.81825" lon="4.02181">
        <ele>1104.69</ele>
        <time>2024-09-11T10:49:00Z</time>
      </trkpt>
      <trkpt lat="44.81825" lon="4.02181">
        <ele>1104.69</ele>
        <time>2024-09-11T10:49:12Z</time>
      </trkpt>
      <trkpt lat="44.81825" lon="4.0218">
        <ele>1104.69</ele>
        <time>2024-09-11T10:49:28Z</time>
      </trkpt>
      <trkpt lat="44.81825" lon="4.02181">
        <ele>1105.17</ele>
        <time>2024-09-11T10:49:43Z</time>
      </trkpt>
      <trkpt lat="44.81825" lon="4.0218">
        <ele>1104.69</ele>
        <time>2024-09-11T10:50:00Z</time>
      </trkpt>
      <trkpt lat="44.81825" lon="4.0218">
        <ele>1104.69</ele>
        <time>2024-09-11T10:50:18Z</time>
      </trkpt>
      <trkpt lat="44.81825" lon="4.02181">
        <ele>1104.69</ele>
        <time>2024-09-11T10:50:35Z</time>
      </trkpt>
      <trkpt lat="44.81825" lon="4.02181">
        <ele>1105.17</ele>
        <time>2024-09-11T10:50:55Z</time>
      </trkpt>
      <trkpt lat="44.81824" lon="4.02182">
        <ele>1105.65</ele>
        <time>2024-09-11T10:51:14Z</time>
      </trkpt>
      <trkpt lat="44.81824" lon="4.02182">
        <ele>1105.17</ele>
        <time>2024-09-11T10:51:31Z</time>
      </trkpt>
      <trkpt lat="44.81824" lon="4.02182">
        <ele>1105.17</ele>
        <time>2024-09-11T10:51:52Z</time>
      </trkpt>
      <trkpt lat="44.81824" lon="4.02182">
        <ele>1105.65</ele>
        <time>2024-09-11T10:52:08Z</time>
      </trkpt>
      <trkpt lat="44.81824" lon="4.02182">
        <ele>1105.65</ele>
        <time>2024-09-11T10:52:27Z</time>
      </trkpt>
      <trkpt lat="44.81824" lon="4.02182">
        <ele>1105.17</ele>
        <time>2024-09-11T10:52:44Z</time>
      </trkpt>
      <trkpt lat="44.81825" lon="4.02183">
        <ele>1105.17</ele>
        <time>2024-09-11T10:53:02Z</time>
      </trkpt>
      <trkpt lat="44.81825" lon="4.02183">
        <ele>1105.65</ele>
        <time>2024-09-11T10:53:20Z</time>
      </trkpt>
      <trkpt lat="44.81825" lon="4.02183">
        <ele>1105.65</ele>
        <time>2024-09-11T10:53:39Z</time>
      </trkpt>
      <trkpt lat="44.81824" lon="4.02183">
        <ele>1105.65</ele>
        <time>2024-09-11T10:53:58Z</time>
      </trkpt>
      <trkpt lat="44.81824" lon="4.02183">
        <ele>1105.65</ele>
        <time>2024-09-11T10:54:21Z</time>
      </trkpt>
      <trkpt lat="44.81824" lon="4.02183">
        <ele>1105.65</ele>
        <time>2024-09-11T10:54:41Z</time>
      </trkpt>
      <trkpt lat="44.81823" lon="4.02183">
        <ele>1105.65</ele>
        <time>2024-09-11T10:54:59Z</time>
      </trkpt>
      <trkpt lat="44.81823" lon="4.02184">
        <ele>1105.65</ele>
        <time>2024-09-11T10:55:13Z</time>
      </trkpt>
      <trkpt lat="44.81824" lon="4.02184">
        <ele>1105.65</ele>
        <time>2024-09-11T10:55:29Z</time>
      </trkpt>
      <trkpt lat="44.81824" lon="4.02183">
        <ele>1105.65</ele>
        <time>2024-09-11T10:55:50Z</time>
      </trkpt>
      <trkpt lat="44.81824" lon="4.02183">
        <ele>1105.65</ele>
        <time>2024-09-11T10:56:06Z</time>
      </trkpt>
      <trkpt lat="44.81823" lon="4.02183">
        <ele>1105.17</ele>
        <time>2024-09-11T10:56:23Z</time>
      </trkpt>
      <trkpt lat="44.81823" lon="4.02183">
        <ele>1105.17</ele>
        <time>2024-09-11T10:56:42Z</time>
      </trkpt>
      <trkpt lat="44.81823" lon="4.02183">
        <ele>1105.17</ele>
        <time>2024-09-11T10:56:57Z</time>
      </trkpt>
      <trkpt lat="44.81823" lon="4.02183">
        <ele>1105.65</ele>
        <time>2024-09-11T10:57:12Z</time>
      </trkpt>
      <trkpt lat="44.81824" lon="4.02182">
        <ele>1105.65</ele>
        <time>2024-09-11T10:57:30Z</time>
      </trkpt>
      <trkpt lat="44.81824" lon="4.02182">
        <ele>1105.17</ele>
        <time>2024-09-11T10:57:47Z</time>
      </trkpt>
      <trkpt lat="44.81824" lon="4.02181">
        <ele>1105.17</ele>
        <time>2024-09-11T10:58:01Z</time>
      </trkpt>
      <trkpt lat="44.81823" lon="4.02182">
        <ele>1105.65</ele>
        <time>2024-09-11T10:58:20Z</time>
      </trkpt>
      <trkpt lat="44.81822" lon="4.02183">
        <ele>1105.17</ele>
        <time>2024-09-11T10:58:38Z</time>
      </trkpt>
      <trkpt lat="44.81822" lon="4.02183">
        <ele>1105.17</ele>
        <time>2024-09-11T10:58:53Z</time>
      </trkpt>
      <trkpt lat="44.81822" lon="4.02182">
        <ele>1105.17</ele>
        <time>2024-09-11T10:59:11Z</time>
      </trkpt>
      <trkpt lat="44.81822" lon="4.02182">
        <ele>1105.17</ele>
        <time>2024-09-11T10:59:26Z</time>
      </trkpt>
      <trkpt lat="44.81821" lon="4.02182">
        <ele>1105.17</ele>
        <time>2024-09-11T10:59:44Z</time>
      </trkpt>
      <trkpt lat="44.81821" lon="4.02181">
        <ele>1104.69</ele>
        <time>2024-09-11T11:00:00Z</time>
      </trkpt>
      <trkpt lat="44.81821" lon="4.02181">
        <ele>1105.17</ele>
        <time>2024-09-11T11:00:14Z</time>
      </trkpt>
      <trkpt lat="44.81821" lon="4.02181">
        <ele>1101.81</ele>
        <time>2024-09-11T11:00:18Z</time>
      </trkpt>
      <trkpt lat="44.81821" lon="4.02181">
        <ele>1108.54</ele>
        <time>2024-09-11T11:00:19Z</time>
      </trkpt>
      <trkpt lat="44.81821" lon="4.02181">
        <ele>1105.17</ele>
        <time>2024-09-11T11:00:21Z</time>
      </trkpt>
      <trkpt lat="44.81821" lon="4.02182">
        <ele>1105.65</ele>
        <time>2024-09-11T11:00:34Z</time>
      </trkpt>
      <trkpt lat="44.81822" lon="4.02184">
        <ele>1105.65</ele>
        <time>2024-09-11T11:00:45Z</time>
      </trkpt>
      <trkpt lat="44.81823" lon="4.02184">
        <ele>1106.13</ele>
        <time>2024-09-11T11:01:01Z</time>
      </trkpt>
      <trkpt lat="44.81823" lon="4.02186">
        <ele>1106.61</ele>
        <time>2024-09-11T11:01:15Z</time>
      </trkpt>
      <trkpt lat="44.81823" lon="4.02186">
        <ele>1105.65</ele>
        <time>2024-09-11T11:01:29Z</time>
      </trkpt>
      <trkpt lat="44.81822" lon="4.02186">
        <ele>1106.13</ele>
        <time>2024-09-11T11:01:47Z</time>
      </trkpt>
      <trkpt lat="44.81821" lon="4.02187">
        <ele>1105.65</ele>
        <time>2024-09-11T11:02:02Z</time>
      </trkpt>
      <trkpt lat="44.81821" lon="4.02187">
        <ele>1105.65</ele>
        <time>2024-09-11T11:02:19Z</time>
      </trkpt>
      <trkpt lat="44.81821" lon="4.02187">
        <ele>1105.65</ele>
        <time>2024-09-11T11:02:33Z</time>
      </trkpt>
      <trkpt lat="44.8182" lon="4.02188">
        <ele>1105.65</ele>
        <time>2024-09-11T11:02:47Z</time>
      </trkpt>
      <trkpt lat="44.81821" lon="4.02188">
        <ele>1105.65</ele>
        <time>2024-09-11T11:02:58Z</time>
      </trkpt>
      <trkpt lat="44.8182" lon="4.02188">
        <ele>1105.65</ele>
        <time>2024-09-11T11:03:18Z</time>
      </trkpt>
      <trkpt lat="44.8182" lon="4.02189">
        <ele>1105.17</ele>
        <time>2024-09-11T11:03:31Z</time>
      </trkpt>
      <trkpt lat="44.81821" lon="4.02189">
        <ele>1105.65</ele>
        <time>2024-09-11T11:03:49Z</time>
      </trkpt>
      <trkpt lat="44.81821" lon="4.02189">
        <ele>1106.13</ele>
        <time>2024-09-11T11:04:06Z</time>
      </trkpt>
      <trkpt lat="44.8182" lon="4.02189">
        <ele>1105.65</ele>
        <time>2024-09-11T11:04:18Z</time>
      </trkpt>
      <trkpt lat="44.8182" lon="4.02189">
        <ele>1105.65</ele>
        <time>2024-09-11T11:04:35Z</time>
      </trkpt>
      <trkpt lat="44.8182" lon="4.0219">
        <ele>1105.17</ele>
        <time>2024-09-11T11:04:54Z</time>
      </trkpt>
      <trkpt lat="44.81819" lon="4.02189">
        <ele>1105.65</ele>
        <time>2024-09-11T11:05:09Z</time>
      </trkpt>
      <trkpt lat="44.81819" lon="4.02189">
        <ele>1105.17</ele>
        <time>2024-09-11T11:05:26Z</time>
      </trkpt>
      <trkpt lat="44.81819" lon="4.02189">
        <ele>1105.17</ele>
        <time>2024-09-11T11:05:40Z</time>
      </trkpt>
      <trkpt lat="44.81819" lon="4.02189">
        <ele>1104.69</ele>
        <time>2024-09-11T11:05:52Z</time>
      </trkpt>
      <trkpt lat="44.81819" lon="4.0219">
        <ele>1104.69</ele>
        <time>2024-09-11T11:06:07Z</time>
      </trkpt>
      <trkpt lat="44.81818" lon="4.0219">
        <ele>1105.65</ele>
        <time>2024-09-11T11:06:18Z</time>
      </trkpt>
      <trkpt lat="44.81818" lon="4.0219">
        <ele>1104.69</ele>
        <time>2024-09-11T11:06:30Z</time>
      </trkpt>
      <trkpt lat="44.81818" lon="4.0219">
        <ele>1106.13</ele>
        <time>2024-09-11T11:06:46Z</time>
      </trkpt>
      <trkpt lat="44.81818" lon="4.0219">
        <ele>1105.17</ele>
        <time>2024-09-11T11:07:00Z</time>
      </trkpt>
      <trkpt lat="44.81818" lon="4.0219">
        <ele>1105.65</ele>
        <time>2024-09-11T11:07:16Z</time>
      </trkpt>
      <trkpt lat="44.81818" lon="4.0219">
        <ele>1105.17</ele>
        <time>2024-09-11T11:07:30Z</time>
      </trkpt>
      <trkpt lat="44.81818" lon="4.0219">
        <ele>1105.65</ele>
        <time>2024-09-11T11:07:45Z</time>
      </trkpt>
      <trkpt lat="44.81818" lon="4.02191">
        <ele>1105.17</ele>
        <time>2024-09-11T11:08:07Z</time>
      </trkpt>
      <trkpt lat="44.81818" lon="4.02191">
        <ele>1104.69</ele>
        <time>2024-09-11T11:08:19Z</time>
      </trkpt>
      <trkpt lat="44.81817" lon="4.02191">
        <ele>1105.65</ele>
        <time>2024-09-11T11:08:29Z</time>
      </trkpt>
      <trkpt lat="44.81817" lon="4.02192">
        <ele>1105.17</ele>
        <time>2024-09-11T11:08:44Z</time>
      </trkpt>
      <trkpt lat="44.81817" lon="4.02192">
        <ele>1105.65</ele>
        <time>2024-09-11T11:08:57Z</time>
      </trkpt>
      <trkpt lat="44.81817" lon="4.02192">
        <ele>1105.17</ele>
        <time>2024-09-11T11:09:12Z</time>
      </trkpt>
      <trkpt lat="44.81817" lon="4.02192">
        <ele>1105.17</ele>
        <time>2024-09-11T11:09:30Z</time>
      </trkpt>
      <trkpt lat="44.81811" lon="4.0219">
        <ele>1105.65</ele>
        <time>2024-09-11T11:09:40Z</time>
      </trkpt>
      <trkpt lat="44.81804" lon="4.02184">
        <ele>1104.21</ele>
        <time>2024-09-11T11:09:50Z</time>
      </trkpt>
      <trkpt lat="44.81797" lon="4.0218">
        <ele>1104.21</ele>
        <time>2024-09-11T11:09:58Z</time>
      </trkpt>
      <trkpt lat="44.81792" lon="4.02178">
        <ele>1102.77</ele>
        <time>2024-09-11T11:10:05Z</time>
      </trkpt>
      <trkpt lat="44.81785" lon="4.02176">
        <ele>1100.85</ele>
        <time>2024-09-11T11:10:14Z</time>
      </trkpt>
      <trkpt lat="44.81779" lon="4.02174">
        <ele>1099.89</ele>
        <time>2024-09-11T11:10:20Z</time>
      </trkpt>
      <trkpt lat="44.81776" lon="4.02161">
        <ele>1098.44</ele>
        <time>2024-09-11T11:10:27Z</time>
      </trkpt>
      <trkpt lat="44.81777" lon="4.02158">
        <ele>1099.89</ele>
        <time>2024-09-11T11:10:29Z</time>
      </trkpt>
      <trkpt lat="44.81782" lon="4.02152">
        <ele>1098.92</ele>
        <time>2024-09-11T11:10:37Z</time>
      </trkpt>
      <trkpt lat="44.81788" lon="4.02147">
        <ele>1099.4</ele>
        <time>2024-09-11T11:10:45Z</time>
      </trkpt>
      <trkpt lat="44.81791" lon="4.02145">
        <ele>1099.4</ele>
        <time>2024-09-11T11:10:48Z</time>
      </trkpt>
      <trkpt lat="44.81798" lon="4.0214">
        <ele>1098.92</ele>
        <time>2024-09-11T11:10:56Z</time>
      </trkpt>
      <trkpt lat="44.818" lon="4.02135">
        <ele>1098.44</ele>
        <time>2024-09-11T11:11:01Z</time>
      </trkpt>
      <trkpt lat="44.81807" lon="4.02117">
        <ele>1097.96</ele>
        <time>2024-09-11T11:11:13Z</time>
      </trkpt>
      <trkpt lat="44.81812" lon="4.02106">
        <ele>1097</ele>
        <time>2024-09-11T11:11:21Z</time>
      </trkpt>
      <trkpt lat="44.81818" lon="4.02095">
        <ele>1096.52</ele>
        <time>2024-09-11T11:11:30Z</time>
      </trkpt>
      <trkpt lat="44.81823" lon="4.02084">
        <ele>1096.04</ele>
        <time>2024-09-11T11:11:39Z</time>
      </trkpt>
      <trkpt lat="44.81827" lon="4.02074">
        <ele>1096.04</ele>
        <time>2024-09-11T11:11:46Z</time>
      </trkpt>
      <trkpt lat="44.81832" lon="4.02064">
        <ele>1095.08</ele>
        <time>2024-09-11T11:11:54Z</time>
      </trkpt>
      <trkpt lat="44.81834" lon="4.02059">
        <ele>1095.08</ele>
        <time>2024-09-11T11:11:58Z</time>
      </trkpt>
      <trkpt lat="44.81837" lon="4.02049">
        <ele>1095.08</ele>
        <time>2024-09-11T11:12:05Z</time>
      </trkpt>
      <trkpt lat="44.81842" lon="4.02038">
        <ele>1094.6</ele>
        <time>2024-09-11T11:12:13Z</time>
      </trkpt>
      <trkpt lat="44.81845" lon="4.0203">
        <ele>1093.64</ele>
        <time>2024-09-11T11:12:19Z</time>
      </trkpt>
      <trkpt lat="44.81845" lon="4.02027">
        <ele>1092.68</ele>
        <time>2024-09-11T11:12:21Z</time>
      </trkpt>
      <trkpt lat="44.81848" lon="4.02019">
        <ele>1093.16</ele>
        <time>2024-09-11T11:12:27Z</time>
      </trkpt>
      <trkpt lat="44.81851" lon="4.02013">
        <ele>1092.68</ele>
        <time>2024-09-11T11:12:32Z</time>
      </trkpt>
      <trkpt lat="44.81856" lon="4.02002">
        <ele>1091.23</ele>
        <time>2024-09-11T11:12:40Z</time>
      </trkpt>
      <trkpt lat="44.8186" lon="4.01992">
        <ele>1090.75</ele>
        <time>2024-09-11T11:12:48Z</time>
      </trkpt>
      <trkpt lat="44.81864" lon="4.01978">
        <ele>1090.75</ele>
        <time>2024-09-11T11:12:57Z</time>
      </trkpt>
      <trkpt lat="44.81866" lon="4.01975">
        <ele>1090.75</ele>
        <time>2024-09-11T11:12:59Z</time>
      </trkpt>
      <trkpt lat="44.8187" lon="4.01963">
        <ele>1089.79</ele>
        <time>2024-09-11T11:13:08Z</time>
      </trkpt>
      <trkpt lat="44.81874" lon="4.01951">
        <ele>1088.83</ele>
        <time>2024-09-11T11:13:16Z</time>
      </trkpt>
      <trkpt lat="44.81875" lon="4.01947">
        <ele>1088.83</ele>
        <time>2024-09-11T11:13:19Z</time>
      </trkpt>
      <trkpt lat="44.81877" lon="4.01941">
        <ele>1088.83</ele>
        <time>2024-09-11T11:13:23Z</time>
      </trkpt>
      <trkpt lat="44.8188" lon="4.01932">
        <ele>1088.35</ele>
        <time>2024-09-11T11:13:30Z</time>
      </trkpt>
      <trkpt lat="44.81884" lon="4.01923">
        <ele>1087.87</ele>
        <time>2024-09-11T11:13:37Z</time>
      </trkpt>
      <trkpt lat="44.81888" lon="4.0191">
        <ele>1087.39</ele>
        <time>2024-09-11T11:13:46Z</time>
      </trkpt>
      <trkpt lat="44.81892" lon="4.019">
        <ele>1085.95</ele>
        <time>2024-09-11T11:13:54Z</time>
      </trkpt>
      <trkpt lat="44.81894" lon="4.01894">
        <ele>1085.47</ele>
        <time>2024-09-11T11:13:58Z</time>
      </trkpt>
      <trkpt lat="44.819" lon="4.01882">
        <ele>1084.99</ele>
        <time>2024-09-11T11:14:07Z</time>
      </trkpt>
      <trkpt lat="44.81903" lon="4.01872">
        <ele>1084.99</ele>
        <time>2024-09-11T11:14:14Z</time>
      </trkpt>
      <trkpt lat="44.81907" lon="4.01865">
        <ele>1084.02</ele>
        <time>2024-09-11T11:14:21Z</time>
      </trkpt>
      <trkpt lat="44.81908" lon="4.01864">
        <ele>1084.02</ele>
        <time>2024-09-11T11:14:22Z</time>
      </trkpt>
      <trkpt lat="44.81915" lon="4.01849">
        <ele>1083.54</ele>
        <time>2024-09-11T11:14:33Z</time>
      </trkpt>
      <trkpt lat="44.8192" lon="4.01837">
        <ele>1082.58</ele>
        <time>2024-09-11T11:14:42Z</time>
      </trkpt>
      <trkpt lat="44.81924" lon="4.01829">
        <ele>1082.1</ele>
        <time>2024-09-11T11:14:49Z</time>
      </trkpt>
      <trkpt lat="44.81929" lon="4.01817">
        <ele>1081.62</ele>
        <time>2024-09-11T11:14:57Z</time>
      </trkpt>
      <trkpt lat="44.81931" lon="4.01812">
        <ele>1081.14</ele>
        <time>2024-09-11T11:15:01Z</time>
      </trkpt>
      <trkpt lat="44.81938" lon="4.01801">
        <ele>1080.66</ele>
        <time>2024-09-11T11:15:11Z</time>
      </trkpt>
      <trkpt lat="44.81942" lon="4.01793">
        <ele>1080.66</ele>
        <time>2024-09-11T11:15:17Z</time>
      </trkpt>
      <trkpt lat="44.81943" lon="4.01789">
        <ele>1079.7</ele>
        <time>2024-09-11T11:15:20Z</time>
      </trkpt>
      <trkpt lat="44.81949" lon="4.01782">
        <ele>1078.26</ele>
        <time>2024-09-11T11:15:29Z</time>
      </trkpt>
      <trkpt lat="44.81954" lon="4.01774">
        <ele>1077.29</ele>
        <time>2024-09-11T11:15:37Z</time>
      </trkpt>
      <trkpt lat="44.81963" lon="4.01763">
        <ele>1076.81</ele>
        <time>2024-09-11T11:15:45Z</time>
      </trkpt>
      <trkpt lat="44.81969" lon="4.01754">
        <ele>1076.33</ele>
        <time>2024-09-11T11:15:53Z</time>
      </trkpt>
      <trkpt lat="44.81971" lon="4.01748">
        <ele>1075.37</ele>
        <time>2024-09-11T11:15:57Z</time>
      </trkpt>
      <trkpt lat="44.81977" lon="4.01735">
        <ele>1073.93</ele>
        <time>2024-09-11T11:16:06Z</time>
      </trkpt>
      <trkpt lat="44.8198" lon="4.01727">
        <ele>1072.97</ele>
        <time>2024-09-11T11:16:12Z</time>
      </trkpt>
      <trkpt lat="44.81981" lon="4.01708">
        <ele>1072.01</ele>
        <time>2024-09-11T11:16:24Z</time>
      </trkpt>
      <trkpt lat="44.81979" lon="4.01694">
        <ele>1071.05</ele>
        <time>2024-09-11T11:16:32Z</time>
      </trkpt>
      <trkpt lat="44.81977" lon="4.0168">
        <ele>1070.57</ele>
        <time>2024-09-11T11:16:42Z</time>
      </trkpt>
      <trkpt lat="44.81976" lon="4.01667">
        <ele>1069.6</ele>
        <time>2024-09-11T11:16:50Z</time>
      </trkpt>
      <trkpt lat="44.81976" lon="4.01655">
        <ele>1070.57</ele>
        <time>2024-09-11T11:16:58Z</time>
      </trkpt>
      <trkpt lat="44.81977" lon="4.01642">
        <ele>1070.57</ele>
        <time>2024-09-11T11:17:06Z</time>
      </trkpt>
      <trkpt lat="44.81977" lon="4.01637">
        <ele>1070.57</ele>
        <time>2024-09-11T11:17:09Z</time>
      </trkpt>
      <trkpt lat="44.81977" lon="4.01623">
        <ele>1070.08</ele>
        <time>2024-09-11T11:17:20Z</time>
      </trkpt>
      <trkpt lat="44.81976" lon="4.01622">
        <ele>1070.08</ele>
        <time>2024-09-11T11:17:22Z</time>
      </trkpt>
      <trkpt lat="44.81973" lon="4.01622">
        <ele>1070.57</ele>
        <time>2024-09-11T11:17:26Z</time>
      </trkpt>
      <trkpt lat="44.81966" lon="4.01624">
        <ele>1071.05</ele>
        <time>2024-09-11T11:17:34Z</time>
      </trkpt>
      <trkpt lat="44.81959" lon="4.01625">
        <ele>1072.01</ele>
        <time>2024-09-11T11:17:43Z</time>
      </trkpt>
      <trkpt lat="44.81951" lon="4.01626">
        <ele>1072.97</ele>
        <time>2024-09-11T11:17:52Z</time>
      </trkpt>
      <trkpt lat="44.81947" lon="4.01623">
        <ele>1074.41</ele>
        <time>2024-09-11T11:18:02Z</time>
      </trkpt>
      <trkpt lat="44.81943" lon="4.01621">
        <ele>1075.85</ele>
        <time>2024-09-11T11:18:09Z</time>
      </trkpt>
      <trkpt lat="44.81939" lon="4.01617">
        <ele>1076.81</ele>
        <time>2024-09-11T11:18:17Z</time>
      </trkpt>
      <trkpt lat="44.81937" lon="4.01614">
        <ele>1077.78</ele>
        <time>2024-09-11T11:18:26Z</time>
      </trkpt>
      <trkpt lat="44.81934" lon="4.01609">
        <ele>1078.74</ele>
        <time>2024-09-11T11:18:36Z</time>
      </trkpt>
      <trkpt lat="44.81929" lon="4.016">
        <ele>1080.18</ele>
        <time>2024-09-11T11:18:47Z</time>
      </trkpt>
      <trkpt lat="44.81924" lon="4.01593">
        <ele>1081.62</ele>
        <time>2024-09-11T11:18:58Z</time>
      </trkpt>
      <trkpt lat="44.81919" lon="4.01586">
        <ele>1083.06</ele>
        <time>2024-09-11T11:19:06Z</time>
      </trkpt>
      <trkpt lat="44.81916" lon="4.01581">
        <ele>1084.5</ele>
        <time>2024-09-11T11:19:16Z</time>
      </trkpt>
      <trkpt lat="44.81913" lon="4.01576">
        <ele>1085.95</ele>
        <time>2024-09-11T11:19:24Z</time>
      </trkpt>
      <trkpt lat="44.81913" lon="4.01567">
        <ele>1086.91</ele>
        <time>2024-09-11T11:19:33Z</time>
      </trkpt>
      <trkpt lat="44.81906" lon="4.01562">
        <ele>1087.39</ele>
        <time>2024-09-11T11:19:41Z</time>
      </trkpt>
      <trkpt lat="44.819" lon="4.01554">
        <ele>1088.35</ele>
        <time>2024-09-11T11:19:51Z</time>
      </trkpt>
      <trkpt lat="44.81894" lon="4.01543">
        <ele>1088.83</ele>
        <time>2024-09-11T11:20:01Z</time>
      </trkpt>
      <trkpt lat="44.8189" lon="4.01536">
        <ele>1090.27</ele>
        <time>2024-09-11T11:20:08Z</time>
      </trkpt>
      <trkpt lat="44.81886" lon="4.01527">
        <ele>1091.23</ele>
        <time>2024-09-11T11:20:15Z</time>
      </trkpt>
      <trkpt lat="44.81884" lon="4.01518">
        <ele>1092.2</ele>
        <time>2024-09-11T11:20:24Z</time>
      </trkpt>
      <trkpt lat="44.8188" lon="4.01511">
        <ele>1093.16</ele>
        <time>2024-09-11T11:20:35Z</time>
      </trkpt>
      <trkpt lat="44.81876" lon="4.01503">
        <ele>1093.64</ele>
        <time>2024-09-11T11:20:44Z</time>
      </trkpt>
      <trkpt lat="44.81869" lon="4.01498">
        <ele>1094.12</ele>
        <time>2024-09-11T11:20:54Z</time>
      </trkpt>
      <trkpt lat="44.81862" lon="4.01491">
        <ele>1094.6</ele>
        <time>2024-09-11T11:21:03Z</time>
      </trkpt>
      <trkpt lat="44.81858" lon="4.01485">
        <ele>1094.6</ele>
        <time>2024-09-11T11:21:12Z</time>
      </trkpt>
      <trkpt lat="44.81851" lon="4.01479">
        <ele>1094.6</ele>
        <time>2024-09-11T11:21:20Z</time>
      </trkpt>
      <trkpt lat="44.81848" lon="4.01477">
        <ele>1094.6</ele>
        <time>2024-09-11T11:21:28Z</time>
      </trkpt>
      <trkpt lat="44.81841" lon="4.01473">
        <ele>1094.12</ele>
        <time>2024-09-11T11:21:37Z</time>
      </trkpt>
      <trkpt lat="44.81833" lon="4.01471">
        <ele>1094.12</ele>
        <time>2024-09-11T11:21:46Z</time>
      </trkpt>
      <trkpt lat="44.81827" lon="4.01469">
        <ele>1095.08</ele>
        <time>2024-09-11T11:21:54Z</time>
      </trkpt>
      <trkpt lat="44.8182" lon="4.01465">
        <ele>1096.04</ele>
        <time>2024-09-11T11:22:02Z</time>
      </trkpt>
      <trkpt lat="44.81813" lon="4.01464">
        <ele>1096.52</ele>
        <time>2024-09-11T11:22:11Z</time>
      </trkpt>
      <trkpt lat="44.8181" lon="4.01466">
        <ele>1097</ele>
        <time>2024-09-11T11:22:18Z</time>
      </trkpt>
      <trkpt lat="44.81806" lon="4.01468">
        <ele>1097.96</ele>
        <time>2024-09-11T11:22:25Z</time>
      </trkpt>
      <trkpt lat="44.81803" lon="4.01472">
        <ele>1098.92</ele>
        <time>2024-09-11T11:22:31Z</time>
      </trkpt>
      <trkpt lat="44.818" lon="4.01476">
        <ele>1100.37</ele>
        <time>2024-09-11T11:22:38Z</time>
      </trkpt>
      <trkpt lat="44.81796" lon="4.01476">
        <ele>1100.85</ele>
        <time>2024-09-11T11:22:45Z</time>
      </trkpt>
      <trkpt lat="44.81793" lon="4.0148">
        <ele>1101.81</ele>
        <time>2024-09-11T11:22:52Z</time>
      </trkpt>
      <trkpt lat="44.81791" lon="4.01486">
        <ele>1103.25</ele>
        <time>2024-09-11T11:22:59Z</time>
      </trkpt>
      <trkpt lat="44.8179" lon="4.01492">
        <ele>1104.21</ele>
        <time>2024-09-11T11:23:07Z</time>
      </trkpt>
      <trkpt lat="44.81789" lon="4.01498">
        <ele>1105.17</ele>
        <time>2024-09-11T11:23:16Z</time>
      </trkpt>
      <trkpt lat="44.81785" lon="4.01507">
        <ele>1106.13</ele>
        <time>2024-09-11T11:23:25Z</time>
      </trkpt>
      <trkpt lat="44.8178" lon="4.01516">
        <ele>1107.1</ele>
        <time>2024-09-11T11:23:35Z</time>
      </trkpt>
      <trkpt lat="44.81776" lon="4.01521">
        <ele>1108.06</ele>
        <time>2024-09-11T11:23:42Z</time>
      </trkpt>
      <trkpt lat="44.81772" lon="4.01527">
        <ele>1108.54</ele>
        <time>2024-09-11T11:23:49Z</time>
      </trkpt>
      <trkpt lat="44.81767" lon="4.01531">
        <ele>1109.5</ele>
        <time>2024-09-11T11:23:55Z</time>
      </trkpt>
      <trkpt lat="44.81763" lon="4.01535">
        <ele>1109.98</ele>
        <time>2024-09-11T11:24:04Z</time>
      </trkpt>
      <trkpt lat="44.81762" lon="4.01537">
        <ele>1109.98</ele>
        <time>2024-09-11T11:24:12Z</time>
      </trkpt>
      <trkpt lat="44.81761" lon="4.0154">
        <ele>1109.5</ele>
        <time>2024-09-11T11:24:20Z</time>
      </trkpt>
      <trkpt lat="44.8176" lon="4.0154">
        <ele>1110.46</ele>
        <time>2024-09-11T11:24:37Z</time>
      </trkpt>
      <trkpt lat="44.8176" lon="4.0154">
        <ele>1110.46</ele>
        <time>2024-09-11T11:24:48Z</time>
      </trkpt>
      <trkpt lat="44.8176" lon="4.0154">
        <ele>1110.46</ele>
        <time>2024-09-11T11:25:06Z</time>
      </trkpt>
      <trkpt lat="44.8176" lon="4.0154">
        <ele>1110.94</ele>
        <time>2024-09-11T11:25:25Z</time>
      </trkpt>
      <trkpt lat="44.81764" lon="4.01534">
        <ele>1109.5</ele>
        <time>2024-09-11T11:25:33Z</time>
      </trkpt>
      <trkpt lat="44.81766" lon="4.0153">
        <ele>1109.98</ele>
        <time>2024-09-11T11:25:42Z</time>
      </trkpt>
      <trkpt lat="44.81769" lon="4.01524">
        <ele>1109.02</ele>
        <time>2024-09-11T11:25:50Z</time>
      </trkpt>
      <trkpt lat="44.81773" lon="4.01517">
        <ele>1108.54</ele>
        <time>2024-09-11T11:26:00Z</time>
      </trkpt>
      <trkpt lat="44.81776" lon="4.0151">
        <ele>1107.58</ele>
        <time>2024-09-11T11:26:09Z</time>
      </trkpt>
      <trkpt lat="44.81778" lon="4.01507">
        <ele>1107.1</ele>
        <time>2024-09-11T11:26:12Z</time>
      </trkpt>
      <trkpt lat="44.81783" lon="4.01501">
        <ele>1105.65</ele>
        <time>2024-09-11T11:26:19Z</time>
      </trkpt>
      <trkpt lat="44.81784" lon="4.01494">
        <ele>1105.17</ele>
        <time>2024-09-11T11:26:23Z</time>
      </trkpt>
      <trkpt lat="44.81787" lon="4.01484">
        <ele>1103.73</ele>
        <time>2024-09-11T11:26:30Z</time>
      </trkpt>
      <trkpt lat="44.8179" lon="4.01478">
        <ele>1102.29</ele>
        <time>2024-09-11T11:26:38Z</time>
      </trkpt>
      <trkpt lat="44.81789" lon="4.01481">
        <ele>1102.77</ele>
        <time>2024-09-11T11:26:51Z</time>
      </trkpt>
      <trkpt lat="44.81787" lon="4.0149">
        <ele>1104.21</ele>
        <time>2024-09-11T11:26:59Z</time>
      </trkpt>
      <trkpt lat="44.81785" lon="4.01497">
        <ele>1105.17</ele>
        <time>2024-09-11T11:27:07Z</time>
      </trkpt>
      <trkpt lat="44.81783" lon="4.01508">
        <ele>1106.13</ele>
        <time>2024-09-11T11:27:16Z</time>
      </trkpt>
      <trkpt lat="44.81781" lon="4.01512">
        <ele>1107.1</ele>
        <time>2024-09-11T11:27:20Z</time>
      </trkpt>
      <trkpt lat="44.81777" lon="4.01521">
        <ele>1108.06</ele>
        <time>2024-09-11T11:27:29Z</time>
      </trkpt>
      <trkpt lat="44.81772" lon="4.01527">
        <ele>1109.02</ele>
        <time>2024-09-11T11:27:37Z</time>
      </trkpt>
      <trkpt lat="44.81765" lon="4.01531">
        <ele>1109.5</ele>
        <time>2024-09-11T11:27:47Z</time>
      </trkpt>
      <trkpt lat="44.81764" lon="4.01531">
        <ele>1109.98</ele>
        <time>2024-09-11T11:27:58Z</time>
      </trkpt>
      <trkpt lat="44.81764" lon="4.01531">
        <ele>1109.5</ele>
        <time>2024-09-11T11:28:09Z</time>
      </trkpt>
      <trkpt lat="44.81764" lon="4.01532">
        <ele>1109.98</ele>
        <time>2024-09-11T11:28:24Z</time>
      </trkpt>
      <trkpt lat="44.81764" lon="4.01532">
        <ele>1109.98</ele>
        <time>2024-09-11T11:28:39Z</time>
      </trkpt>
      <trkpt lat="44.81764" lon="4.01532">
        <ele>1109.5</ele>
        <time>2024-09-11T11:28:53Z</time>
      </trkpt>
      <trkpt lat="44.81763" lon="4.01531">
        <ele>1109.98</ele>
        <time>2024-09-11T11:29:11Z</time>
      </trkpt>
      <trkpt lat="44.81763" lon="4.01531">
        <ele>1109.5</ele>
        <time>2024-09-11T11:29:24Z</time>
      </trkpt>
      <trkpt lat="44.81763" lon="4.01531">
        <ele>1109.5</ele>
        <time>2024-09-11T11:29:41Z</time>
      </trkpt>
      <trkpt lat="44.81763" lon="4.01531">
        <ele>1109.5</ele>
        <time>2024-09-11T11:29:53Z</time>
      </trkpt>
      <trkpt lat="44.81763" lon="4.01532">
        <ele>1109.98</ele>
        <time>2024-09-11T11:30:07Z</time>
      </trkpt>
      <trkpt lat="44.81761" lon="4.01535">
        <ele>1109.98</ele>
        <time>2024-09-11T11:30:14Z</time>
      </trkpt>
      <trkpt lat="44.81761" lon="4.01535">
        <ele>1109.98</ele>
        <time>2024-09-11T11:30:15Z</time>
      </trkpt>
      <trkpt lat="44.81756" lon="4.01542">
        <ele>1110.46</ele>
        <time>2024-09-11T11:30:24Z</time>
      </trkpt>
      <trkpt lat="44.81751" lon="4.01548">
        <ele>1110.46</ele>
        <time>2024-09-11T11:30:34Z</time>
      </trkpt>
      <trkpt lat="44.81747" lon="4.01552">
        <ele>1110.46</ele>
        <time>2024-09-11T11:30:39Z</time>
      </trkpt>
      <trkpt lat="44.8174" lon="4.01558">
        <ele>1110.94</ele>
        <time>2024-09-11T11:30:48Z</time>
      </trkpt>
      <trkpt lat="44.81735" lon="4.01562">
        <ele>1111.42</ele>
        <time>2024-09-11T11:30:55Z</time>
      </trkpt>
      <trkpt lat="44.81725" lon="4.0157">
        <ele>1111.42</ele>
        <time>2024-09-11T11:31:06Z</time>
      </trkpt>
      <trkpt lat="44.81718" lon="4.01575">
        <ele>1111.9</ele>
        <time>2024-09-11T11:31:14Z</time>
      </trkpt>
      <trkpt lat="44.8171" lon="4.01582">
        <ele>1111.42</ele>
        <time>2024-09-11T11:31:23Z</time>
      </trkpt>
      <trkpt lat="44.81704" lon="4.01588">
        <ele>1111.42</ele>
        <time>2024-09-11T11:31:31Z</time>
      </trkpt>
      <trkpt lat="44.81696" lon="4.01595">
        <ele>1111.42</ele>
        <time>2024-09-11T11:31:40Z</time>
      </trkpt>
      <trkpt lat="44.81689" lon="4.01603">
        <ele>1111.42</ele>
        <time>2024-09-11T11:31:49Z</time>
      </trkpt>
      <trkpt lat="44.81683" lon="4.0161">
        <ele>1111.9</ele>
        <time>2024-09-11T11:31:57Z</time>
      </trkpt>
      <trkpt lat="44.81675" lon="4.0162">
        <ele>1111.9</ele>
        <time>2024-09-11T11:32:07Z</time>
      </trkpt>
      <trkpt lat="44.8167" lon="4.01627">
        <ele>1111.9</ele>
        <time>2024-09-11T11:32:14Z</time>
      </trkpt>
      <trkpt lat="44.81665" lon="4.01635">
        <ele>1111.9</ele>
        <time>2024-09-11T11:32:22Z</time>
      </trkpt>
      <trkpt lat="44.81661" lon="4.01641">
        <ele>1113.82</ele>
        <time>2024-09-11T11:32:27Z</time>
      </trkpt>
      <trkpt lat="44.81659" lon="4.01645">
        <ele>1111.9</ele>
        <time>2024-09-11T11:32:30Z</time>
      </trkpt>
      <trkpt lat="44.81654" lon="4.01654">
        <ele>1112.38</ele>
        <time>2024-09-11T11:32:38Z</time>
      </trkpt>
      <trkpt lat="44.81649" lon="4.01662">
        <ele>1113.34</ele>
        <time>2024-09-11T11:32:45Z</time>
      </trkpt>
      <trkpt lat="44.81647" lon="4.01665">
        <ele>1113.82</ele>
        <time>2024-09-11T11:32:48Z</time>
      </trkpt>
      <trkpt lat="44.81643" lon="4.01675">
        <ele>1113.82</ele>
        <time>2024-09-11T11:32:56Z</time>
      </trkpt>
      <trkpt lat="44.81638" lon="4.01683">
        <ele>1113.82</ele>
        <time>2024-09-11T11:33:04Z</time>
      </trkpt>
      <trkpt lat="44.81632" lon="4.01692">
        <ele>1113.82</ele>
        <time>2024-09-11T11:33:12Z</time>
      </trkpt>
      <trkpt lat="44.81626" lon="4.01701">
        <ele>1114.79</ele>
        <time>2024-09-11T11:33:21Z</time>
      </trkpt>
      <trkpt lat="44.81622" lon="4.0171">
        <ele>1114.79</ele>
        <time>2024-09-11T11:33:29Z</time>
      </trkpt>
      <trkpt lat="44.81618" lon="4.01717">
        <ele>1115.75</ele>
        <time>2024-09-11T11:33:36Z</time>
      </trkpt>
      <trkpt lat="44.81615" lon="4.01721">
        <ele>1116.23</ele>
        <time>2024-09-11T11:33:40Z</time>
      </trkpt>
      <trkpt lat="44.81611" lon="4.01731">
        <ele>1116.71</ele>
        <time>2024-09-11T11:33:48Z</time>
      </trkpt>
      <trkpt lat="44.8161" lon="4.01734">
        <ele>1117.19</ele>
        <time>2024-09-11T11:33:51Z</time>
      </trkpt>
      <trkpt lat="44.81605" lon="4.01745">
        <ele>1117.67</ele>
        <time>2024-09-11T11:34:01Z</time>
      </trkpt>
      <trkpt lat="44.816" lon="4.01754">
        <ele>1118.63</ele>
        <time>2024-09-11T11:34:09Z</time>
      </trkpt>
      <trkpt lat="44.81599" lon="4.0176">
        <ele>1119.59</ele>
        <time>2024-09-11T11:34:13Z</time>
      </trkpt>
      <trkpt lat="44.81594" lon="4.01769">
        <ele>1119.59</ele>
        <time>2024-09-11T11:34:21Z</time>
      </trkpt>
      <trkpt lat="44.8159" lon="4.01778">
        <ele>1121.03</ele>
        <time>2024-09-11T11:34:29Z</time>
      </trkpt>
      <trkpt lat="44.8159" lon="4.01781">
        <ele>1121.52</ele>
        <time>2024-09-11T11:34:33Z</time>
      </trkpt>
      <trkpt lat="44.81586" lon="4.01791">
        <ele>1122</ele>
        <time>2024-09-11T11:34:42Z</time>
      </trkpt>
      <trkpt lat="44.81585" lon="4.018">
        <ele>1122.96</ele>
        <time>2024-09-11T11:34:50Z</time>
      </trkpt>
      <trkpt lat="44.81583" lon="4.01804">
        <ele>1122.96</ele>
        <time>2024-09-11T11:34:55Z</time>
      </trkpt>
      <trkpt lat="44.81579" lon="4.01814">
        <ele>1123.92</ele>
        <time>2024-09-11T11:35:03Z</time>
      </trkpt>
      <trkpt lat="44.81577" lon="4.01817">
        <ele>1123.92</ele>
        <time>2024-09-11T11:35:06Z</time>
      </trkpt>
      <trkpt lat="44.81574" lon="4.01826">
        <ele>1124.4</ele>
        <time>2024-09-11T11:35:14Z</time>
      </trkpt>
      <trkpt lat="44.81573" lon="4.0183">
        <ele>1124.88</ele>
        <time>2024-09-11T11:35:17Z</time>
      </trkpt>
      <trkpt lat="44.81571" lon="4.01839">
        <ele>1125.84</ele>
        <time>2024-09-11T11:35:25Z</time>
      </trkpt>
      <trkpt lat="44.8157" lon="4.01847">
        <ele>1126.32</ele>
        <time>2024-09-11T11:35:33Z</time>
      </trkpt>
      <trkpt lat="44.81568" lon="4.01853">
        <ele>1127.28</ele>
        <time>2024-09-11T11:35:40Z</time>
      </trkpt>
      <trkpt lat="44.81567" lon="4.01858">
        <ele>1127.76</ele>
        <time>2024-09-11T11:35:43Z</time>
      </trkpt>
      <trkpt lat="44.81564" lon="4.01867">
        <ele>1128.73</ele>
        <time>2024-09-11T11:35:52Z</time>
      </trkpt>
      <trkpt lat="44.81564" lon="4.01869">
        <ele>1128.73</ele>
        <time>2024-09-11T11:35:53Z</time>
      </trkpt>
      <trkpt lat="44.8156" lon="4.0188">
        <ele>1128.73</ele>
        <time>2024-09-11T11:36:04Z</time>
      </trkpt>
      <trkpt lat="44.81559" lon="4.01886">
        <ele>1128.73</ele>
        <time>2024-09-11T11:36:09Z</time>
      </trkpt>
      <trkpt lat="44.81555" lon="4.01897">
        <ele>1129.69</ele>
        <time>2024-09-11T11:36:19Z</time>
      </trkpt>
      <trkpt lat="44.81552" lon="4.01908">
        <ele>1129.21</ele>
        <time>2024-09-11T11:36:28Z</time>
      </trkpt>
      <trkpt lat="44.8155" lon="4.01913">
        <ele>1129.21</ele>
        <time>2024-09-11T11:36:32Z</time>
      </trkpt>
      <trkpt lat="44.81547" lon="4.01924">
        <ele>1129.69</ele>
        <time>2024-09-11T11:36:40Z</time>
      </trkpt>
      <trkpt lat="44.81544" lon="4.01931">
        <ele>1129.69</ele>
        <time>2024-09-11T11:36:46Z</time>
      </trkpt>
      <trkpt lat="44.81542" lon="4.01941">
        <ele>1129.69</ele>
        <time>2024-09-11T11:36:54Z</time>
      </trkpt>
      <trkpt lat="44.81541" lon="4.01944">
        <ele>1129.69</ele>
        <time>2024-09-11T11:36:56Z</time>
      </trkpt>
      <trkpt lat="44.81536" lon="4.01955">
        <ele>1129.21</ele>
        <time>2024-09-11T11:37:06Z</time>
      </trkpt>
      <trkpt lat="44.81533" lon="4.01962">
        <ele>1128.73</ele>
        <time>2024-09-11T11:37:13Z</time>
      </trkpt>
      <trkpt lat="44.81533" lon="4.01965">
        <ele>1128.24</ele>
        <time>2024-09-11T11:37:15Z</time>
      </trkpt>
      <trkpt lat="44.8153" lon="4.01969">
        <ele>1128.24</ele>
        <time>2024-09-11T11:37:19Z</time>
      </trkpt>
      <trkpt lat="44.81526" lon="4.01975">
        <ele>1126.8</ele>
        <time>2024-09-11T11:37:27Z</time>
      </trkpt>
      <trkpt lat="44.8152" lon="4.01982">
        <ele>1126.32</ele>
        <time>2024-09-11T11:37:36Z</time>
      </trkpt>
      <trkpt lat="44.81514" lon="4.01986">
        <ele>1124.88</ele>
        <time>2024-09-11T11:37:44Z</time>
      </trkpt>
      <trkpt lat="44.81508" lon="4.0199">
        <ele>1123.92</ele>
        <time>2024-09-11T11:37:52Z</time>
      </trkpt>
      <trkpt lat="44.81501" lon="4.01994">
        <ele>1122.48</ele>
        <time>2024-09-11T11:38:01Z</time>
      </trkpt>
      <trkpt lat="44.81493" lon="4.01997">
        <ele>1121.52</ele>
        <time>2024-09-11T11:38:10Z</time>
      </trkpt>
      <trkpt lat="44.81488" lon="4.01999">
        <ele>1120.55</ele>
        <time>2024-09-11T11:38:15Z</time>
      </trkpt>
      <trkpt lat="44.81484" lon="4.02">
        <ele>1121.03</ele>
        <time>2024-09-11T11:38:23Z</time>
      </trkpt>
      <trkpt lat="44.81481" lon="4.02">
        <ele>1120.07</ele>
        <time>2024-09-11T11:38:30Z</time>
      </trkpt>
      <trkpt lat="44.81478" lon="4.02">
        <ele>1119.11</ele>
        <time>2024-09-11T11:38:36Z</time>
      </trkpt>
      <trkpt lat="44.81477" lon="4.02">
        <ele>1119.11</ele>
        <time>2024-09-11T11:38:44Z</time>
      </trkpt>
      <trkpt lat="44.81477" lon="4.01999">
        <ele>1119.11</ele>
        <time>2024-09-11T11:38:57Z</time>
      </trkpt>
      <trkpt lat="44.81477" lon="4.01999">
        <ele>1119.11</ele>
        <time>2024-09-11T11:39:10Z</time>
      </trkpt>
      <trkpt lat="44.81476" lon="4.01999">
        <ele>1119.11</ele>
        <time>2024-09-11T11:39:21Z</time>
      </trkpt>
      <trkpt lat="44.81476" lon="4.01999">
        <ele>1119.11</ele>
        <time>2024-09-11T11:39:33Z</time>
      </trkpt>
      <trkpt lat="44.81476" lon="4.01999">
        <ele>1119.11</ele>
        <time>2024-09-11T11:39:45Z</time>
      </trkpt>
      <trkpt lat="44.81476" lon="4.01999">
        <ele>1118.63</ele>
        <time>2024-09-11T11:39:59Z</time>
      </trkpt>
      <trkpt lat="44.81476" lon="4.02">
        <ele>1118.63</ele>
        <time>2024-09-11T11:40:13Z</time>
      </trkpt>
      <trkpt lat="44.81473" lon="4.02">
        <ele>1119.11</ele>
        <time>2024-09-11T11:40:22Z</time>
      </trkpt>
      <trkpt lat="44.81472" lon="4.01999">
        <ele>1119.11</ele>
        <time>2024-09-11T11:40:23Z</time>
      </trkpt>
      <trkpt lat="44.8147" lon="4.01999">
        <ele>1118.63</ele>
        <time>2024-09-11T11:40:26Z</time>
      </trkpt>
      <trkpt lat="44.81462" lon="4.01998">
        <ele>1117.67</ele>
        <time>2024-09-11T11:40:34Z</time>
      </trkpt>
      <trkpt lat="44.81458" lon="4.01998">
        <ele>1117.19</ele>
        <time>2024-09-11T11:40:42Z</time>
      </trkpt>
      <trkpt lat="44.81456" lon="4.02">
        <ele>1117.19</ele>
        <time>2024-09-11T11:40:54Z</time>
      </trkpt>
      <trkpt lat="44.81454" lon="4.02001">
        <ele>1116.71</ele>
        <time>2024-09-11T11:41:04Z</time>
      </trkpt>
      <trkpt lat="44.8145" lon="4.02005">
        <ele>1116.71</ele>
        <time>2024-09-11T11:41:10Z</time>
      </trkpt>
      <trkpt lat="44.81442" lon="4.02008">
        <ele>1116.23</ele>
        <time>2024-09-11T11:41:18Z</time>
      </trkpt>
      <trkpt lat="44.81436" lon="4.02011">
        <ele>1115.27</ele>
        <time>2024-09-11T11:41:25Z</time>
      </trkpt>
      <trkpt lat="44.8143" lon="4.02015">
        <ele>1114.79</ele>
        <time>2024-09-11T11:41:32Z</time>
      </trkpt>
      <trkpt lat="44.81425" lon="4.02018">
        <ele>1114.31</ele>
        <time>2024-09-11T11:41:39Z</time>
      </trkpt>
      <trkpt lat="44.81423" lon="4.02018">
        <ele>1113.82</ele>
        <time>2024-09-11T11:41:46Z</time>
      </trkpt>
      <trkpt lat="44.81415" lon="4.02021">
        <ele>1114.31</ele>
        <time>2024-09-11T11:41:54Z</time>
      </trkpt>
      <trkpt lat="44.81412" lon="4.02024">
        <ele>1113.34</ele>
        <time>2024-09-11T11:42:01Z</time>
      </trkpt>
      <trkpt lat="44.81412" lon="4.02024">
        <ele>1113.34</ele>
        <time>2024-09-11T11:42:11Z</time>
      </trkpt>
      <trkpt lat="44.81408" lon="4.02025">
        <ele>1113.34</ele>
        <time>2024-09-11T11:42:20Z</time>
      </trkpt>
      <trkpt lat="44.81403" lon="4.02028">
        <ele>1112.38</ele>
        <time>2024-09-11T11:42:27Z</time>
      </trkpt>
      <trkpt lat="44.81403" lon="4.02027">
        <ele>1112.86</ele>
        <time>2024-09-11T11:42:37Z</time>
      </trkpt>
      <trkpt lat="44.814" lon="4.02029">
        <ele>1112.38</ele>
        <time>2024-09-11T11:42:45Z</time>
      </trkpt>
      <trkpt lat="44.81395" lon="4.0203">
        <ele>1112.86</ele>
        <time>2024-09-11T11:42:53Z</time>
      </trkpt>
      <trkpt lat="44.8139" lon="4.02032">
        <ele>1111.9</ele>
        <time>2024-09-11T11:43:02Z</time>
      </trkpt>
      <trkpt lat="44.81384" lon="4.02035">
        <ele>1111.42</ele>
        <time>2024-09-11T11:43:10Z</time>
      </trkpt>
      <trkpt lat="44.81379" lon="4.02039">
        <ele>1110.94</ele>
        <time>2024-09-11T11:43:18Z</time>
      </trkpt>
      <trkpt lat="44.81373" lon="4.02044">
        <ele>1111.42</ele>
        <time>2024-09-11T11:43:27Z</time>
      </trkpt>
      <trkpt lat="44.81368" lon="4.02048">
        <ele>1111.42</ele>
        <time>2024-09-11T11:43:35Z</time>
      </trkpt>
      <trkpt lat="44.81367" lon="4.0205">
        <ele>1110.94</ele>
        <time>2024-09-11T11:43:44Z</time>
      </trkpt>
      <trkpt lat="44.81363" lon="4.02052">
        <ele>1110.46</ele>
        <time>2024-09-11T11:43:52Z</time>
      </trkpt>
      <trkpt lat="44.81361" lon="4.02053">
        <ele>1110.46</ele>
        <time>2024-09-11T11:44:03Z</time>
      </trkpt>
      <trkpt lat="44.81359" lon="4.02056">
        <ele>1110.46</ele>
        <time>2024-09-11T11:44:10Z</time>
      </trkpt>
      <trkpt lat="44.81356" lon="4.02058">
        <ele>1110.46</ele>
        <time>2024-09-11T11:44:14Z</time>
      </trkpt>
      <trkpt lat="44.81351" lon="4.02064">
        <ele>1109.98</ele>
        <time>2024-09-11T11:44:23Z</time>
      </trkpt>
      <trkpt lat="44.8135" lon="4.02064">
        <ele>1109.98</ele>
        <time>2024-09-11T11:44:34Z</time>
      </trkpt>
      <trkpt lat="44.81346" lon="4.02064">
        <ele>1109.5</ele>
        <time>2024-09-11T11:44:40Z</time>
      </trkpt>
      <trkpt lat="44.81337" lon="4.02062">
        <ele>1109.5</ele>
        <time>2024-09-11T11:44:49Z</time>
      </trkpt>
      <trkpt lat="44.81333" lon="4.02061">
        <ele>1109.98</ele>
        <time>2024-09-11T11:44:57Z</time>
      </trkpt>
      <trkpt lat="44.8133" lon="4.02059">
        <ele>1109.98</ele>
        <time>2024-09-11T11:45:04Z</time>
      </trkpt>
      <trkpt lat="44.81323" lon="4.02056">
        <ele>1110.46</ele>
        <time>2024-09-11T11:45:13Z</time>
      </trkpt>
      <trkpt lat="44.81317" lon="4.02052">
        <ele>1110.94</ele>
        <time>2024-09-11T11:45:23Z</time>
      </trkpt>
      <trkpt lat="44.81316" lon="4.02051">
        <ele>1110.94</ele>
        <time>2024-09-11T11:45:32Z</time>
      </trkpt>
      <trkpt lat="44.81314" lon="4.02048">
        <ele>1110.94</ele>
        <time>2024-09-11T11:45:39Z</time>
      </trkpt>
      <trkpt lat="44.81312" lon="4.02047">
        <ele>1111.42</ele>
        <time>2024-09-11T11:45:48Z</time>
      </trkpt>
      <trkpt lat="44.81312" lon="4.02047">
        <ele>1110.94</ele>
        <time>2024-09-11T11:45:57Z</time>
      </trkpt>
      <trkpt lat="44.81311" lon="4.02046">
        <ele>1111.9</ele>
        <time>2024-09-11T11:46:10Z</time>
      </trkpt>
      <trkpt lat="44.81308" lon="4.02045">
        <ele>1112.38</ele>
        <time>2024-09-11T11:46:12Z</time>
      </trkpt>
      <trkpt lat="44.81302" lon="4.02039">
        <ele>1112.86</ele>
        <time>2024-09-11T11:46:19Z</time>
      </trkpt>
      <trkpt lat="44.81295" lon="4.02035">
        <ele>1112.86</ele>
        <time>2024-09-11T11:46:27Z</time>
      </trkpt>
      <trkpt lat="44.81287" lon="4.0203">
        <ele>1113.82</ele>
        <time>2024-09-11T11:46:35Z</time>
      </trkpt>
      <trkpt lat="44.81279" lon="4.02027">
        <ele>1113.82</ele>
        <time>2024-09-11T11:46:43Z</time>
      </trkpt>
      <trkpt lat="44.81273" lon="4.02021">
        <ele>1114.31</ele>
        <time>2024-09-11T11:46:51Z</time>
      </trkpt>
      <trkpt lat="44.81272" lon="4.02018">
        <ele>1114.31</ele>
        <time>2024-09-11T11:46:58Z</time>
      </trkpt>
      <trkpt lat="44.81271" lon="4.02016">
        <ele>1114.31</ele>
        <time>2024-09-11T11:47:03Z</time>
      </trkpt>
      <trkpt lat="44.8127" lon="4.02011">
        <ele>1114.79</ele>
        <time>2024-09-11T11:47:06Z</time>
      </trkpt>
      <trkpt lat="44.81268" lon="4.02007">
        <ele>1114.79</ele>
        <time>2024-09-11T11:47:09Z</time>
      </trkpt>
      <trkpt lat="44.81263" lon="4.01997">
        <ele>1115.75</ele>
        <time>2024-09-11T11:47:17Z</time>
      </trkpt>
      <trkpt lat="44.8126" lon="4.01989">
        <ele>1115.75</ele>
        <time>2024-09-11T11:47:23Z</time>
      </trkpt>
      <trkpt lat="44.81255" lon="4.01981">
        <ele>1116.23</ele>
        <time>2024-09-11T11:47:31Z</time>
      </trkpt>
      <trkpt lat="44.81252" lon="4.01977">
        <ele>1116.23</ele>
        <time>2024-09-11T11:47:40Z</time>
      </trkpt>
      <trkpt lat="44.8125" lon="4.01976">
        <ele>1116.71</ele>
        <time>2024-09-11T11:47:46Z</time>
      </trkpt>
      <trkpt lat="44.81245" lon="4.01967">
        <ele>1117.19</ele>
        <time>2024-09-11T11:47:54Z</time>
      </trkpt>
      <trkpt lat="44.81241" lon="4.01956">
        <ele>1116.71</ele>
        <time>2024-09-11T11:48:01Z</time>
      </trkpt>
      <trkpt lat="44.8124" lon="4.01954">
        <ele>1116.71</ele>
        <time>2024-09-11T11:48:02Z</time>
      </trkpt>
      <trkpt lat="44.81237" lon="4.01944">
        <ele>1117.67</ele>
        <time>2024-09-11T11:48:10Z</time>
      </trkpt>
      <trkpt lat="44.81235" lon="4.0194">
        <ele>1117.67</ele>
        <time>2024-09-11T11:48:13Z</time>
      </trkpt>
      <trkpt lat="44.81235" lon="4.01937">
        <ele>1117.67</ele>
        <time>2024-09-11T11:48:15Z</time>
      </trkpt>
      <trkpt lat="44.81233" lon="4.01935">
        <ele>1118.15</ele>
        <time>2024-09-11T11:48:17Z</time>
      </trkpt>
      <trkpt lat="44.81227" lon="4.01925">
        <ele>1118.15</ele>
        <time>2024-09-11T11:48:26Z</time>
      </trkpt>
      <trkpt lat="44.81222" lon="4.01918">
        <ele>1118.63</ele>
        <time>2024-09-11T11:48:33Z</time>
      </trkpt>
      <trkpt lat="44.8122" lon="4.01916">
        <ele>1118.63</ele>
        <time>2024-09-11T11:48:35Z</time>
      </trkpt>
      <trkpt lat="44.81214" lon="4.0191">
        <ele>1119.11</ele>
        <time>2024-09-11T11:48:43Z</time>
      </trkpt>
      <trkpt lat="44.81207" lon="4.01904">
        <ele>1119.59</ele>
        <time>2024-09-11T11:48:51Z</time>
      </trkpt>
      <trkpt lat="44.81205" lon="4.01902">
        <ele>1119.59</ele>
        <time>2024-09-11T11:48:54Z</time>
      </trkpt>
      <trkpt lat="44.81196" lon="4.01897">
        <ele>1120.07</ele>
        <time>2024-09-11T11:49:04Z</time>
      </trkpt>
      <trkpt lat="44.81191" lon="4.01893">
        <ele>1120.55</ele>
        <time>2024-09-11T11:49:11Z</time>
      </trkpt>
      <trkpt lat="44.81186" lon="4.0189">
        <ele>1121.03</ele>
        <time>2024-09-11T11:49:16Z</time>
      </trkpt>
      <trkpt lat="44.81184" lon="4.01889">
        <ele>1121.03</ele>
        <time>2024-09-11T11:49:18Z</time>
      </trkpt>
      <trkpt lat="44.81177" lon="4.01884">
        <ele>1122</ele>
        <time>2024-09-11T11:49:26Z</time>
      </trkpt>
      <trkpt lat="44.8117" lon="4.0188">
        <ele>1122.48</ele>
        <time>2024-09-11T11:49:34Z</time>
      </trkpt>
      <trkpt lat="44.81165" lon="4.01875">
        <ele>1123.44</ele>
        <time>2024-09-11T11:49:41Z</time>
      </trkpt>
      <trkpt lat="44.81159" lon="4.01871">
        <ele>1123.44</ele>
        <time>2024-09-11T11:49:48Z</time>
      </trkpt>
      <trkpt lat="44.81153" lon="4.01865">
        <ele>1123.92</ele>
        <time>2024-09-11T11:49:55Z</time>
      </trkpt>
      <trkpt lat="44.81152" lon="4.01864">
        <ele>1123.92</ele>
        <time>2024-09-11T11:49:56Z</time>
      </trkpt>
      <trkpt lat="44.8115" lon="4.01863">
        <ele>1123.92</ele>
        <time>2024-09-11T11:49:58Z</time>
      </trkpt>
      <trkpt lat="44.81143" lon="4.01857">
        <ele>1125.36</ele>
        <time>2024-09-11T11:50:06Z</time>
      </trkpt>
      <trkpt lat="44.81136" lon="4.01853">
        <ele>1125.84</ele>
        <time>2024-09-11T11:50:14Z</time>
      </trkpt>
      <trkpt lat="44.81132" lon="4.0185">
        <ele>1125.36</ele>
        <time>2024-09-11T11:50:23Z</time>
      </trkpt>
      <trkpt lat="44.81131" lon="4.01849">
        <ele>1125.84</ele>
        <time>2024-09-11T11:50:33Z</time>
      </trkpt>
      <trkpt lat="44.81128" lon="4.01849">
        <ele>1125.84</ele>
        <time>2024-09-11T11:50:38Z</time>
      </trkpt>
      <trkpt lat="44.81118" lon="4.0185">
        <ele>1126.8</ele>
        <time>2024-09-11T11:50:47Z</time>
      </trkpt>
      <trkpt lat="44.81113" lon="4.01846">
        <ele>1128.24</ele>
        <time>2024-09-11T11:50:53Z</time>
      </trkpt>
      <trkpt lat="44.81108" lon="4.01836">
        <ele>1128.24</ele>
        <time>2024-09-11T11:51:01Z</time>
      </trkpt>
      <trkpt lat="44.81104" lon="4.01828">
        <ele>1128.73</ele>
        <time>2024-09-11T11:51:08Z</time>
      </trkpt>
      <trkpt lat="44.811" lon="4.0182">
        <ele>1128.73</ele>
        <time>2024-09-11T11:51:15Z</time>
      </trkpt>
      <trkpt lat="44.81099" lon="4.01817">
        <ele>1129.21</ele>
        <time>2024-09-11T11:51:18Z</time>
      </trkpt>
      <trkpt lat="44.81097" lon="4.01813">
        <ele>1129.69</ele>
        <time>2024-09-11T11:51:21Z</time>
      </trkpt>
      <trkpt lat="44.81092" lon="4.01802">
        <ele>1130.65</ele>
        <time>2024-09-11T11:51:29Z</time>
      </trkpt>
      <trkpt lat="44.81089" lon="4.01791">
        <ele>1130.17</ele>
        <time>2024-09-11T11:51:36Z</time>
      </trkpt>
      <trkpt lat="44.81084" lon="4.0178">
        <ele>1131.13</ele>
        <time>2024-09-11T11:51:45Z</time>
      </trkpt>
      <trkpt lat="44.81082" lon="4.01777">
        <ele>1130.17</ele>
        <time>2024-09-11T11:51:48Z</time>
      </trkpt>
      <trkpt lat="44.81077" lon="4.01765">
        <ele>1130.65</ele>
        <time>2024-09-11T11:51:58Z</time>
      </trkpt>
      <trkpt lat="44.81075" lon="4.0176">
        <ele>1130.65</ele>
        <time>2024-09-11T11:52:02Z</time>
      </trkpt>
      <trkpt lat="44.81069" lon="4.01749">
        <ele>1131.61</ele>
        <time>2024-09-11T11:52:12Z</time>
      </trkpt>
      <trkpt lat="44.81067" lon="4.01744">
        <ele>1132.09</ele>
        <time>2024-09-11T11:52:16Z</time>
      </trkpt>
      <trkpt lat="44.81062" lon="4.01735">
        <ele>1132.57</ele>
        <time>2024-09-11T11:52:25Z</time>
      </trkpt>
      <trkpt lat="44.81057" lon="4.01727">
        <ele>1132.09</ele>
        <time>2024-09-11T11:52:33Z</time>
      </trkpt>
      <trkpt lat="44.81053" lon="4.0172">
        <ele>1132.57</ele>
        <time>2024-09-11T11:52:41Z</time>
      </trkpt>
      <trkpt lat="44.81049" lon="4.01713">
        <ele>1132.57</ele>
        <time>2024-09-11T11:52:48Z</time>
      </trkpt>
      <trkpt lat="44.81045" lon="4.01705">
        <ele>1133.05</ele>
        <time>2024-09-11T11:52:56Z</time>
      </trkpt>
      <trkpt lat="44.81044" lon="4.01702">
        <ele>1133.53</ele>
        <time>2024-09-11T11:52:59Z</time>
      </trkpt>
      <trkpt lat="44.81044" lon="4.01691">
        <ele>1134.49</ele>
        <time>2024-09-11T11:53:07Z</time>
      </trkpt>
      <trkpt lat="44.81043" lon="4.01682">
        <ele>1134.49</ele>
        <time>2024-09-11T11:53:15Z</time>
      </trkpt>
      <trkpt lat="44.81041" lon="4.01672">
        <ele>1135.45</ele>
        <time>2024-09-11T11:53:23Z</time>
      </trkpt>
      <trkpt lat="44.81039" lon="4.01668">
        <ele>1135.94</ele>
        <time>2024-09-11T11:53:26Z</time>
      </trkpt>
      <trkpt lat="44.81036" lon="4.01659">
        <ele>1135.94</ele>
        <time>2024-09-11T11:53:34Z</time>
      </trkpt>
      <trkpt lat="44.81033" lon="4.01655">
        <ele>1136.42</ele>
        <time>2024-09-11T11:53:38Z</time>
      </trkpt>
      <trkpt lat="44.81031" lon="4.01647">
        <ele>1136.9</ele>
        <time>2024-09-11T11:53:45Z</time>
      </trkpt>
      <trkpt lat="44.81028" lon="4.01638">
        <ele>1137.86</ele>
        <time>2024-09-11T11:53:53Z</time>
      </trkpt>
      <trkpt lat="44.81025" lon="4.0163">
        <ele>1138.34</ele>
        <time>2024-09-11T11:54:00Z</time>
      </trkpt>
      <trkpt lat="44.81021" lon="4.01621">
        <ele>1139.78</ele>
        <time>2024-09-11T11:54:08Z</time>
      </trkpt>
      <trkpt lat="44.8102" lon="4.01618">
        <ele>1139.3</ele>
        <time>2024-09-11T11:54:10Z</time>
      </trkpt>
      <trkpt lat="44.81019" lon="4.01616">
        <ele>1139.3</ele>
        <time>2024-09-11T11:54:12Z</time>
      </trkpt>
      <trkpt lat="44.81015" lon="4.01609">
        <ele>1138.82</ele>
        <time>2024-09-11T11:54:19Z</time>
      </trkpt>
      <trkpt lat="44.81012" lon="4.01602">
        <ele>1139.78</ele>
        <time>2024-09-11T11:54:26Z</time>
      </trkpt>
      <trkpt lat="44.81006" lon="4.01597">
        <ele>1139.3</ele>
        <time>2024-09-11T11:54:33Z</time>
      </trkpt>
      <trkpt lat="44.81006" lon="4.01596">
        <ele>1140.26</ele>
        <time>2024-09-11T11:54:34Z</time>
      </trkpt>
      <trkpt lat="44.81004" lon="4.01594">
        <ele>1138.82</ele>
        <time>2024-09-11T11:54:36Z</time>
      </trkpt>
      <trkpt lat="44.81003" lon="4.01593">
        <ele>1138.82</ele>
        <time>2024-09-11T11:54:38Z</time>
      </trkpt>
      <trkpt lat="44.81001" lon="4.01592">
        <ele>1139.3</ele>
        <time>2024-09-11T11:54:40Z</time>
      </trkpt>
      <trkpt lat="44.80999" lon="4.01591">
        <ele>1138.82</ele>
        <time>2024-09-11T11:54:42Z</time>
      </trkpt>
      <trkpt lat="44.80995" lon="4.01588">
        <ele>1138.82</ele>
        <time>2024-09-11T11:54:46Z</time>
      </trkpt>
      <trkpt lat="44.80986" lon="4.01587">
        <ele>1138.34</ele>
        <time>2024-09-11T11:54:55Z</time>
      </trkpt>
      <trkpt lat="44.80981" lon="4.01586">
        <ele>1138.34</ele>
        <time>2024-09-11T11:55:01Z</time>
      </trkpt>
      <trkpt lat="44.80979" lon="4.01585">
        <ele>1138.34</ele>
        <time>2024-09-11T11:55:03Z</time>
      </trkpt>
      <trkpt lat="44.8097" lon="4.01579">
        <ele>1138.34</ele>
        <time>2024-09-11T11:55:13Z</time>
      </trkpt>
      <trkpt lat="44.80963" lon="4.01574">
        <ele>1137.86</ele>
        <time>2024-09-11T11:55:21Z</time>
      </trkpt>
      <trkpt lat="44.80962" lon="4.01573">
        <ele>1137.86</ele>
        <time>2024-09-11T11:55:29Z</time>
      </trkpt>
      <trkpt lat="44.80961" lon="4.01573">
        <ele>1137.86</ele>
        <time>2024-09-11T11:55:40Z</time>
      </trkpt>
      <trkpt lat="44.80961" lon="4.01572">
        <ele>1138.34</ele>
        <time>2024-09-11T11:55:55Z</time>
      </trkpt>
      <trkpt lat="44.80957" lon="4.0157">
        <ele>1137.86</ele>
        <time>2024-09-11T11:56:07Z</time>
      </trkpt>
      <trkpt lat="44.8095" lon="4.01565">
        <ele>1138.34</ele>
        <time>2024-09-11T11:56:16Z</time>
      </trkpt>
      <trkpt lat="44.80947" lon="4.01563">
        <ele>1137.86</ele>
        <time>2024-09-11T11:56:20Z</time>
      </trkpt>
      <trkpt lat="44.80939" lon="4.01557">
        <ele>1138.82</ele>
        <time>2024-09-11T11:56:29Z</time>
      </trkpt>
      <trkpt lat="44.80932" lon="4.01552">
        <ele>1138.34</ele>
        <time>2024-09-11T11:56:37Z</time>
      </trkpt>
      <trkpt lat="44.80921" lon="4.01546">
        <ele>1137.86</ele>
        <time>2024-09-11T11:56:48Z</time>
      </trkpt>
      <trkpt lat="44.80913" lon="4.01541">
        <ele>1138.34</ele>
        <time>2024-09-11T11:56:57Z</time>
      </trkpt>
      <trkpt lat="44.80905" lon="4.01537">
        <ele>1137.86</ele>
        <time>2024-09-11T11:57:05Z</time>
      </trkpt>
      <trkpt lat="44.80904" lon="4.01536">
        <ele>1137.86</ele>
        <time>2024-09-11T11:57:07Z</time>
      </trkpt>
      <trkpt lat="44.809" lon="4.01533">
        <ele>1137.38</ele>
        <time>2024-09-11T11:57:12Z</time>
      </trkpt>
      <trkpt lat="44.80892" lon="4.01526">
        <ele>1137.86</ele>
        <time>2024-09-11T11:57:21Z</time>
      </trkpt>
      <trkpt lat="44.80886" lon="4.01517">
        <ele>1137.38</ele>
        <time>2024-09-11T11:57:30Z</time>
      </trkpt>
      <trkpt lat="44.80881" lon="4.01509">
        <ele>1137.38</ele>
        <time>2024-09-11T11:57:38Z</time>
      </trkpt>
      <trkpt lat="44.80877" lon="4.01498">
        <ele>1137.38</ele>
        <time>2024-09-11T11:57:47Z</time>
      </trkpt>
      <trkpt lat="44.80874" lon="4.01487">
        <ele>1136.9</ele>
        <time>2024-09-11T11:57:55Z</time>
      </trkpt>
      <trkpt lat="44.80872" lon="4.01476">
        <ele>1137.38</ele>
        <time>2024-09-11T11:58:03Z</time>
      </trkpt>
      <trkpt lat="44.80869" lon="4.01466">
        <ele>1136.9</ele>
        <time>2024-09-11T11:58:11Z</time>
      </trkpt>
      <trkpt lat="44.80865" lon="4.01453">
        <ele>1135.94</ele>
        <time>2024-09-11T11:58:20Z</time>
      </trkpt>
      <trkpt lat="44.80864" lon="4.01452">
        <ele>1135.45</ele>
        <time>2024-09-11T11:58:22Z</time>
      </trkpt>
      <trkpt lat="44.8086" lon="4.01438">
        <ele>1134.97</ele>
        <time>2024-09-11T11:58:32Z</time>
      </trkpt>
      <trkpt lat="44.80857" lon="4.01427">
        <ele>1135.45</ele>
        <time>2024-09-11T11:58:40Z</time>
      </trkpt>
      <trkpt lat="44.80855" lon="4.01422">
        <ele>1134.49</ele>
        <time>2024-09-11T11:58:44Z</time>
      </trkpt>
      <trkpt lat="44.80853" lon="4.01411">
        <ele>1134.97</ele>
        <time>2024-09-11T11:58:52Z</time>
      </trkpt>
      <trkpt lat="44.80851" lon="4.014">
        <ele>1135.94</ele>
        <time>2024-09-11T11:59:00Z</time>
      </trkpt>
      <trkpt lat="44.80849" lon="4.01389">
        <ele>1134.01</ele>
        <time>2024-09-11T11:59:09Z</time>
      </trkpt>
      <trkpt lat="44.80849" lon="4.01387">
        <ele>1134.49</ele>
        <time>2024-09-11T11:59:11Z</time>
      </trkpt>
      <trkpt lat="44.80849" lon="4.01385">
        <ele>1134.49</ele>
        <time>2024-09-11T11:59:13Z</time>
      </trkpt>
      <trkpt lat="44.80848" lon="4.01379">
        <ele>1134.49</ele>
        <time>2024-09-11T11:59:18Z</time>
      </trkpt>
      <trkpt lat="44.80846" lon="4.01369">
        <ele>1134.01</ele>
        <time>2024-09-11T11:59:27Z</time>
      </trkpt>
      <trkpt lat="44.80845" lon="4.01368">
        <ele>1133.53</ele>
        <time>2024-09-11T11:59:43Z</time>
      </trkpt>
      <trkpt lat="44.80845" lon="4.01368">
        <ele>1134.01</ele>
        <time>2024-09-11T11:59:57Z</time>
      </trkpt>
      <trkpt lat="44.80845" lon="4.01367">
        <ele>1134.49</ele>
        <time>2024-09-11T12:00:12Z</time>
      </trkpt>
      <trkpt lat="44.80845" lon="4.01367">
        <ele>1134.49</ele>
        <time>2024-09-11T12:00:28Z</time>
      </trkpt>
      <trkpt lat="44.80845" lon="4.01366">
        <ele>1134.01</ele>
        <time>2024-09-11T12:00:45Z</time>
      </trkpt>
      <trkpt lat="44.80845" lon="4.01366">
        <ele>1134.49</ele>
        <time>2024-09-11T12:00:57Z</time>
      </trkpt>
      <trkpt lat="44.80845" lon="4.01366">
        <ele>1133.53</ele>
        <time>2024-09-11T12:01:13Z</time>
      </trkpt>
      <trkpt lat="44.80845" lon="4.01366">
        <ele>1134.49</ele>
        <time>2024-09-11T12:01:30Z</time>
      </trkpt>
      <trkpt lat="44.80844" lon="4.01361">
        <ele>1134.49</ele>
        <time>2024-09-11T12:01:37Z</time>
      </trkpt>
      <trkpt lat="44.80843" lon="4.01359">
        <ele>1134.01</ele>
        <time>2024-09-11T12:01:39Z</time>
      </trkpt>
      <trkpt lat="44.80841" lon="4.01357">
        <ele>1134.01</ele>
        <time>2024-09-11T12:01:41Z</time>
      </trkpt>
      <trkpt lat="44.80835" lon="4.01347">
        <ele>1134.01</ele>
        <time>2024-09-11T12:01:49Z</time>
      </trkpt>
      <trkpt lat="44.80833" lon="4.01345">
        <ele>1134.01</ele>
        <time>2024-09-11T12:01:52Z</time>
      </trkpt>
      <trkpt lat="44.80826" lon="4.01343">
        <ele>1134.01</ele>
        <time>2024-09-11T12:01:59Z</time>
      </trkpt>
      <trkpt lat="44.80818" lon="4.01341">
        <ele>1134.01</ele>
        <time>2024-09-11T12:02:08Z</time>
      </trkpt>
      <trkpt lat="44.80809" lon="4.01339">
        <ele>1134.01</ele>
        <time>2024-09-11T12:02:18Z</time>
      </trkpt>
      <trkpt lat="44.80801" lon="4.01338">
        <ele>1133.05</ele>
        <time>2024-09-11T12:02:28Z</time>
      </trkpt>
      <trkpt lat="44.80794" lon="4.01338">
        <ele>1133.05</ele>
        <time>2024-09-11T12:02:36Z</time>
      </trkpt>
      <trkpt lat="44.80787" lon="4.01336">
        <ele>1132.57</ele>
        <time>2024-09-11T12:02:46Z</time>
      </trkpt>
      <trkpt lat="44.80781" lon="4.01334">
        <ele>1132.09</ele>
        <time>2024-09-11T12:02:54Z</time>
      </trkpt>
      <trkpt lat="44.80774" lon="4.01332">
        <ele>1131.61</ele>
        <time>2024-09-11T12:03:02Z</time>
      </trkpt>
      <trkpt lat="44.80767" lon="4.01329">
        <ele>1131.13</ele>
        <time>2024-09-11T12:03:11Z</time>
      </trkpt>
      <trkpt lat="44.8076" lon="4.01325">
        <ele>1130.65</ele>
        <time>2024-09-11T12:03:20Z</time>
      </trkpt>
      <trkpt lat="44.80757" lon="4.01322">
        <ele>1131.13</ele>
        <time>2024-09-11T12:03:23Z</time>
      </trkpt>
      <trkpt lat="44.80751" lon="4.01316">
        <ele>1129.21</ele>
        <time>2024-09-11T12:03:32Z</time>
      </trkpt>
      <trkpt lat="44.80743" lon="4.0131">
        <ele>1128.24</ele>
        <time>2024-09-11T12:03:43Z</time>
      </trkpt>
      <trkpt lat="44.80738" lon="4.01306">
        <ele>1128.24</ele>
        <time>2024-09-11T12:03:50Z</time>
      </trkpt>
      <trkpt lat="44.80732" lon="4.01303">
        <ele>1127.28</ele>
        <time>2024-09-11T12:03:57Z</time>
      </trkpt>
      <trkpt lat="44.80724" lon="4.01302">
        <ele>1126.32</ele>
        <time>2024-09-11T12:04:07Z</time>
      </trkpt>
      <trkpt lat="44.80719" lon="4.013">
        <ele>1125.84</ele>
        <time>2024-09-11T12:04:12Z</time>
      </trkpt>
      <trkpt lat="44.80712" lon="4.013">
        <ele>1124.4</ele>
        <time>2024-09-11T12:04:20Z</time>
      </trkpt>
      <trkpt lat="44.80703" lon="4.01297">
        <ele>1123.44</ele>
        <time>2024-09-11T12:04:30Z</time>
      </trkpt>
      <trkpt lat="44.80703" lon="4.01297">
        <ele>1123.44</ele>
        <time>2024-09-11T12:04:31Z</time>
      </trkpt>
      <trkpt lat="44.80701" lon="4.01296">
        <ele>1122.96</ele>
        <time>2024-09-11T12:04:34Z</time>
      </trkpt>
      <trkpt lat="44.80694" lon="4.01297">
        <ele>1122</ele>
        <time>2024-09-11T12:04:43Z</time>
      </trkpt>
      <trkpt lat="44.80685" lon="4.01299">
        <ele>1121.03</ele>
        <time>2024-09-11T12:04:53Z</time>
      </trkpt>
      <trkpt lat="44.80679" lon="4.01299">
        <ele>1120.07</ele>
        <time>2024-09-11T12:05:03Z</time>
      </trkpt>
      <trkpt lat="44.80673" lon="4.01299">
        <ele>1119.59</ele>
        <time>2024-09-11T12:05:12Z</time>
      </trkpt>
      <trkpt lat="44.80668" lon="4.01299">
        <ele>1119.11</ele>
        <time>2024-09-11T12:05:19Z</time>
      </trkpt>
      <trkpt lat="44.80661" lon="4.01299">
        <ele>1118.15</ele>
        <time>2024-09-11T12:05:28Z</time>
      </trkpt>
      <trkpt lat="44.80654" lon="4.013">
        <ele>1117.67</ele>
        <time>2024-09-11T12:05:36Z</time>
      </trkpt>
      <trkpt lat="44.80646" lon="4.01302">
        <ele>1117.19</ele>
        <time>2024-09-11T12:05:45Z</time>
      </trkpt>
      <trkpt lat="44.80642" lon="4.01304">
        <ele>1116.71</ele>
        <time>2024-09-11T12:05:53Z</time>
      </trkpt>
      <trkpt lat="44.80638" lon="4.01307">
        <ele>1117.19</ele>
        <time>2024-09-11T12:06:01Z</time>
      </trkpt>
      <trkpt lat="44.80638" lon="4.01308">
        <ele>1116.23</ele>
        <time>2024-09-11T12:06:10Z</time>
      </trkpt>
      <trkpt lat="44.80638" lon="4.01308">
        <ele>1116.23</ele>
        <time>2024-09-11T12:06:22Z</time>
      </trkpt>
      <trkpt lat="44.80638" lon="4.01307">
        <ele>1115.27</ele>
        <time>2024-09-11T12:06:37Z</time>
      </trkpt>
      <trkpt lat="44.80638" lon="4.01307">
        <ele>1116.23</ele>
        <time>2024-09-11T12:06:51Z</time>
      </trkpt>
      <trkpt lat="44.80638" lon="4.01307">
        <ele>1115.75</ele>
        <time>2024-09-11T12:07:07Z</time>
      </trkpt>
      <trkpt lat="44.80638" lon="4.01307">
        <ele>1117.19</ele>
        <time>2024-09-11T12:07:23Z</time>
      </trkpt>
      <trkpt lat="44.80638" lon="4.01307">
        <ele>1115.75</ele>
        <time>2024-09-11T12:07:38Z</time>
      </trkpt>
      <trkpt lat="44.80637" lon="4.01307">
        <ele>1117.67</ele>
        <time>2024-09-11T12:07:51Z</time>
      </trkpt>
      <trkpt lat="44.80637" lon="4.01308">
        <ele>1118.15</ele>
        <time>2024-09-11T12:08:01Z</time>
      </trkpt>
      <trkpt lat="44.80637" lon="4.01308">
        <ele>1117.19</ele>
        <time>2024-09-11T12:08:17Z</time>
      </trkpt>
      <trkpt lat="44.80637" lon="4.01308">
        <ele>1117.67</ele>
        <time>2024-09-11T12:08:27Z</time>
      </trkpt>
      <trkpt lat="44.80637" lon="4.01307">
        <ele>1117.67</ele>
        <time>2024-09-11T12:08:45Z</time>
      </trkpt>
      <trkpt lat="44.80637" lon="4.01307">
        <ele>1118.15</ele>
        <time>2024-09-11T12:08:57Z</time>
      </trkpt>
      <trkpt lat="44.80637" lon="4.01307">
        <ele>1117.67</ele>
        <time>2024-09-11T12:09:12Z</time>
      </trkpt>
      <trkpt lat="44.80637" lon="4.01307">
        <ele>1117.19</ele>
        <time>2024-09-11T12:09:20Z</time>
      </trkpt>
      <trkpt lat="44.80637" lon="4.01307">
        <ele>1117.19</ele>
        <time>2024-09-11T12:09:39Z</time>
      </trkpt>
      <trkpt lat="44.80637" lon="4.01307">
        <ele>1117.19</ele>
        <time>2024-09-11T12:09:53Z</time>
      </trkpt>
      <trkpt lat="44.80637" lon="4.01307">
        <ele>1117.19</ele>
        <time>2024-09-11T12:10:01Z</time>
      </trkpt>
      <trkpt lat="44.80632" lon="4.0131">
        <ele>1116.71</ele>
        <time>2024-09-11T12:10:08Z</time>
      </trkpt>
      <trkpt lat="44.80627" lon="4.01316">
        <ele>1116.23</ele>
        <time>2024-09-11T12:10:16Z</time>
      </trkpt>
      <trkpt lat="44.80621" lon="4.0132">
        <ele>1115.75</ele>
        <time>2024-09-11T12:10:24Z</time>
      </trkpt>
      <trkpt lat="44.80617" lon="4.01321">
        <ele>1114.79</ele>
        <time>2024-09-11T12:10:29Z</time>
      </trkpt>
      <trkpt lat="44.8061" lon="4.01318">
        <ele>1114.31</ele>
        <time>2024-09-11T12:10:38Z</time>
      </trkpt>
      <trkpt lat="44.80607" lon="4.01314">
        <ele>1113.82</ele>
        <time>2024-09-11T12:10:43Z</time>
      </trkpt>
      <trkpt lat="44.80602" lon="4.01306">
        <ele>1114.31</ele>
        <time>2024-09-11T12:10:51Z</time>
      </trkpt>
      <trkpt lat="44.80598" lon="4.01299">
        <ele>1114.31</ele>
        <time>2024-09-11T12:10:59Z</time>
      </trkpt>
      <trkpt lat="44.80594" lon="4.01291">
        <ele>1114.31</ele>
        <time>2024-09-11T12:11:07Z</time>
      </trkpt>
      <trkpt lat="44.8059" lon="4.01284">
        <ele>1113.82</ele>
        <time>2024-09-11T12:11:16Z</time>
      </trkpt>
      <trkpt lat="44.80588" lon="4.01279">
        <ele>1114.79</ele>
        <time>2024-09-11T12:11:23Z</time>
      </trkpt>
      <trkpt lat="44.80584" lon="4.01272">
        <ele>1114.31</ele>
        <time>2024-09-11T12:11:30Z</time>
      </trkpt>
      <trkpt lat="44.80581" lon="4.01269">
        <ele>1113.82</ele>
        <time>2024-09-11T12:11:34Z</time>
      </trkpt>
      <trkpt lat="44.80575" lon="4.01263">
        <ele>1113.82</ele>
        <time>2024-09-11T12:11:43Z</time>
      </trkpt>
      <trkpt lat="44.80569" lon="4.01259">
        <ele>1114.79</ele>
        <time>2024-09-11T12:11:52Z</time>
      </trkpt>
      <trkpt lat="44.80561" lon="4.01257">
        <ele>1116.23</ele>
        <time>2024-09-11T12:12:01Z</time>
      </trkpt>
      <trkpt lat="44.80554" lon="4.01255">
        <ele>1115.75</ele>
        <time>2024-09-11T12:12:10Z</time>
      </trkpt>
      <trkpt lat="44.8055" lon="4.01254">
        <ele>1116.23</ele>
        <time>2024-09-11T12:12:19Z</time>
      </trkpt>
      <trkpt lat="44.80544" lon="4.01251">
        <ele>1117.19</ele>
        <time>2024-09-11T12:12:27Z</time>
      </trkpt>
      <trkpt lat="44.8054" lon="4.01248">
        <ele>1118.15</ele>
        <time>2024-09-11T12:12:34Z</time>
      </trkpt>
      <trkpt lat="44.80534" lon="4.01244">
        <ele>1119.11</ele>
        <time>2024-09-11T12:12:44Z</time>
      </trkpt>
      <trkpt lat="44.8053" lon="4.01244">
        <ele>1120.55</ele>
        <time>2024-09-11T12:12:52Z</time>
      </trkpt>
      <trkpt lat="44.80526" lon="4.0124">
        <ele>1121.03</ele>
        <time>2024-09-11T12:12:59Z</time>
      </trkpt>
      <trkpt lat="44.80522" lon="4.01237">
        <ele>1121.52</ele>
        <time>2024-09-11T12:13:06Z</time>
      </trkpt>
      <trkpt lat="44.80515" lon="4.01233">
        <ele>1122.48</ele>
        <time>2024-09-11T12:13:15Z</time>
      </trkpt>
      <trkpt lat="44.80511" lon="4.01229">
        <ele>1123.92</ele>
        <time>2024-09-11T12:13:24Z</time>
      </trkpt>
      <trkpt lat="44.80506" lon="4.01224">
        <ele>1124.4</ele>
        <time>2024-09-11T12:13:32Z</time>
      </trkpt>
      <trkpt lat="44.80503" lon="4.0122">
        <ele>1124.88</ele>
        <time>2024-09-11T12:13:41Z</time>
      </trkpt>
      <trkpt lat="44.80498" lon="4.01217">
        <ele>1125.84</ele>
        <time>2024-09-11T12:13:48Z</time>
      </trkpt>
      <trkpt lat="44.80493" lon="4.01214">
        <ele>1126.32</ele>
        <time>2024-09-11T12:13:55Z</time>
      </trkpt>
      <trkpt lat="44.80492" lon="4.01212">
        <ele>1127.76</ele>
        <time>2024-09-11T12:14:03Z</time>
      </trkpt>
      <trkpt lat="44.8049" lon="4.01203">
        <ele>1128.73</ele>
        <time>2024-09-11T12:14:11Z</time>
      </trkpt>
      <trkpt lat="44.80494" lon="4.01191">
        <ele>1128.73</ele>
        <time>2024-09-11T12:14:21Z</time>
      </trkpt>
      <trkpt lat="44.80495" lon="4.0118">
        <ele>1129.21</ele>
        <time>2024-09-11T12:14:29Z</time>
      </trkpt>
      <trkpt lat="44.80497" lon="4.0117">
        <ele>1129.21</ele>
        <time>2024-09-11T12:14:37Z</time>
      </trkpt>
      <trkpt lat="44.80498" lon="4.01156">
        <ele>1129.21</ele>
        <time>2024-09-11T12:14:47Z</time>
      </trkpt>
      <trkpt lat="44.80497" lon="4.0115">
        <ele>1129.69</ele>
        <time>2024-09-11T12:14:53Z</time>
      </trkpt>
      <trkpt lat="44.80497" lon="4.01136">
        <ele>1129.69</ele>
        <time>2024-09-11T12:15:02Z</time>
      </trkpt>
      <trkpt lat="44.80498" lon="4.01129">
        <ele>1130.17</ele>
        <time>2024-09-11T12:15:07Z</time>
      </trkpt>
      <trkpt lat="44.80499" lon="4.01119">
        <ele>1130.17</ele>
        <time>2024-09-11T12:15:15Z</time>
      </trkpt>
      <trkpt lat="44.805" lon="4.01112">
        <ele>1130.65</ele>
        <time>2024-09-11T12:15:23Z</time>
      </trkpt>
      <trkpt lat="44.805" lon="4.01112">
        <ele>1130.17</ele>
        <time>2024-09-11T12:15:32Z</time>
      </trkpt>
      <trkpt lat="44.805" lon="4.01113">
        <ele>1130.17</ele>
        <time>2024-09-11T12:15:42Z</time>
      </trkpt>
      <trkpt lat="44.80501" lon="4.01112">
        <ele>1130.17</ele>
        <time>2024-09-11T12:15:59Z</time>
      </trkpt>
      <trkpt lat="44.80501" lon="4.01112">
        <ele>1129.69</ele>
        <time>2024-09-11T12:16:15Z</time>
      </trkpt>
      <trkpt lat="44.80501" lon="4.01113">
        <ele>1130.17</ele>
        <time>2024-09-11T12:16:29Z</time>
      </trkpt>
      <trkpt lat="44.80501" lon="4.01114">
        <ele>1130.17</ele>
        <time>2024-09-11T12:16:42Z</time>
      </trkpt>
      <trkpt lat="44.80501" lon="4.01114">
        <ele>1130.17</ele>
        <time>2024-09-11T12:16:54Z</time>
      </trkpt>
      <trkpt lat="44.80502" lon="4.01111">
        <ele>1130.17</ele>
        <time>2024-09-11T12:17:02Z</time>
      </trkpt>
      <trkpt lat="44.80503" lon="4.01105">
        <ele>1130.17</ele>
        <time>2024-09-11T12:17:15Z</time>
      </trkpt>
      <trkpt lat="44.80504" lon="4.01095">
        <ele>1130.17</ele>
        <time>2024-09-11T12:17:22Z</time>
      </trkpt>
      <trkpt lat="44.80505" lon="4.01085">
        <ele>1130.17</ele>
        <time>2024-09-11T12:17:29Z</time>
      </trkpt>
      <trkpt lat="44.80505" lon="4.01073">
        <ele>1130.65</ele>
        <time>2024-09-11T12:17:37Z</time>
      </trkpt>
      <trkpt lat="44.80506" lon="4.01062">
        <ele>1130.65</ele>
        <time>2024-09-11T12:17:45Z</time>
      </trkpt>
      <trkpt lat="44.80508" lon="4.01051">
        <ele>1130.65</ele>
        <time>2024-09-11T12:17:55Z</time>
      </trkpt>
      <trkpt lat="44.8051" lon="4.01041">
        <ele>1131.13</ele>
        <time>2024-09-11T12:18:04Z</time>
      </trkpt>
      <trkpt lat="44.80511" lon="4.01027">
        <ele>1130.65</ele>
        <time>2024-09-11T12:18:13Z</time>
      </trkpt>
      <trkpt lat="44.80514" lon="4.01013">
        <ele>1131.13</ele>
        <time>2024-09-11T12:18:23Z</time>
      </trkpt>
      <trkpt lat="44.80516" lon="4.01004">
        <ele>1131.61</ele>
        <time>2024-09-11T12:18:30Z</time>
      </trkpt>
      <trkpt lat="44.80519" lon="4.00989">
        <ele>1132.09</ele>
        <time>2024-09-11T12:18:41Z</time>
      </trkpt>
      <trkpt lat="44.80521" lon="4.00981">
        <ele>1132.57</ele>
        <time>2024-09-11T12:18:48Z</time>
      </trkpt>
      <trkpt lat="44.80522" lon="4.00974">
        <ele>1133.05</ele>
        <time>2024-09-11T12:18:53Z</time>
      </trkpt>
      <trkpt lat="44.80526" lon="4.00963">
        <ele>1133.05</ele>
        <time>2024-09-11T12:19:02Z</time>
      </trkpt>
      <trkpt lat="44.80529" lon="4.0095">
        <ele>1133.53</ele>
        <time>2024-09-11T12:19:13Z</time>
      </trkpt>
      <trkpt lat="44.8053" lon="4.00941">
        <ele>1133.53</ele>
        <time>2024-09-11T12:19:21Z</time>
      </trkpt>
      <trkpt lat="44.80533" lon="4.00933">
        <ele>1134.49</ele>
        <time>2024-09-11T12:19:29Z</time>
      </trkpt>
      <trkpt lat="44.80536" lon="4.00925">
        <ele>1134.97</ele>
        <time>2024-09-11T12:19:37Z</time>
      </trkpt>
      <trkpt lat="44.80537" lon="4.00914">
        <ele>1135.45</ele>
        <time>2024-09-11T12:19:45Z</time>
      </trkpt>
      <trkpt lat="44.8054" lon="4.00907">
        <ele>1136.42</ele>
        <time>2024-09-11T12:19:52Z</time>
      </trkpt>
      <trkpt lat="44.80541" lon="4.00899">
        <ele>1137.86</ele>
        <time>2024-09-11T12:19:59Z</time>
      </trkpt>
      <trkpt lat="44.80541" lon="4.0089">
        <ele>1137.86</ele>
        <time>2024-09-11T12:20:07Z</time>
      </trkpt>
      <trkpt lat="44.8054" lon="4.00883">
        <ele>1138.34</ele>
        <time>2024-09-11T12:20:15Z</time>
      </trkpt>
      <trkpt lat="44.80539" lon="4.00876">
        <ele>1138.82</ele>
        <time>2024-09-11T12:20:22Z</time>
      </trkpt>
      <trkpt lat="44.8054" lon="4.00867">
        <ele>1139.78</ele>
        <time>2024-09-11T12:20:32Z</time>
      </trkpt>
      <trkpt lat="44.80541" lon="4.00856">
        <ele>1140.26</ele>
        <time>2024-09-11T12:20:40Z</time>
      </trkpt>
      <trkpt lat="44.80543" lon="4.00849">
        <ele>1140.74</ele>
        <time>2024-09-11T12:20:46Z</time>
      </trkpt>
      <trkpt lat="44.80545" lon="4.00838">
        <ele>1140.74</ele>
        <time>2024-09-11T12:20:55Z</time>
      </trkpt>
      <trkpt lat="44.80546" lon="4.00826">
        <ele>1141.7</ele>
        <time>2024-09-11T12:21:04Z</time>
      </trkpt>
      <trkpt lat="44.80547" lon="4.00821">
        <ele>1141.7</ele>
        <time>2024-09-11T12:21:11Z</time>
      </trkpt>
      <trkpt lat="44.80546" lon="4.0082">
        <ele>1142.66</ele>
        <time>2024-09-11T12:21:19Z</time>
      </trkpt>
      <trkpt lat="44.80544" lon="4.00824">
        <ele>1143.63</ele>
        <time>2024-09-11T12:21:26Z</time>
      </trkpt>
      <trkpt lat="44.80542" lon="4.0083">
        <ele>1143.63</ele>
        <time>2024-09-11T12:21:34Z</time>
      </trkpt>
      <trkpt lat="44.8054" lon="4.00832">
        <ele>1144.11</ele>
        <time>2024-09-11T12:21:43Z</time>
      </trkpt>
      <trkpt lat="44.80538" lon="4.00834">
        <ele>1144.59</ele>
        <time>2024-09-11T12:21:58Z</time>
      </trkpt>
      <trkpt lat="44.80533" lon="4.00837">
        <ele>1144.59</ele>
        <time>2024-09-11T12:22:05Z</time>
      </trkpt>
      <trkpt lat="44.80525" lon="4.00845">
        <ele>1145.07</ele>
        <time>2024-09-11T12:22:13Z</time>
      </trkpt>
      <trkpt lat="44.8052" lon="4.0085">
        <ele>1146.03</ele>
        <time>2024-09-11T12:22:21Z</time>
      </trkpt>
      <trkpt lat="44.80513" lon="4.00856">
        <ele>1146.51</ele>
        <time>2024-09-11T12:22:28Z</time>
      </trkpt>
      <trkpt lat="44.80506" lon="4.00862">
        <ele>1146.99</ele>
        <time>2024-09-11T12:22:37Z</time>
      </trkpt>
      <trkpt lat="44.805" lon="4.00868">
        <ele>1147.95</ele>
        <time>2024-09-11T12:22:43Z</time>
      </trkpt>
      <trkpt lat="44.80494" lon="4.00872">
        <ele>1149.39</ele>
        <time>2024-09-11T12:22:51Z</time>
      </trkpt>
      <trkpt lat="44.80489" lon="4.00875">
        <ele>1149.87</ele>
        <time>2024-09-11T12:23:01Z</time>
      </trkpt>
      <trkpt lat="44.80483" lon="4.00879">
        <ele>1150.35</ele>
        <time>2024-09-11T12:23:09Z</time>
      </trkpt>
      <trkpt lat="44.80477" lon="4.00884">
        <ele>1150.35</ele>
        <time>2024-09-11T12:23:18Z</time>
      </trkpt>
      <trkpt lat="44.80471" lon="4.00888">
        <ele>1152.28</ele>
        <time>2024-09-11T12:23:26Z</time>
      </trkpt>
      <trkpt lat="44.80464" lon="4.00891">
        <ele>1152.28</ele>
        <time>2024-09-11T12:23:33Z</time>
      </trkpt>
      <trkpt lat="44.80455" lon="4.00899">
        <ele>1152.76</ele>
        <time>2024-09-11T12:23:43Z</time>
      </trkpt>
      <trkpt lat="44.80451" lon="4.00902">
        <ele>1152.76</ele>
        <time>2024-09-11T12:23:51Z</time>
      </trkpt>
      <trkpt lat="44.80443" lon="4.00911">
        <ele>1153.24</ele>
        <time>2024-09-11T12:24:02Z</time>
      </trkpt>
      <trkpt lat="44.80437" lon="4.00918">
        <ele>1153.72</ele>
        <time>2024-09-11T12:24:10Z</time>
      </trkpt>
      <trkpt lat="44.80432" lon="4.00926">
        <ele>1154.2</ele>
        <time>2024-09-11T12:24:19Z</time>
      </trkpt>
      <trkpt lat="44.80429" lon="4.00932">
        <ele>1154.68</ele>
        <time>2024-09-11T12:24:25Z</time>
      </trkpt>
      <trkpt lat="44.80424" lon="4.00939">
        <ele>1155.16</ele>
        <time>2024-09-11T12:24:32Z</time>
      </trkpt>
      <trkpt lat="44.80421" lon="4.00942">
        <ele>1155.16</ele>
        <time>2024-09-11T12:24:40Z</time>
      </trkpt>
      <trkpt lat="44.80421" lon="4.00943">
        <ele>1155.64</ele>
        <time>2024-09-11T12:24:50Z</time>
      </trkpt>
      <trkpt lat="44.80421" lon="4.00945">
        <ele>1155.64</ele>
        <time>2024-09-11T12:25:05Z</time>
      </trkpt>
      <trkpt lat="44.80419" lon="4.00946">
        <ele>1156.12</ele>
        <time>2024-09-11T12:25:15Z</time>
      </trkpt>
      <trkpt lat="44.80418" lon="4.00946">
        <ele>1155.64</ele>
        <time>2024-09-11T12:25:30Z</time>
      </trkpt>
      <trkpt lat="44.80419" lon="4.00946">
        <ele>1156.12</ele>
        <time>2024-09-11T12:25:42Z</time>
      </trkpt>
      <trkpt lat="44.80419" lon="4.00946">
        <ele>1156.12</ele>
        <time>2024-09-11T12:25:54Z</time>
      </trkpt>
      <trkpt lat="44.80418" lon="4.00945">
        <ele>1155.64</ele>
        <time>2024-09-11T12:26:06Z</time>
      </trkpt>
      <trkpt lat="44.80418" lon="4.00945">
        <ele>1156.12</ele>
        <time>2024-09-11T12:26:20Z</time>
      </trkpt>
      <trkpt lat="44.80418" lon="4.00946">
        <ele>1156.6</ele>
        <time>2024-09-11T12:26:35Z</time>
      </trkpt>
      <trkpt lat="44.80418" lon="4.00945">
        <ele>1156.12</ele>
        <time>2024-09-11T12:26:50Z</time>
      </trkpt>
      <trkpt lat="44.80418" lon="4.00945">
        <ele>1156.12</ele>
        <time>2024-09-11T12:27:04Z</time>
      </trkpt>
      <trkpt lat="44.80418" lon="4.00945">
        <ele>1155.64</ele>
        <time>2024-09-11T12:27:18Z</time>
      </trkpt>
      <trkpt lat="44.80418" lon="4.00944">
        <ele>1155.64</ele>
        <time>2024-09-11T12:27:32Z</time>
      </trkpt>
      <trkpt lat="44.80418" lon="4.00945">
        <ele>1155.64</ele>
        <time>2024-09-11T12:27:51Z</time>
      </trkpt>
      <trkpt lat="44.80417" lon="4.00946">
        <ele>1155.16</ele>
        <time>2024-09-11T12:28:06Z</time>
      </trkpt>
      <trkpt lat="44.80415" lon="4.00953">
        <ele>1155.16</ele>
        <time>2024-09-11T12:28:11Z</time>
      </trkpt>
      <trkpt lat="44.80413" lon="4.00959">
        <ele>1156.12</ele>
        <time>2024-09-11T12:28:18Z</time>
      </trkpt>
      <trkpt lat="44.80408" lon="4.00967">
        <ele>1156.6</ele>
        <time>2024-09-11T12:28:28Z</time>
      </trkpt>
      <trkpt lat="44.80404" lon="4.00978">
        <ele>1157.08</ele>
        <time>2024-09-11T12:28:37Z</time>
      </trkpt>
      <trkpt lat="44.80398" lon="4.00986">
        <ele>1157.56</ele>
        <time>2024-09-11T12:28:47Z</time>
      </trkpt>
      <trkpt lat="44.80392" lon="4.00995">
        <ele>1158.05</ele>
        <time>2024-09-11T12:28:57Z</time>
      </trkpt>
      <trkpt lat="44.80387" lon="4.01005">
        <ele>1158.53</ele>
        <time>2024-09-11T12:29:07Z</time>
      </trkpt>
      <trkpt lat="44.80386" lon="4.01014">
        <ele>1159.01</ele>
        <time>2024-09-11T12:29:14Z</time>
      </trkpt>
      <trkpt lat="44.80384" lon="4.01023">
        <ele>1158.53</ele>
        <time>2024-09-11T12:29:23Z</time>
      </trkpt>
      <trkpt lat="44.80379" lon="4.01033">
        <ele>1159.01</ele>
        <time>2024-09-11T12:29:33Z</time>
      </trkpt>
      <trkpt lat="44.80375" lon="4.01039">
        <ele>1159.97</ele>
        <time>2024-09-11T12:29:40Z</time>
      </trkpt>
      <trkpt lat="44.80369" lon="4.01051">
        <ele>1160.93</ele>
        <time>2024-09-11T12:29:50Z</time>
      </trkpt>
      <trkpt lat="44.80363" lon="4.01058">
        <ele>1161.89</ele>
        <time>2024-09-11T12:29:59Z</time>
      </trkpt>
      <trkpt lat="44.8036" lon="4.01069">
        <ele>1161.89</ele>
        <time>2024-09-11T12:30:09Z</time>
      </trkpt>
      <trkpt lat="44.80354" lon="4.01079">
        <ele>1162.37</ele>
        <time>2024-09-11T12:30:17Z</time>
      </trkpt>
      <trkpt lat="44.80348" lon="4.01088">
        <ele>1162.37</ele>
        <time>2024-09-11T12:30:27Z</time>
      </trkpt>
      <trkpt lat="44.80341" lon="4.01093">
        <ele>1163.33</ele>
        <time>2024-09-11T12:30:35Z</time>
      </trkpt>
      <trkpt lat="44.80337" lon="4.01095">
        <ele>1163.81</ele>
        <time>2024-09-11T12:30:44Z</time>
      </trkpt>
      <trkpt lat="44.8033" lon="4.01101">
        <ele>1163.81</ele>
        <time>2024-09-11T12:30:51Z</time>
      </trkpt>
      <trkpt lat="44.80325" lon="4.01107">
        <ele>1163.81</ele>
        <time>2024-09-11T12:31:00Z</time>
      </trkpt>
      <trkpt lat="44.80327" lon="4.01107">
        <ele>1163.81</ele>
        <time>2024-09-11T12:31:11Z</time>
      </trkpt>
      <trkpt lat="44.80323" lon="4.01114">
        <ele>1163.81</ele>
        <time>2024-09-11T12:31:19Z</time>
      </trkpt>
      <trkpt lat="44.80323" lon="4.0112">
        <ele>1163.81</ele>
        <time>2024-09-11T12:31:26Z</time>
      </trkpt>
      <trkpt lat="44.8032" lon="4.01131">
        <ele>1163.33</ele>
        <time>2024-09-11T12:31:35Z</time>
      </trkpt>
      <trkpt lat="44.80318" lon="4.01143">
        <ele>1162.85</ele>
        <time>2024-09-11T12:31:45Z</time>
      </trkpt>
      <trkpt lat="44.80314" lon="4.01153">
        <ele>1162.85</ele>
        <time>2024-09-11T12:31:54Z</time>
      </trkpt>
      <trkpt lat="44.80312" lon="4.01161">
        <ele>1162.37</ele>
        <time>2024-09-11T12:32:02Z</time>
      </trkpt>
      <trkpt lat="44.80312" lon="4.01172">
        <ele>1161.41</ele>
        <time>2024-09-11T12:32:10Z</time>
      </trkpt>
      <trkpt lat="44.80307" lon="4.01181">
        <ele>1160.93</ele>
        <time>2024-09-11T12:32:18Z</time>
      </trkpt>
      <trkpt lat="44.80307" lon="4.01191">
        <ele>1161.41</ele>
        <time>2024-09-11T12:32:26Z</time>
      </trkpt>
      <trkpt lat="44.80303" lon="4.01201">
        <ele>1160.93</ele>
        <time>2024-09-11T12:32:36Z</time>
      </trkpt>
      <trkpt lat="44.80301" lon="4.01212">
        <ele>1160.93</ele>
        <time>2024-09-11T12:32:45Z</time>
      </trkpt>
      <trkpt lat="44.80298" lon="4.01223">
        <ele>1160.93</ele>
        <time>2024-09-11T12:32:54Z</time>
      </trkpt>
      <trkpt lat="44.80293" lon="4.01232">
        <ele>1160.93</ele>
        <time>2024-09-11T12:33:02Z</time>
      </trkpt>
      <trkpt lat="44.80293" lon="4.01238">
        <ele>1160.45</ele>
        <time>2024-09-11T12:33:09Z</time>
      </trkpt>
      <trkpt lat="44.80287" lon="4.01251">
        <ele>1160.45</ele>
        <time>2024-09-11T12:33:18Z</time>
      </trkpt>
      <trkpt lat="44.80283" lon="4.01263">
        <ele>1160.45</ele>
        <time>2024-09-11T12:33:29Z</time>
      </trkpt>
      <trkpt lat="44.80278" lon="4.01276">
        <ele>1160.45</ele>
        <time>2024-09-11T12:33:40Z</time>
      </trkpt>
      <trkpt lat="44.80274" lon="4.01287">
        <ele>1160.45</ele>
        <time>2024-09-11T12:33:47Z</time>
      </trkpt>
      <trkpt lat="44.80271" lon="4.01298">
        <ele>1159.97</ele>
        <time>2024-09-11T12:33:55Z</time>
      </trkpt>
      <trkpt lat="44.80268" lon="4.01305">
        <ele>1159.97</ele>
        <time>2024-09-11T12:34:03Z</time>
      </trkpt>
      <trkpt lat="44.80266" lon="4.01309">
        <ele>1160.45</ele>
        <time>2024-09-11T12:34:09Z</time>
      </trkpt>
      <trkpt lat="44.80266" lon="4.0131">
        <ele>1160.45</ele>
        <time>2024-09-11T12:34:10Z</time>
      </trkpt>
      <trkpt lat="44.80261" lon="4.0132">
        <ele>1160.45</ele>
        <time>2024-09-11T12:34:19Z</time>
      </trkpt>
      <trkpt lat="44.80257" lon="4.01333">
        <ele>1160.45</ele>
        <time>2024-09-11T12:34:30Z</time>
      </trkpt>
      <trkpt lat="44.80255" lon="4.01346">
        <ele>1159.49</ele>
        <time>2024-09-11T12:34:41Z</time>
      </trkpt>
      <trkpt lat="44.80255" lon="4.01359">
        <ele>1159.01</ele>
        <time>2024-09-11T12:34:50Z</time>
      </trkpt>
      <trkpt lat="44.80255" lon="4.01371">
        <ele>1159.01</ele>
        <time>2024-09-11T12:35:00Z</time>
      </trkpt>
      <trkpt lat="44.80257" lon="4.01382">
        <ele>1159.01</ele>
        <time>2024-09-11T12:35:08Z</time>
      </trkpt>
      <trkpt lat="44.80258" lon="4.01394">
        <ele>1159.01</ele>
        <time>2024-09-11T12:35:17Z</time>
      </trkpt>
      <trkpt lat="44.80259" lon="4.01405">
        <ele>1159.49</ele>
        <time>2024-09-11T12:35:25Z</time>
      </trkpt>
      <trkpt lat="44.80259" lon="4.01418">
        <ele>1159.49</ele>
        <time>2024-09-11T12:35:33Z</time>
      </trkpt>
      <trkpt lat="44.80258" lon="4.01428">
        <ele>1159.49</ele>
        <time>2024-09-11T12:35:41Z</time>
      </trkpt>
      <trkpt lat="44.80256" lon="4.01437">
        <ele>1159.01</ele>
        <time>2024-09-11T12:35:50Z</time>
      </trkpt>
      <trkpt lat="44.80253" lon="4.0145">
        <ele>1159.49</ele>
        <time>2024-09-11T12:36:01Z</time>
      </trkpt>
      <trkpt lat="44.8025" lon="4.0146">
        <ele>1159.49</ele>
        <time>2024-09-11T12:36:10Z</time>
      </trkpt>
      <trkpt lat="44.8025" lon="4.01471">
        <ele>1159.01</ele>
        <time>2024-09-11T12:36:18Z</time>
      </trkpt>
      <trkpt lat="44.80247" lon="4.01484">
        <ele>1159.01</ele>
        <time>2024-09-11T12:36:28Z</time>
      </trkpt>
      <trkpt lat="44.80244" lon="4.01497">
        <ele>1158.53</ele>
        <time>2024-09-11T12:36:38Z</time>
      </trkpt>
      <trkpt lat="44.80242" lon="4.01509">
        <ele>1158.53</ele>
        <time>2024-09-11T12:36:47Z</time>
      </trkpt>
      <trkpt lat="44.8024" lon="4.01519">
        <ele>1158.05</ele>
        <time>2024-09-11T12:36:56Z</time>
      </trkpt>
      <trkpt lat="44.80235" lon="4.01531">
        <ele>1158.05</ele>
        <time>2024-09-11T12:37:05Z</time>
      </trkpt>
      <trkpt lat="44.80231" lon="4.01544">
        <ele>1158.05</ele>
        <time>2024-09-11T12:37:17Z</time>
      </trkpt>
      <trkpt lat="44.80229" lon="4.01551">
        <ele>1158.05</ele>
        <time>2024-09-11T12:37:25Z</time>
      </trkpt>
      <trkpt lat="44.80225" lon="4.0156">
        <ele>1158.05</ele>
        <time>2024-09-11T12:37:34Z</time>
      </trkpt>
      <trkpt lat="44.80221" lon="4.01571">
        <ele>1158.05</ele>
        <time>2024-09-11T12:37:44Z</time>
      </trkpt>
      <trkpt lat="44.80216" lon="4.01582">
        <ele>1158.05</ele>
        <time>2024-09-11T12:37:51Z</time>
      </trkpt>
      <trkpt lat="44.80215" lon="4.01584">
        <ele>1158.05</ele>
        <time>2024-09-11T12:37:55Z</time>
      </trkpt>
      <trkpt lat="44.80215" lon="4.01587">
        <ele>1158.05</ele>
        <time>2024-09-11T12:37:57Z</time>
      </trkpt>
      <trkpt lat="44.80212" lon="4.01597">
        <ele>1158.53</ele>
        <time>2024-09-11T12:38:05Z</time>
      </trkpt>
      <trkpt lat="44.80211" lon="4.0161">
        <ele>1158.53</ele>
        <time>2024-09-11T12:38:14Z</time>
      </trkpt>
      <trkpt lat="44.80207" lon="4.01626">
        <ele>1158.53</ele>
        <time>2024-09-11T12:38:25Z</time>
      </trkpt>
      <trkpt lat="44.80203" lon="4.01633">
        <ele>1159.01</ele>
        <time>2024-09-11T12:38:32Z</time>
      </trkpt>
      <trkpt lat="44.80199" lon="4.01644">
        <ele>1159.49</ele>
        <time>2024-09-11T12:38:40Z</time>
      </trkpt>
      <trkpt lat="44.80195" lon="4.01656">
        <ele>1159.97</ele>
        <time>2024-09-11T12:38:49Z</time>
      </trkpt>
      <trkpt lat="44.80192" lon="4.01661">
        <ele>1159.97</ele>
        <time>2024-09-11T12:38:54Z</time>
      </trkpt>
      <trkpt lat="44.80188" lon="4.01674">
        <ele>1160.45</ele>
        <time>2024-09-11T12:39:04Z</time>
      </trkpt>
      <trkpt lat="44.80186" lon="4.01684">
        <ele>1160.45</ele>
        <time>2024-09-11T12:39:13Z</time>
      </trkpt>
      <trkpt lat="44.80181" lon="4.01694">
        <ele>1160.93</ele>
        <time>2024-09-11T12:39:21Z</time>
      </trkpt>
      <trkpt lat="44.80178" lon="4.01709">
        <ele>1161.41</ele>
        <time>2024-09-11T12:39:31Z</time>
      </trkpt>
      <trkpt lat="44.80176" lon="4.01716">
        <ele>1161.41</ele>
        <time>2024-09-11T12:39:39Z</time>
      </trkpt>
      <trkpt lat="44.80175" lon="4.01723">
        <ele>1161.41</ele>
        <time>2024-09-11T12:39:44Z</time>
      </trkpt>
      <trkpt lat="44.80176" lon="4.01737">
        <ele>1161.41</ele>
        <time>2024-09-11T12:39:53Z</time>
      </trkpt>
      <trkpt lat="44.80176" lon="4.01739">
        <ele>1161.41</ele>
        <time>2024-09-11T12:39:54Z</time>
      </trkpt>
      <trkpt lat="44.80177" lon="4.0175">
        <ele>1160.93</ele>
        <time>2024-09-11T12:40:01Z</time>
      </trkpt>
      <trkpt lat="44.80173" lon="4.01762">
        <ele>1160.45</ele>
        <time>2024-09-11T12:40:10Z</time>
      </trkpt>
      <trkpt lat="44.80172" lon="4.01778">
        <ele>1159.97</ele>
        <time>2024-09-11T12:40:19Z</time>
      </trkpt>
      <trkpt lat="44.80172" lon="4.01791">
        <ele>1159.49</ele>
        <time>2024-09-11T12:40:27Z</time>
      </trkpt>
      <trkpt lat="44.80173" lon="4.01803">
        <ele>1159.01</ele>
        <time>2024-09-11T12:40:35Z</time>
      </trkpt>
      <trkpt lat="44.80175" lon="4.01815">
        <ele>1158.53</ele>
        <time>2024-09-11T12:40:43Z</time>
      </trkpt>
      <trkpt lat="44.80176" lon="4.01825">
        <ele>1158.05</ele>
        <time>2024-09-11T12:40:51Z</time>
      </trkpt>
      <trkpt lat="44.80177" lon="4.01829">
        <ele>1157.56</ele>
        <time>2024-09-11T12:40:55Z</time>
      </trkpt>
      <trkpt lat="44.80176" lon="4.01834">
        <ele>1157.08</ele>
        <time>2024-09-11T12:40:59Z</time>
      </trkpt>
      <trkpt lat="44.80171" lon="4.01845">
        <ele>1156.6</ele>
        <time>2024-09-11T12:41:08Z</time>
      </trkpt>
      <trkpt lat="44.80168" lon="4.01853">
        <ele>1156.12</ele>
        <time>2024-09-11T12:41:13Z</time>
      </trkpt>
      <trkpt lat="44.80162" lon="4.01867">
        <ele>1155.16</ele>
        <time>2024-09-11T12:41:23Z</time>
      </trkpt>
      <trkpt lat="44.80159" lon="4.01882">
        <ele>1154.68</ele>
        <time>2024-09-11T12:41:33Z</time>
      </trkpt>
      <trkpt lat="44.80157" lon="4.01896">
        <ele>1154.68</ele>
        <time>2024-09-11T12:41:42Z</time>
      </trkpt>
      <trkpt lat="44.80156" lon="4.01896">
        <ele>1154.2</ele>
        <time>2024-09-11T12:41:43Z</time>
      </trkpt>
      <trkpt lat="44.80156" lon="4.01908">
        <ele>1154.2</ele>
        <time>2024-09-11T12:41:52Z</time>
      </trkpt>
      <trkpt lat="44.80157" lon="4.01915">
        <ele>1153.72</ele>
        <time>2024-09-11T12:41:59Z</time>
      </trkpt>
      <trkpt lat="44.80158" lon="4.01929">
        <ele>1152.76</ele>
        <time>2024-09-11T12:42:09Z</time>
      </trkpt>
      <trkpt lat="44.80161" lon="4.01942">
        <ele>1152.76</ele>
        <time>2024-09-11T12:42:18Z</time>
      </trkpt>
      <trkpt lat="44.80162" lon="4.01947">
        <ele>1153.24</ele>
        <time>2024-09-11T12:42:26Z</time>
      </trkpt>
      <trkpt lat="44.80165" lon="4.0196">
        <ele>1152.76</ele>
        <time>2024-09-11T12:42:35Z</time>
      </trkpt>
      <trkpt lat="44.80165" lon="4.01961">
        <ele>1152.76</ele>
        <time>2024-09-11T12:42:36Z</time>
      </trkpt>
      <trkpt lat="44.80166" lon="4.01968">
        <ele>1152.76</ele>
        <time>2024-09-11T12:42:40Z</time>
      </trkpt>
      <trkpt lat="44.8017" lon="4.01984">
        <ele>1152.28</ele>
        <time>2024-09-11T12:42:50Z</time>
      </trkpt>
      <trkpt lat="44.80171" lon="4.01988">
        <ele>1152.76</ele>
        <time>2024-09-11T12:42:52Z</time>
      </trkpt>
      <trkpt lat="44.80173" lon="4.02002">
        <ele>1152.28</ele>
        <time>2024-09-11T12:43:01Z</time>
      </trkpt>
      <trkpt lat="44.80173" lon="4.02012">
        <ele>1152.28</ele>
        <time>2024-09-11T12:43:08Z</time>
      </trkpt>
      <trkpt lat="44.80177" lon="4.02025">
        <ele>1152.28</ele>
        <time>2024-09-11T12:43:17Z</time>
      </trkpt>
      <trkpt lat="44.80177" lon="4.02038">
        <ele>1152.28</ele>
        <time>2024-09-11T12:43:26Z</time>
      </trkpt>
      <trkpt lat="44.8018" lon="4.02052">
        <ele>1151.8</ele>
        <time>2024-09-11T12:43:36Z</time>
      </trkpt>
      <trkpt lat="44.80183" lon="4.02064">
        <ele>1151.32</ele>
        <time>2024-09-11T12:43:44Z</time>
      </trkpt>
      <trkpt lat="44.80186" lon="4.02076">
        <ele>1151.32</ele>
        <time>2024-09-11T12:43:52Z</time>
      </trkpt>
      <trkpt lat="44.80189" lon="4.02087">
        <ele>1150.35</ele>
        <time>2024-09-11T12:44:02Z</time>
      </trkpt>
      <trkpt lat="44.80191" lon="4.02099">
        <ele>1150.35</ele>
        <time>2024-09-11T12:44:12Z</time>
      </trkpt>
      <trkpt lat="44.80192" lon="4.02112">
        <ele>1149.87</ele>
        <time>2024-09-11T12:44:20Z</time>
      </trkpt>
      <trkpt lat="44.80193" lon="4.02126">
        <ele>1148.91</ele>
        <time>2024-09-11T12:44:31Z</time>
      </trkpt>
      <trkpt lat="44.80193" lon="4.02134">
        <ele>1147.95</ele>
        <time>2024-09-11T12:44:39Z</time>
      </trkpt>
      <trkpt lat="44.80193" lon="4.02136">
        <ele>1147.95</ele>
        <time>2024-09-11T12:44:41Z</time>
      </trkpt>
      <trkpt lat="44.80193" lon="4.02149">
        <ele>1147.47</ele>
        <time>2024-09-11T12:44:50Z</time>
      </trkpt>
      <trkpt lat="44.80191" lon="4.02161">
        <ele>1146.51</ele>
        <time>2024-09-11T12:44:59Z</time>
      </trkpt>
      <trkpt lat="44.80191" lon="4.02172">
        <ele>1145.55</ele>
        <time>2024-09-11T12:45:08Z</time>
      </trkpt>
      <trkpt lat="44.8019" lon="4.02175">
        <ele>1144.59</ele>
        <time>2024-09-11T12:45:11Z</time>
      </trkpt>
      <trkpt lat="44.80186" lon="4.02192">
        <ele>1143.63</ele>
        <time>2024-09-11T12:45:21Z</time>
      </trkpt>
      <trkpt lat="44.80185" lon="4.02209">
        <ele>1142.18</ele>
        <time>2024-09-11T12:45:33Z</time>
      </trkpt>
      <trkpt lat="44.80184" lon="4.0222">
        <ele>1141.7</ele>
        <time>2024-09-11T12:45:41Z</time>
      </trkpt>
      <trkpt lat="44.80182" lon="4.02223">
        <ele>1141.22</ele>
        <time>2024-09-11T12:45:44Z</time>
      </trkpt>
      <trkpt lat="44.80178" lon="4.02239">
        <ele>1139.78</ele>
        <time>2024-09-11T12:45:55Z</time>
      </trkpt>
      <trkpt lat="44.80175" lon="4.02252">
        <ele>1139.78</ele>
        <time>2024-09-11T12:46:05Z</time>
      </trkpt>
      <trkpt lat="44.80172" lon="4.02264">
        <ele>1138.82</ele>
        <time>2024-09-11T12:46:16Z</time>
      </trkpt>
      <trkpt lat="44.8017" lon="4.02266">
        <ele>1138.82</ele>
        <time>2024-09-11T12:46:18Z</time>
      </trkpt>
      <trkpt lat="44.80169" lon="4.02276">
        <ele>1137.86</ele>
        <time>2024-09-11T12:46:26Z</time>
      </trkpt>
      <trkpt lat="44.80165" lon="4.02285">
        <ele>1136.9</ele>
        <time>2024-09-11T12:46:34Z</time>
      </trkpt>
      <trkpt lat="44.80162" lon="4.02295">
        <ele>1135.94</ele>
        <time>2024-09-11T12:46:42Z</time>
      </trkpt>
      <trkpt lat="44.80158" lon="4.02306">
        <ele>1134.49</ele>
        <time>2024-09-11T12:46:51Z</time>
      </trkpt>
      <trkpt lat="44.80156" lon="4.02315">
        <ele>1134.01</ele>
        <time>2024-09-11T12:46:58Z</time>
      </trkpt>
      <trkpt lat="44.80152" lon="4.02327">
        <ele>1134.01</ele>
        <time>2024-09-11T12:47:08Z</time>
      </trkpt>
      <trkpt lat="44.80149" lon="4.02339">
        <ele>1133.05</ele>
        <time>2024-09-11T12:47:18Z</time>
      </trkpt>
      <trkpt lat="44.80149" lon="4.02343">
        <ele>1133.05</ele>
        <time>2024-09-11T12:47:21Z</time>
      </trkpt>
      <trkpt lat="44.80148" lon="4.02351">
        <ele>1133.05</ele>
        <time>2024-09-11T12:47:27Z</time>
      </trkpt>
      <trkpt lat="44.80145" lon="4.02363">
        <ele>1133.05</ele>
        <time>2024-09-11T12:47:36Z</time>
      </trkpt>
      <trkpt lat="44.80144" lon="4.02365">
        <ele>1133.05</ele>
        <time>2024-09-11T12:47:38Z</time>
      </trkpt>
      <trkpt lat="44.80144" lon="4.02368">
        <ele>1133.05</ele>
        <time>2024-09-11T12:47:40Z</time>
      </trkpt>
      <trkpt lat="44.80142" lon="4.02382">
        <ele>1132.09</ele>
        <time>2024-09-11T12:47:50Z</time>
      </trkpt>
      <trkpt lat="44.80143" lon="4.0239">
        <ele>1132.09</ele>
        <time>2024-09-11T12:47:55Z</time>
      </trkpt>
      <trkpt lat="44.80145" lon="4.02402">
        <ele>1131.13</ele>
        <time>2024-09-11T12:48:04Z</time>
      </trkpt>
      <trkpt lat="44.80149" lon="4.0241">
        <ele>1131.13</ele>
        <time>2024-09-11T12:48:12Z</time>
      </trkpt>
      <trkpt lat="44.80155" lon="4.02419">
        <ele>1130.65</ele>
        <time>2024-09-11T12:48:21Z</time>
      </trkpt>
      <trkpt lat="44.8016" lon="4.02432">
        <ele>1130.17</ele>
        <time>2024-09-11T12:48:31Z</time>
      </trkpt>
      <trkpt lat="44.80164" lon="4.02444">
        <ele>1130.17</ele>
        <time>2024-09-11T12:48:39Z</time>
      </trkpt>
      <trkpt lat="44.80167" lon="4.02453">
        <ele>1129.21</ele>
        <time>2024-09-11T12:48:47Z</time>
      </trkpt>
      <trkpt lat="44.80167" lon="4.02455">
        <ele>1129.21</ele>
        <time>2024-09-11T12:48:48Z</time>
      </trkpt>
      <trkpt lat="44.80167" lon="4.02459">
        <ele>1129.21</ele>
        <time>2024-09-11T12:48:51Z</time>
      </trkpt>
      <trkpt lat="44.80169" lon="4.0247">
        <ele>1128.73</ele>
        <time>2024-09-11T12:49:00Z</time>
      </trkpt>
      <trkpt lat="44.8017" lon="4.02475">
        <ele>1128.24</ele>
        <time>2024-09-11T12:49:04Z</time>
      </trkpt>
      <trkpt lat="44.8017" lon="4.02478">
        <ele>1127.76</ele>
        <time>2024-09-11T12:49:06Z</time>
      </trkpt>
      <trkpt lat="44.80169" lon="4.02489">
        <ele>1128.24</ele>
        <time>2024-09-11T12:49:13Z</time>
      </trkpt>
      <trkpt lat="44.8017" lon="4.025">
        <ele>1128.24</ele>
        <time>2024-09-11T12:49:22Z</time>
      </trkpt>
      <trkpt lat="44.80169" lon="4.025">
        <ele>1128.24</ele>
        <time>2024-09-11T12:49:27Z</time>
      </trkpt>
      <trkpt lat="44.80168" lon="4.02514">
        <ele>1127.76</ele>
        <time>2024-09-11T12:49:36Z</time>
      </trkpt>
      <trkpt lat="44.80168" lon="4.02516">
        <ele>1127.76</ele>
        <time>2024-09-11T12:49:37Z</time>
      </trkpt>
      <trkpt lat="44.80166" lon="4.02532">
        <ele>1127.76</ele>
        <time>2024-09-11T12:49:48Z</time>
      </trkpt>
      <trkpt lat="44.80165" lon="4.02547">
        <ele>1126.8</ele>
        <time>2024-09-11T12:49:58Z</time>
      </trkpt>
      <trkpt lat="44.80165" lon="4.02559">
        <ele>1126.8</ele>
        <time>2024-09-11T12:50:06Z</time>
      </trkpt>
      <trkpt lat="44.80164" lon="4.02569">
        <ele>1126.32</ele>
        <time>2024-09-11T12:50:14Z</time>
      </trkpt>
      <trkpt lat="44.80163" lon="4.02571">
        <ele>1126.32</ele>
        <time>2024-09-11T12:50:15Z</time>
      </trkpt>
      <trkpt lat="44.80161" lon="4.02581">
        <ele>1126.8</ele>
        <time>2024-09-11T12:50:22Z</time>
      </trkpt>
      <trkpt lat="44.80156" lon="4.02591">
        <ele>1126.8</ele>
        <time>2024-09-11T12:50:30Z</time>
      </trkpt>
      <trkpt lat="44.80151" lon="4.02599">
        <ele>1126.32</ele>
        <time>2024-09-11T12:50:38Z</time>
      </trkpt>
      <trkpt lat="44.80146" lon="4.02605">
        <ele>1125.84</ele>
        <time>2024-09-11T12:50:46Z</time>
      </trkpt>
      <trkpt lat="44.80145" lon="4.02606">
        <ele>1125.84</ele>
        <time>2024-09-11T12:50:54Z</time>
      </trkpt>
      <trkpt lat="44.80144" lon="4.02606">
        <ele>1125.84</ele>
        <time>2024-09-11T12:50:57Z</time>
      </trkpt>
      <trkpt lat="44.8014" lon="4.0261">
        <ele>1125.36</ele>
        <time>2024-09-11T12:51:03Z</time>
      </trkpt>
      <trkpt lat="44.80135" lon="4.02619">
        <ele>1125.36</ele>
        <time>2024-09-11T12:51:10Z</time>
      </trkpt>
      <trkpt lat="44.80134" lon="4.02621">
        <ele>1125.36</ele>
        <time>2024-09-11T12:51:12Z</time>
      </trkpt>
      <trkpt lat="44.80132" lon="4.02629">
        <ele>1125.36</ele>
        <time>2024-09-11T12:51:18Z</time>
      </trkpt>
      <trkpt lat="44.80133" lon="4.02635">
        <ele>1125.36</ele>
        <time>2024-09-11T12:51:26Z</time>
      </trkpt>
      <trkpt lat="44.80131" lon="4.02634">
        <ele>1125.84</ele>
        <time>2024-09-11T12:51:40Z</time>
      </trkpt>
      <trkpt lat="44.80131" lon="4.02635">
        <ele>1125.84</ele>
        <time>2024-09-11T12:51:48Z</time>
      </trkpt>
      <trkpt lat="44.80131" lon="4.02636">
        <ele>1125.84</ele>
        <time>2024-09-11T12:52:00Z</time>
      </trkpt>
      <trkpt lat="44.80132" lon="4.02636">
        <ele>1125.84</ele>
        <time>2024-09-11T12:52:10Z</time>
      </trkpt>
      <trkpt lat="44.80132" lon="4.02637">
        <ele>1125.84</ele>
        <time>2024-09-11T12:52:23Z</time>
      </trkpt>
      <trkpt lat="44.80133" lon="4.02638">
        <ele>1126.32</ele>
        <time>2024-09-11T12:52:37Z</time>
      </trkpt>
      <trkpt lat="44.80134" lon="4.02638">
        <ele>1126.8</ele>
        <time>2024-09-11T12:52:54Z</time>
      </trkpt>
      <trkpt lat="44.80134" lon="4.02638">
        <ele>1126.32</ele>
        <time>2024-09-11T12:53:08Z</time>
      </trkpt>
      <trkpt lat="44.80133" lon="4.02638">
        <ele>1125.84</ele>
        <time>2024-09-11T12:53:23Z</time>
      </trkpt>
      <trkpt lat="44.80133" lon="4.02639">
        <ele>1125.84</ele>
        <time>2024-09-11T12:53:32Z</time>
      </trkpt>
      <trkpt lat="44.80133" lon="4.02638">
        <ele>1125.84</ele>
        <time>2024-09-11T12:53:46Z</time>
      </trkpt>
      <trkpt lat="44.80133" lon="4.02638">
        <ele>1125.84</ele>
        <time>2024-09-11T12:53:59Z</time>
      </trkpt>
      <trkpt lat="44.80133" lon="4.02639">
        <ele>1125.84</ele>
        <time>2024-09-11T12:54:11Z</time>
      </trkpt>
      <trkpt lat="44.80133" lon="4.02639">
        <ele>1125.84</ele>
        <time>2024-09-11T12:54:21Z</time>
      </trkpt>
      <trkpt lat="44.80135" lon="4.02646">
        <ele>1125.36</ele>
        <time>2024-09-11T12:54:29Z</time>
      </trkpt>
      <trkpt lat="44.80138" lon="4.02655">
        <ele>1125.84</ele>
        <time>2024-09-11T12:54:37Z</time>
      </trkpt>
      <trkpt lat="44.80142" lon="4.02664">
        <ele>1125.84</ele>
        <time>2024-09-11T12:54:46Z</time>
      </trkpt>
      <trkpt lat="44.80149" lon="4.02674">
        <ele>1126.32</ele>
        <time>2024-09-11T12:54:54Z</time>
      </trkpt>
      <trkpt lat="44.80156" lon="4.02682">
        <ele>1126.8</ele>
        <time>2024-09-11T12:55:04Z</time>
      </trkpt>
      <trkpt lat="44.80164" lon="4.02684">
        <ele>1126.8</ele>
        <time>2024-09-11T12:55:14Z</time>
      </trkpt>
      <trkpt lat="44.8017" lon="4.02685">
        <ele>1127.28</ele>
        <time>2024-09-11T12:55:21Z</time>
      </trkpt>
      <trkpt lat="44.80179" lon="4.02689">
        <ele>1128.24</ele>
        <time>2024-09-11T12:55:31Z</time>
      </trkpt>
      <trkpt lat="44.8018" lon="4.0269">
        <ele>1128.73</ele>
        <time>2024-09-11T12:55:36Z</time>
      </trkpt>
      <trkpt lat="44.80182" lon="4.0269">
        <ele>1129.21</ele>
        <time>2024-09-11T12:55:38Z</time>
      </trkpt>
      <trkpt lat="44.80191" lon="4.02693">
        <ele>1130.17</ele>
        <time>2024-09-11T12:55:47Z</time>
      </trkpt>
      <trkpt lat="44.80196" lon="4.02693">
        <ele>1130.65</ele>
        <time>2024-09-11T12:55:54Z</time>
      </trkpt>
      <trkpt lat="44.80202" lon="4.02696">
        <ele>1131.61</ele>
        <time>2024-09-11T12:56:02Z</time>
      </trkpt>
      <trkpt lat="44.80209" lon="4.02699">
        <ele>1132.57</ele>
        <time>2024-09-11T12:56:10Z</time>
      </trkpt>
      <trkpt lat="44.80216" lon="4.02701">
        <ele>1133.05</ele>
        <time>2024-09-11T12:56:17Z</time>
      </trkpt>
      <trkpt lat="44.80224" lon="4.02699">
        <ele>1134.01</ele>
        <time>2024-09-11T12:56:26Z</time>
      </trkpt>
      <trkpt lat="44.80229" lon="4.027">
        <ele>1134.97</ele>
        <time>2024-09-11T12:56:34Z</time>
      </trkpt>
      <trkpt lat="44.80235" lon="4.02701">
        <ele>1134.97</ele>
        <time>2024-09-11T12:56:41Z</time>
      </trkpt>
      <trkpt lat="44.80237" lon="4.027">
        <ele>1135.45</ele>
        <time>2024-09-11T12:56:43Z</time>
      </trkpt>
      <trkpt lat="44.80244" lon="4.02699">
        <ele>1135.94</ele>
        <time>2024-09-11T12:56:51Z</time>
      </trkpt>
      <trkpt lat="44.80251" lon="4.02696">
        <ele>1136.42</ele>
        <time>2024-09-11T12:56:59Z</time>
      </trkpt>
      <trkpt lat="44.80257" lon="4.02693">
        <ele>1136.9</ele>
        <time>2024-09-11T12:57:06Z</time>
      </trkpt>
      <trkpt lat="44.80265" lon="4.02688">
        <ele>1136.9</ele>
        <time>2024-09-11T12:57:14Z</time>
      </trkpt>
      <trkpt lat="44.80271" lon="4.02684">
        <ele>1137.86</ele>
        <time>2024-09-11T12:57:21Z</time>
      </trkpt>
      <trkpt lat="44.80276" lon="4.02679">
        <ele>1138.34</ele>
        <time>2024-09-11T12:57:28Z</time>
      </trkpt>
      <trkpt lat="44.8028" lon="4.02677">
        <ele>1139.3</ele>
        <time>2024-09-11T12:57:33Z</time>
      </trkpt>
      <trkpt lat="44.80287" lon="4.02677">
        <ele>1139.78</ele>
        <time>2024-09-11T12:57:41Z</time>
      </trkpt>
      <trkpt lat="44.80291" lon="4.02684">
        <ele>1140.26</ele>
        <time>2024-09-11T12:57:47Z</time>
      </trkpt>
      <trkpt lat="44.80294" lon="4.0269">
        <ele>1140.74</ele>
        <time>2024-09-11T12:57:53Z</time>
      </trkpt>
      <trkpt lat="44.80299" lon="4.02699">
        <ele>1141.7</ele>
        <time>2024-09-11T12:58:01Z</time>
      </trkpt>
      <trkpt lat="44.80305" lon="4.02708">
        <ele>1142.18</ele>
        <time>2024-09-11T12:58:09Z</time>
      </trkpt>
      <trkpt lat="44.80308" lon="4.02715">
        <ele>1142.66</ele>
        <time>2024-09-11T12:58:16Z</time>
      </trkpt>
      <trkpt lat="44.80312" lon="4.02724">
        <ele>1143.14</ele>
        <time>2024-09-11T12:58:25Z</time>
      </trkpt>
      <trkpt lat="44.80314" lon="4.02725">
        <ele>1143.14</ele>
        <time>2024-09-11T12:58:27Z</time>
      </trkpt>
      <trkpt lat="44.80317" lon="4.02736">
        <ele>1143.63</ele>
        <time>2024-09-11T12:58:36Z</time>
      </trkpt>
      <trkpt lat="44.80318" lon="4.0274">
        <ele>1143.63</ele>
        <time>2024-09-11T12:58:42Z</time>
      </trkpt>
      <trkpt lat="44.8032" lon="4.02747">
        <ele>1143.63</ele>
        <time>2024-09-11T12:58:48Z</time>
      </trkpt>
      <trkpt lat="44.80325" lon="4.02759">
        <ele>1144.59</ele>
        <time>2024-09-11T12:58:57Z</time>
      </trkpt>
      <trkpt lat="44.80328" lon="4.02767">
        <ele>1144.11</ele>
        <time>2024-09-11T12:59:03Z</time>
      </trkpt>
      <trkpt lat="44.80333" lon="4.02775">
        <ele>1144.59</ele>
        <time>2024-09-11T12:59:11Z</time>
      </trkpt>
      <trkpt lat="44.8034" lon="4.02781">
        <ele>1144.59</ele>
        <time>2024-09-11T12:59:19Z</time>
      </trkpt>
      <trkpt lat="44.80348" lon="4.02784">
        <ele>1144.11</ele>
        <time>2024-09-11T12:59:27Z</time>
      </trkpt>
      <trkpt lat="44.80357" lon="4.02783">
        <ele>1143.63</ele>
        <time>2024-09-11T12:59:36Z</time>
      </trkpt>
      <trkpt lat="44.80365" lon="4.02783">
        <ele>1145.07</ele>
        <time>2024-09-11T12:59:44Z</time>
      </trkpt>
      <trkpt lat="44.80373" lon="4.02782">
        <ele>1144.11</ele>
        <time>2024-09-11T12:59:52Z</time>
      </trkpt>
      <trkpt lat="44.80382" lon="4.02777">
        <ele>1145.07</ele>
        <time>2024-09-11T13:00:00Z</time>
      </trkpt>
      <trkpt lat="44.80386" lon="4.02774">
        <ele>1145.55</ele>
        <time>2024-09-11T13:00:04Z</time>
      </trkpt>
      <trkpt lat="44.80396" lon="4.02764">
        <ele>1145.55</ele>
        <time>2024-09-11T13:00:14Z</time>
      </trkpt>
      <trkpt lat="44.80403" lon="4.0276">
        <ele>1145.07</ele>
        <time>2024-09-11T13:00:20Z</time>
      </trkpt>
      <trkpt lat="44.80409" lon="4.02755">
        <ele>1144.59</ele>
        <time>2024-09-11T13:00:28Z</time>
      </trkpt>
      <trkpt lat="44.80416" lon="4.02748">
        <ele>1144.11</ele>
        <time>2024-09-11T13:00:37Z</time>
      </trkpt>
      <trkpt lat="44.80426" lon="4.02738">
        <ele>1144.11</ele>
        <time>2024-09-11T13:00:49Z</time>
      </trkpt>
      <trkpt lat="44.80428" lon="4.02736">
        <ele>1143.14</ele>
        <time>2024-09-11T13:00:51Z</time>
      </trkpt>
      <trkpt lat="44.80436" lon="4.02728">
        <ele>1144.11</ele>
        <time>2024-09-11T13:01:00Z</time>
      </trkpt>
      <trkpt lat="44.8044" lon="4.02723">
        <ele>1143.14</ele>
        <time>2024-09-11T13:01:05Z</time>
      </trkpt>
      <trkpt lat="44.80441" lon="4.02721">
        <ele>1141.7</ele>
        <time>2024-09-11T13:01:07Z</time>
      </trkpt>
      <trkpt lat="44.80449" lon="4.0271">
        <ele>1143.14</ele>
        <time>2024-09-11T13:01:16Z</time>
      </trkpt>
      <trkpt lat="44.80455" lon="4.027">
        <ele>1143.63</ele>
        <time>2024-09-11T13:01:24Z</time>
      </trkpt>
      <trkpt lat="44.80462" lon="4.02689">
        <ele>1142.66</ele>
        <time>2024-09-11T13:01:34Z</time>
      </trkpt>
      <trkpt lat="44.80467" lon="4.02683">
        <ele>1141.22</ele>
        <time>2024-09-11T13:01:41Z</time>
      </trkpt>
      <trkpt lat="44.80472" lon="4.02678">
        <ele>1141.22</ele>
        <time>2024-09-11T13:01:47Z</time>
      </trkpt>
      <trkpt lat="44.80481" lon="4.02671">
        <ele>1140.74</ele>
        <time>2024-09-11T13:01:57Z</time>
      </trkpt>
      <trkpt lat="44.80484" lon="4.02665">
        <ele>1141.7</ele>
        <time>2024-09-11T13:02:04Z</time>
      </trkpt>
      <trkpt lat="44.80486" lon="4.02662">
        <ele>1141.22</ele>
        <time>2024-09-11T13:02:11Z</time>
      </trkpt>
      <trkpt lat="44.80492" lon="4.02653">
        <ele>1140.74</ele>
        <time>2024-09-11T13:02:19Z</time>
      </trkpt>
      <trkpt lat="44.80499" lon="4.02646">
        <ele>1139.78</ele>
        <time>2024-09-11T13:02:27Z</time>
      </trkpt>
      <trkpt lat="44.80506" lon="4.02639">
        <ele>1139.3</ele>
        <time>2024-09-11T13:02:34Z</time>
      </trkpt>
      <trkpt lat="44.80513" lon="4.02633">
        <ele>1139.78</ele>
        <time>2024-09-11T13:02:41Z</time>
      </trkpt>
      <trkpt lat="44.80516" lon="4.02632">
        <ele>1139.3</ele>
        <time>2024-09-11T13:02:44Z</time>
      </trkpt>
      <trkpt lat="44.8052" lon="4.02629">
        <ele>1139.3</ele>
        <time>2024-09-11T13:02:48Z</time>
      </trkpt>
      <trkpt lat="44.80528" lon="4.02624">
        <ele>1139.3</ele>
        <time>2024-09-11T13:02:56Z</time>
      </trkpt>
      <trkpt lat="44.80538" lon="4.02618">
        <ele>1139.3</ele>
        <time>2024-09-11T13:03:05Z</time>
      </trkpt>
      <trkpt lat="44.80547" lon="4.02612">
        <ele>1138.82</ele>
        <time>2024-09-11T13:03:14Z</time>
      </trkpt>
      <trkpt lat="44.80554" lon="4.02606">
        <ele>1138.34</ele>
        <time>2024-09-11T13:03:22Z</time>
      </trkpt>
      <trkpt lat="44.80561" lon="4.02598">
        <ele>1138.34</ele>
        <time>2024-09-11T13:03:30Z</time>
      </trkpt>
      <trkpt lat="44.80568" lon="4.02588">
        <ele>1138.34</ele>
        <time>2024-09-11T13:03:39Z</time>
      </trkpt>
      <trkpt lat="44.80572" lon="4.02579">
        <ele>1137.86</ele>
        <time>2024-09-11T13:03:46Z</time>
      </trkpt>
      <trkpt lat="44.80576" lon="4.02569">
        <ele>1137.38</ele>
        <time>2024-09-11T13:03:53Z</time>
      </trkpt>
      <trkpt lat="44.80581" lon="4.02558">
        <ele>1137.38</ele>
        <time>2024-09-11T13:04:02Z</time>
      </trkpt>
      <trkpt lat="44.80586" lon="4.02547">
        <ele>1136.9</ele>
        <time>2024-09-11T13:04:10Z</time>
      </trkpt>
      <trkpt lat="44.80587" lon="4.02543">
        <ele>1136.9</ele>
        <time>2024-09-11T13:04:13Z</time>
      </trkpt>
      <trkpt lat="44.80589" lon="4.02538">
        <ele>1136.9</ele>
        <time>2024-09-11T13:04:16Z</time>
      </trkpt>
      <trkpt lat="44.80595" lon="4.02523">
        <ele>1136.42</ele>
        <time>2024-09-11T13:04:27Z</time>
      </trkpt>
      <trkpt lat="44.80602" lon="4.0251">
        <ele>1136.9</ele>
        <time>2024-09-11T13:04:36Z</time>
      </trkpt>
      <trkpt lat="44.80607" lon="4.02495">
        <ele>1134.49</ele>
        <time>2024-09-11T13:04:46Z</time>
      </trkpt>
      <trkpt lat="44.80608" lon="4.02494">
        <ele>1134.49</ele>
        <time>2024-09-11T13:04:47Z</time>
      </trkpt>
      <trkpt lat="44.80609" lon="4.02489">
        <ele>1135.94</ele>
        <time>2024-09-11T13:04:50Z</time>
      </trkpt>
      <trkpt lat="44.80613" lon="4.02477">
        <ele>1134.97</ele>
        <time>2024-09-11T13:04:58Z</time>
      </trkpt>
      <trkpt lat="44.80616" lon="4.02464">
        <ele>1134.97</ele>
        <time>2024-09-11T13:05:06Z</time>
      </trkpt>
      <trkpt lat="44.8062" lon="4.02452">
        <ele>1134.49</ele>
        <time>2024-09-11T13:05:14Z</time>
      </trkpt>
      <trkpt lat="44.80625" lon="4.02437">
        <ele>1134.49</ele>
        <time>2024-09-11T13:05:24Z</time>
      </trkpt>
      <trkpt lat="44.8063" lon="4.02425">
        <ele>1133.05</ele>
        <time>2024-09-11T13:05:33Z</time>
      </trkpt>
      <trkpt lat="44.80636" lon="4.0241">
        <ele>1133.05</ele>
        <time>2024-09-11T13:05:43Z</time>
      </trkpt>
      <trkpt lat="44.80642" lon="4.02397">
        <ele>1132.09</ele>
        <time>2024-09-11T13:05:52Z</time>
      </trkpt>
      <trkpt lat="44.80646" lon="4.02388">
        <ele>1132.09</ele>
        <time>2024-09-11T13:05:59Z</time>
      </trkpt>
      <trkpt lat="44.80651" lon="4.02378">
        <ele>1131.61</ele>
        <time>2024-09-11T13:06:07Z</time>
      </trkpt>
      <trkpt lat="44.80657" lon="4.02365">
        <ele>1132.09</ele>
        <time>2024-09-11T13:06:16Z</time>
      </trkpt>
      <trkpt lat="44.80662" lon="4.02356">
        <ele>1131.61</ele>
        <time>2024-09-11T13:06:23Z</time>
      </trkpt>
      <trkpt lat="44.80665" lon="4.0235">
        <ele>1130.65</ele>
        <time>2024-09-11T13:06:27Z</time>
      </trkpt>
      <trkpt lat="44.80667" lon="4.02348">
        <ele>1130.65</ele>
        <time>2024-09-11T13:06:29Z</time>
      </trkpt>
      <trkpt lat="44.80669" lon="4.02345">
        <ele>1130.65</ele>
        <time>2024-09-11T13:06:32Z</time>
      </trkpt>
      <trkpt lat="44.80672" lon="4.02341">
        <ele>1130.65</ele>
        <time>2024-09-11T13:06:36Z</time>
      </trkpt>
      <trkpt lat="44.80673" lon="4.02338">
        <ele>1130.65</ele>
        <time>2024-09-11T13:06:38Z</time>
      </trkpt>
      <trkpt lat="44.80676" lon="4.02334">
        <ele>1130.17</ele>
        <time>2024-09-11T13:06:41Z</time>
      </trkpt>
      <trkpt lat="44.80683" lon="4.02323">
        <ele>1130.17</ele>
        <time>2024-09-11T13:06:50Z</time>
      </trkpt>
      <trkpt lat="44.80689" lon="4.02314">
        <ele>1129.21</ele>
        <time>2024-09-11T13:06:57Z</time>
      </trkpt>
      <trkpt lat="44.80697" lon="4.02305">
        <ele>1128.24</ele>
        <time>2024-09-11T13:07:06Z</time>
      </trkpt>
      <trkpt lat="44.80704" lon="4.02297">
        <ele>1127.76</ele>
        <time>2024-09-11T13:07:14Z</time>
      </trkpt>
      <trkpt lat="44.8071" lon="4.02289">
        <ele>1127.76</ele>
        <time>2024-09-11T13:07:21Z</time>
      </trkpt>
      <trkpt lat="44.80719" lon="4.02279">
        <ele>1126.8</ele>
        <time>2024-09-11T13:07:31Z</time>
      </trkpt>
      <trkpt lat="44.80727" lon="4.02268">
        <ele>1126.8</ele>
        <time>2024-09-11T13:07:40Z</time>
      </trkpt>
      <trkpt lat="44.8073" lon="4.02264">
        <ele>1125.84</ele>
        <time>2024-09-11T13:07:44Z</time>
      </trkpt>
      <trkpt lat="44.80738" lon="4.02254">
        <ele>1125.36</ele>
        <time>2024-09-11T13:07:53Z</time>
      </trkpt>
      <trkpt lat="44.80745" lon="4.02245">
        <ele>1123.92</ele>
        <time>2024-09-11T13:08:01Z</time>
      </trkpt>
      <trkpt lat="44.80752" lon="4.02236">
        <ele>1123.44</ele>
        <time>2024-09-11T13:08:10Z</time>
      </trkpt>
      <trkpt lat="44.8076" lon="4.02228">
        <ele>1122</ele>
        <time>2024-09-11T13:08:18Z</time>
      </trkpt>
      <trkpt lat="44.80767" lon="4.0222">
        <ele>1121.52</ele>
        <time>2024-09-11T13:08:26Z</time>
      </trkpt>
      <trkpt lat="44.80773" lon="4.02215">
        <ele>1121.03</ele>
        <time>2024-09-11T13:08:32Z</time>
      </trkpt>
      <trkpt lat="44.80779" lon="4.02213">
        <ele>1120.55</ele>
        <time>2024-09-11T13:08:37Z</time>
      </trkpt>
      <trkpt lat="44.80786" lon="4.0221">
        <ele>1119.11</ele>
        <time>2024-09-11T13:08:44Z</time>
      </trkpt>
      <trkpt lat="44.80791" lon="4.02209">
        <ele>1119.59</ele>
        <time>2024-09-11T13:08:49Z</time>
      </trkpt>
      <trkpt lat="44.80791" lon="4.0221">
        <ele>1119.59</ele>
        <time>2024-09-11T13:08:51Z</time>
      </trkpt>
      <trkpt lat="44.808" lon="4.02211">
        <ele>1119.11</ele>
        <time>2024-09-11T13:08:58Z</time>
      </trkpt>
      <trkpt lat="44.8081" lon="4.02209">
        <ele>1117.67</ele>
        <time>2024-09-11T13:09:07Z</time>
      </trkpt>
      <trkpt lat="44.8082" lon="4.02209">
        <ele>1116.23</ele>
        <time>2024-09-11T13:09:15Z</time>
      </trkpt>
      <trkpt lat="44.80829" lon="4.02209">
        <ele>1115.75</ele>
        <time>2024-09-11T13:09:23Z</time>
      </trkpt>
      <trkpt lat="44.80835" lon="4.02209">
        <ele>1115.27</ele>
        <time>2024-09-11T13:09:28Z</time>
      </trkpt>
      <trkpt lat="44.80841" lon="4.02207">
        <ele>1114.31</ele>
        <time>2024-09-11T13:09:34Z</time>
      </trkpt>
      <trkpt lat="44.80851" lon="4.02207">
        <ele>1113.82</ele>
        <time>2024-09-11T13:09:42Z</time>
      </trkpt>
      <trkpt lat="44.80861" lon="4.02205">
        <ele>1112.38</ele>
        <time>2024-09-11T13:09:51Z</time>
      </trkpt>
      <trkpt lat="44.80869" lon="4.02202">
        <ele>1110.46</ele>
        <time>2024-09-11T13:09:58Z</time>
      </trkpt>
      <trkpt lat="44.80879" lon="4.022">
        <ele>1110.46</ele>
        <time>2024-09-11T13:10:06Z</time>
      </trkpt>
      <trkpt lat="44.80886" lon="4.02199">
        <ele>1109.98</ele>
        <time>2024-09-11T13:10:12Z</time>
      </trkpt>
      <trkpt lat="44.80897" lon="4.02197">
        <ele>1109.98</ele>
        <time>2024-09-11T13:10:21Z</time>
      </trkpt>
      <trkpt lat="44.80906" lon="4.02195">
        <ele>1109.02</ele>
        <time>2024-09-11T13:10:29Z</time>
      </trkpt>
      <trkpt lat="44.80918" lon="4.02195">
        <ele>1108.06</ele>
        <time>2024-09-11T13:10:39Z</time>
      </trkpt>
      <trkpt lat="44.80931" lon="4.02194">
        <ele>1107.58</ele>
        <time>2024-09-11T13:10:49Z</time>
      </trkpt>
      <trkpt lat="44.8094" lon="4.02192">
        <ele>1107.1</ele>
        <time>2024-09-11T13:10:57Z</time>
      </trkpt>
      <trkpt lat="44.80948" lon="4.02193">
        <ele>1107.1</ele>
        <time>2024-09-11T13:11:05Z</time>
      </trkpt>
      <trkpt lat="44.80958" lon="4.02193">
        <ele>1106.13</ele>
        <time>2024-09-11T13:11:13Z</time>
      </trkpt>
      <trkpt lat="44.80967" lon="4.02192">
        <ele>1104.69</ele>
        <time>2024-09-11T13:11:21Z</time>
      </trkpt>
      <trkpt lat="44.80978" lon="4.02188">
        <ele>1105.17</ele>
        <time>2024-09-11T13:11:30Z</time>
      </trkpt>
      <trkpt lat="44.80986" lon="4.02185">
        <ele>1105.65</ele>
        <time>2024-09-11T13:11:37Z</time>
      </trkpt>
      <trkpt lat="44.80995" lon="4.02179">
        <ele>1105.17</ele>
        <time>2024-09-11T13:11:45Z</time>
      </trkpt>
      <trkpt lat="44.81003" lon="4.02174">
        <ele>1104.69</ele>
        <time>2024-09-11T13:11:53Z</time>
      </trkpt>
      <trkpt lat="44.81006" lon="4.02172">
        <ele>1104.69</ele>
        <time>2024-09-11T13:11:56Z</time>
      </trkpt>
      <trkpt lat="44.81014" lon="4.02167">
        <ele>1103.73</ele>
        <time>2024-09-11T13:12:03Z</time>
      </trkpt>
      <trkpt lat="44.81023" lon="4.02161">
        <ele>1103.25</ele>
        <time>2024-09-11T13:12:11Z</time>
      </trkpt>
      <trkpt lat="44.81033" lon="4.02158">
        <ele>1102.77</ele>
        <time>2024-09-11T13:12:20Z</time>
      </trkpt>
      <trkpt lat="44.81046" lon="4.02154">
        <ele>1102.29</ele>
        <time>2024-09-11T13:12:31Z</time>
      </trkpt>
      <trkpt lat="44.81051" lon="4.02154">
        <ele>1102.29</ele>
        <time>2024-09-11T13:12:35Z</time>
      </trkpt>
      <trkpt lat="44.81062" lon="4.02153">
        <ele>1101.33</ele>
        <time>2024-09-11T13:12:45Z</time>
      </trkpt>
      <trkpt lat="44.81069" lon="4.02151">
        <ele>1101.33</ele>
        <time>2024-09-11T13:12:53Z</time>
      </trkpt>
      <trkpt lat="44.81073" lon="4.02149">
        <ele>1101.33</ele>
        <time>2024-09-11T13:12:57Z</time>
      </trkpt>
      <trkpt lat="44.81082" lon="4.02147">
        <ele>1100.85</ele>
        <time>2024-09-11T13:13:05Z</time>
      </trkpt>
      <trkpt lat="44.81088" lon="4.02144">
        <ele>1100.85</ele>
        <time>2024-09-11T13:13:10Z</time>
      </trkpt>
      <trkpt lat="44.81096" lon="4.0214">
        <ele>1100.85</ele>
        <time>2024-09-11T13:13:17Z</time>
      </trkpt>
      <trkpt lat="44.81104" lon="4.02134">
        <ele>1100.37</ele>
        <time>2024-09-11T13:13:25Z</time>
      </trkpt>
      <trkpt lat="44.81112" lon="4.02127">
        <ele>1100.85</ele>
        <time>2024-09-11T13:13:34Z</time>
      </trkpt>
      <trkpt lat="44.81119" lon="4.02119">
        <ele>1100.85</ele>
        <time>2024-09-11T13:13:43Z</time>
      </trkpt>
      <trkpt lat="44.81121" lon="4.02119">
        <ele>1100.37</ele>
        <time>2024-09-11T13:13:51Z</time>
      </trkpt>
      <trkpt lat="44.81122" lon="4.02119">
        <ele>1100.85</ele>
        <time>2024-09-11T13:13:58Z</time>
      </trkpt>
      <trkpt lat="44.81123" lon="4.02118">
        <ele>1100.37</ele>
        <time>2024-09-11T13:14:06Z</time>
      </trkpt>
      <trkpt lat="44.81124" lon="4.02117">
        <ele>1100.85</ele>
        <time>2024-09-11T13:14:15Z</time>
      </trkpt>
      <trkpt lat="44.81131" lon="4.0211">
        <ele>1100.85</ele>
        <time>2024-09-11T13:14:23Z</time>
      </trkpt>
      <trkpt lat="44.8114" lon="4.02106">
        <ele>1101.81</ele>
        <time>2024-09-11T13:14:30Z</time>
      </trkpt>
      <trkpt lat="44.81148" lon="4.02105">
        <ele>1101.81</ele>
        <time>2024-09-11T13:14:37Z</time>
      </trkpt>
      <trkpt lat="44.81158" lon="4.02102">
        <ele>1102.29</ele>
        <time>2024-09-11T13:14:46Z</time>
      </trkpt>
      <trkpt lat="44.81165" lon="4.02107">
        <ele>1102.77</ele>
        <time>2024-09-11T13:14:54Z</time>
      </trkpt>
      <trkpt lat="44.81165" lon="4.02109">
        <ele>1103.25</ele>
        <time>2024-09-11T13:14:55Z</time>
      </trkpt>
      <trkpt lat="44.81168" lon="4.02114">
        <ele>1104.21</ele>
        <time>2024-09-11T13:15:00Z</time>
      </trkpt>
      <trkpt lat="44.81177" lon="4.02117">
        <ele>1105.65</ele>
        <time>2024-09-11T13:15:09Z</time>
      </trkpt>
      <trkpt lat="44.81182" lon="4.0211">
        <ele>1105.65</ele>
        <time>2024-09-11T13:15:18Z</time>
      </trkpt>
      <trkpt lat="44.81182" lon="4.02111">
        <ele>1104.21</ele>
        <time>2024-09-11T13:15:25Z</time>
      </trkpt>
      <trkpt lat="44.81182" lon="4.02111">
        <ele>1107.1</ele>
        <time>2024-09-11T13:15:27Z</time>
      </trkpt>
    </trkseg>
  </trk>
</gpx>